     2              OBSERVATION DATA                        RINEX VERSION / TYPE
DAT2RIN 1.01d Dan Johnson 12SEP96 4:31:08 GMT               PGM / RUN BY / DATE
Mojave '96 team Central Washington U                        OBSERVER / AGENCY
16331 TRIMBLE 4000SSI Nav 7.09 Sig 3.03                     REC # / TYPE / VERS
66916 TRIMBLE CHOKE                                         ANT # / TYPE
BAMA ALABAMA-HILLS                                          MARKER NAME
 -2416660.0000 -4522300.0000  3782897.0000                  APPROX POSITION XYZ
        1.0953        0.0000        0.0000                  ANTENNA: DELTA H/E/N
     1     1     0                                          WAVELENGTH FACT L1/2
     5    L1    C1    P1    L2    P2                        # / TYPES OF OBSERV
    30                                                      INTERVAL
  1996     9     4     1     1    0.000000                  TIME OF FIRST OBS
  1996     9     4    15    40   30.000000                  TIME OF LAST OBS
                                                            COMMENT
PANGA GPS Data Analysis Center                              COMMENT
Department of Geology                                       COMMENT
Central Washington University                               COMMENT
Ellensburg, WA 98926                                        COMMENT
                                                            COMMENT
http://www.panga.cwu.edu                                    COMMENT
ftp://panga.cwu.edu                                         COMMENT
                                                            COMMENT
    23                                                      # OF SATELLITES
           1    65    65     0    65    65                  PRN / # OF OBS
           2   842   843     0   836   836                  PRN / # OF OBS
           3   370   370     0   367   367                  PRN / # OF OBS
           4   793   795     0   762   762                  PRN / # OF OBS
           5   574   574     0   571   571                  PRN / # OF OBS
           6   259   259     0   254   254                  PRN / # OF OBS
           7   735   735     0   733   733                  PRN / # OF OBS
           9   585   586     0   580   580                  PRN / # OF OBS
          10   632   634     0   615   615                  PRN / # OF OBS
          14   506   508     0   504   504                  PRN / # OF OBS
          15   524   526     0   517   517                  PRN / # OF OBS
          16   625   626     0   618   618                  PRN / # OF OBS
          17    63    63     0    62    62                  PRN / # OF OBS
          18   760   761     0   750   750                  PRN / # OF OBS
          19   831   832     0   820   820                  PRN / # OF OBS
          22   550   551     0   549   549                  PRN / # OF OBS
          24   582   582     0   579   579                  PRN / # OF OBS
          25   268   268     0   259   259                  PRN / # OF OBS
          26   450   450     0   446   446                  PRN / # OF OBS
          27   800   800     0   798   798                  PRN / # OF OBS
          28    65     0    65    65    65                  PRN / # OF OBS
          29   650   651     0   647   647                  PRN / # OF OBS
          31   502   502     0   497   497                  PRN / # OF OBS
                                                            END OF HEADER
 96  9  4  1  1  0.0000000  0  6  1 14 15 22 25 29
   4025201.53610  24034694.92200                   3133014.59350  24034701.69540
    -18071.85510  21902004.89100                     -1634.52950  21902010.49240
   2783157.72310  21247391.49200                   2142528.24650  21247397.15240
   -469028.21910  24432235.52300                   -315486.13950  24432241.93440
   2519187.48510  21100931.41400                   1955092.03850  21100935.43440
    193599.33610  22421525.61700                    150737.44850  22421530.38740
 96  9  4  1  1 30.0000000  0  6  1 14 15 22 25 29
   4165802.81000  24061450.28900                   3242573.97940  24061456.77040
    -26916.82600  21900322.22700                     -8526.67940  21900327.31340
   2889355.93100  21267600.20300                   2225280.09440  21267605.65240
   -501717.81300  24426015.07000                   -340958.47640  24426022.01240
   2614842.16600  21119133.89800                   2029628.15240  21119137.98840
    203995.00900  22423504.24200                    158838.01040  22423508.91840
 96  9  4  1  2  0.0000000  0  6  1 14 15 22 25 29
   4306450.26400  24088213.80500                   3352169.41040  24088219.95740
    -35514.96800  21898685.84400                    -15226.52340  21898690.89540
   2996153.22100  21287923.17200                   2308498.75140  21287928.93840
   -534410.56700  24419793.82000                   -366433.19540  24419800.33640
   2711026.15400  21137437.11700                   2104576.71340  21137441.12540
    214571.46900  22425516.69500                    167079.44140  22425521.05540
 96  9  4  1  2 30.0000000  0  6  1 14 15 22 25 29
   4447122.16800  24114983.89100                   3461783.84840  24114988.16840
    -43880.95400  21897093.63300                    -21745.45840  21897099.38740
   3103547.39900  21308359.39800                   2392182.51140  21308365.37540
   -567104.51600  24413571.10200                   -391908.91240  24413576.62140
   2807706.24000  21155834.64100                   2179911.83840  21155838.81340
    225318.72100  22427561.72700                    175453.96140  22427566.30940
 96  9  4  1  3  0.0010000  0  6  1 14 15 22 25 29
   4587792.20400  24141753.28600                   3571396.75540  24141758.52440
    -52047.22100  21895540.13800                    -28108.76540  21895545.38840
   3211524.12000  21328906.89600                   2476320.20040  21328912.80240
   -599803.16800  24407349.20800                   -417388.24240  24407356.01740
   2904841.84900  21174319.20000                   2255601.92440  21174323.20840
    236206.02800  22429633.55200                    183937.61340  22429637.67740
 96  9  4  1  3 30.0010000  0  6  1 14 15 22 25 29
   4728465.90700  24168522.52100                   3681012.64640  24168528.79040
    -60004.55000  21894025.56700                    -34309.27440  21894030.72440
   3320087.96200  21349565.92700                   2560915.39740  21349571.59940
   -632482.72800  24401132.13800                   -442852.81240  24401138.50140
   3002415.25700  21192886.88000                   2331633.14540  21192890.87640
    247254.94800  22431735.88800                    192547.19840  22431740.32940
 96  9  4  1  4  0.0010000  0  6  1 14 15 22 25 29
   4869135.48700  24195288.89600                   3790625.30240  24195296.00140
    -67761.97800  21892549.50500                    -40354.01140  21892554.68540
   3429226.58900  21370334.67700                   2645958.47640  21370340.18540
   -665152.68900  24394914.59900                   -468309.84340  24394922.85340
   3100405.46200  21211533.48100                   2407989.14840  21211537.61840
    258472.12200  22433870.09900                    201287.90340  22433875.26740
 96  9  4  1  4 30.0010000  0  6  1 14 15 22 25 29
   5009793.47900  24222055.66100                   3900228.89640  24222061.61440
                  21891106.38800
   3538917.04100  21391207.37200                   2731431.54340  21391213.14940
   -697840.05700  24388693.82500                   -493780.48440  24388698.71240
   3198812.35900  21230259.97400                   2484669.84840  21230263.86440
    269860.07000  22436037.34900                    210161.66440  22436041.90740
 96  9  4  1  5  0.0010000  0  6  1 14 15 22 25 29
   5150479.57400  24248827.80200                   4009854.42540  24248833.35640
     -7132.41700  21889701.18500
   3649185.73100  21412191.34900                   2817355.18140  21412197.00940
   -730529.46300  24382472.08300                   -519252.59140  24382477.82540
   3297696.96100  21249076.97400                   2561722.78140  21249080.98140
    281453.66900  22438243.36400                    219195.66740  22438248.00540
 96  9  4  1  5 30.0010000  0  6  1 14 15 22 25 29
   5291197.84600  24275606.34900                   4119504.91840  24275612.04440
    -14282.31700  21888340.69200                     -1653.50350  21888345.93140
   3760030.26100  21433284.19200                   2903727.53840  21433289.77140
   -763219.18300  24376253.19200                   -544725.05540  24376262.11440
   3397068.07800  21267986.55200                   2639154.81540  21267990.65340
    293260.06100  22440489.77100                    228395.48440  22440494.30640
 96  9  4  1  6  0.0010000  0  6  1 14 15 22 25 29
   5431917.10500  24302382.93500                   4229156.27740  24302389.01740
    -21216.97700  21887021.57500                     -7057.11440  21887026.57940
   3871422.42000  21454481.52800                   2990526.61440  21454487.34140
   -795924.71300  24370028.66100                   -570209.81340  24370037.30240
   3496915.03900  21286986.77800                   2716957.63840  21286990.98540
    305241.02900  22442770.11400                    237731.32640  22442775.32940
 96  9  4  1  6 30.0010000  0  6  1 14 15 22 25 29
   5572645.65200  24329162.95800                   4338814.91240  24329167.70440
    -27916.79700  21885746.20800                    -12277.74140  21885751.11840
   3983368.50900  21475784.07500                   3077757.32540  21475789.60640
   -828638.81500  24363803.41100                   -595701.30640  24363808.72040
   3597260.47300  21306081.98900                   2795148.88640  21306086.02140
    317387.45300  22445081.72400                    247196.09040  22445086.45840
 96  9  4  1  7  0.0010000  0  6  1 14 15 22 25 29
   5713375.40400  24355943.99700                   4448474.42540  24355948.95440
    -34367.06400  21884518.82500                    -17303.91340  21884524.09940
   4095867.79900  21497191.87200                   3165419.08940  21497197.55640
   -861344.83800  24357579.56700                   -621186.39840  24357586.79040
   3698082.55600  21325267.66100                   2873711.54240  21325271.76340
    329689.27000  22447422.53600                    256781.92540  22447426.62640
 96  9  4  1  7 30.0010000  0  6  1 14 15 22 25 29
   5854116.05800  24382726.02100                   4558142.37440  24382730.98940
    -40551.55600  21883341.75500                    -22122.99440  21883346.92340
   4208936.58300  21518708.16100                   3253524.61440  21518714.04440
   -894009.76100  24351363.41100                   -646639.51240  24351369.68140
   3799378.31900  21344543.65300                   2952643.30040  21344547.67340
    342156.23400  22449795.14600                    266496.45040  22449799.85640
 96  9  4  1  8  0.0010000  0  6  1 14 15 22 25 29
   5994882.83100  24409513.35600                   4667830.75740  24409518.60640
    -46488.37500  21882212.23100                    -26749.08140  21882217.31740
   4322579.67900  21540333.79400                   3342077.66440  21540339.25540
   -926642.81500  24345153.64600                   -672067.87140  24345161.02140
   3901164.87000  21363913.11400                   3031957.49440  21363916.87640
    354783.11300  22452197.95800                    276335.59840  22452202.36440
 96  9  4  1  8 30.0010000  0  6  1 14 15 22 25 29
   6135628.08900  24436295.98900                   4777502.37340  24436301.15740
    -52251.51000  21881115.86400                    -31239.82840  21881120.96240
   4436737.04100  21562057.45800                   3431031.44340  21562062.74340
   -959311.33200  24338937.00500                   -697523.75340  24338943.42740
   4003374.73000  21383363.05200                   3111601.53640  21383366.88440
    367516.20600  22454620.67700                    286257.50740  22454624.98940
 96  9  4  1  9  0.0010000  0  6  1 14 15 22 25 29
   6276348.39900  24463075.10600                   4887154.51640  24463080.55640
    -57849.56300  21880050.24700                    -35601.93440  21880055.33340
   4551406.67500  21583878.15300                   3520384.39340  21583883.61440
   -992009.87100  24332715.09900                   -723003.04440  24332721.29840
   4105993.87000  21402890.52800                   3191564.50140  21402894.71240
    380367.51900  22457066.16100                    296271.53740  22457070.66140
 96  9  4  1  9 30.0010000  0  6  1 14 15 22 25 29
   6417057.80400  24489850.56000                   4996798.19440  24489856.68840
    -63273.26300  21879018.58300                    -39828.18440  21879023.91540
   4666599.95400  21605799.04400                   3610145.36840  21605805.03240
  -1024723.16400  24326490.01300                   -748493.81840  24326495.81340
   4209046.21300  21422501.63800                   3271865.02740  21422505.64640
    393354.21600  22459537.91900                    306391.05740  22459542.22040
 96  9  4  1 10  0.0010000  0  6  1 14 15 22 25 29
   6557845.31900  24516641.32500                   5106502.75540  24516648.08740
    -68427.47700  21878037.81000                    -43844.44740  21878042.26340
   4782397.25600  21627835.06700                   3700377.01940  21627839.91940
  -1057357.59200  24320280.70800                   -773923.21940  24320286.13440
   4312612.15900  21442209.66900                   3352565.77140  21442212.68140
    406574.36800  22462053.74700                    316692.51440  22462057.61440
 96  9  4  1 10 30.0010000  0  6  1 14 15 22 25 29
   6698611.19200  24543428.08300                   5216190.38440  24543432.05640
    -73382.17600  21877095.20800                    -47705.24240  21877099.57940
   4898704.42600  21649967.82500                   3791005.95540  21649972.92340
  -1089981.53000  24314070.97400                   -799344.41040  24314076.81040
   4416579.09900  21461993.81000                   3433578.97240  21461996.93840
    419946.22700  22464598.29400                    327112.16840  22464602.14940
 96  9  4  1 11  0.0010000  0  6  1 14 15 22 25 29
   6839364.94600  24570212.13800                   5325868.64340  24570219.50140
    -78093.91600  21876198.70800                    -51376.73440  21876202.83340
   5015536.88900  21672200.07500                   3882044.22240  21672204.89240
  -1122569.82500  24307870.56700                   -824737.83240  24307876.50940
   4520968.37600  21481858.65300                   3514921.26040  21481861.95840
    433483.61400  22467173.77100                    337660.81140  22467177.62640
 96  9  4  1 11 30.0010000  0  6  1 14 15 22 25 29
   6980109.91100  24596996.15300                   5435540.03040  24597002.02440
    -82564.73900  21875347.71600                    -54860.48840  21875351.84140
   5132883.82100  21694530.39600                   3973483.36740  21694535.22440
  -1155131.88300  24301674.05200                   -850110.78940  24301680.29840
   4625776.71400  21501802.87200                   3596590.08840  21501806.22440
    447169.39000  22469778.76300                    348325.07540  22469782.40740
 96  9  4  1 12  0.0010000  0  6  1 14 15 22 25 29
   7120868.80900  24623782.70800                   5545222.19940  24623786.02440
    -86770.25600  21874547.41100                    -58137.51440  21874551.45440
   5250758.16300  21716960.89600                   4065333.47840  21716966.20440
  -1187660.47000  24295484.32500                   -875457.64640  24295491.29040
   4731012.94100  21521828.75500                   3678592.34140  21521831.95440
    461021.42800  22472414.98900                    359118.89140  22472418.62240
 96  9  4  1 12 30.0010000  0  6  1 14 15 22 25 29
   7261647.42600  24650571.81000                   5654919.72340  24650577.81040
    -90701.01700  21873799.81000                    -61200.45440  21873803.98140
   5369169.46700  21739494.28600                   4157602.00240  21739499.05640
  -1220153.49500  24289300.98100                   -900776.79740  24289308.11040
   4836693.05900  21541939.08300                   3760940.48140  21541942.24740
    475041.46600  22475082.70000                    370043.60540  22475086.35640
 96  9  4  1 13  0.0010000  0  6  1 14 15 22 25 29
   7402454.81300  24677365.46600                   5764639.84140  24677370.15340
    -94357.24900  21873103.78600                    -64049.45740  21873108.34540
   5488121.53100  21762129.77800                   4250291.89640  21762135.00540
  -1252607.77800  24283124.71600                   -926065.79740  24283128.71240
   4942839.79500  21562137.93500                   3843652.22240  21562141.25140
    489234.21100  22477783.70800                    381102.90340  22477787.30640
 96  9  4  1 13 30.0010000  0  6  1 14 15 22 25 29
   7543267.70000  24704161.89600                   5874364.10440  24704168.14240
    -97775.84600  21872453.33300                    -66713.28940  21872457.66940
   5607590.48500  21784864.32500                   4343384.56240  21784869.31740
  -1285027.58600  24276955.30200                   -951327.90340  24276959.60340
   5049429.49300  21582421.46600                   3926709.12940  21582424.89940
    503584.71200  22480514.32500                    392285.12440  22480517.64240
 96  9  4  1 14  0.0010000  0  6  1 14 15 22 25 29
   7684101.86500  24730960.74700                   5984105.02940  24730964.42740
   -100937.78100  21871851.41100                    -69177.13540  21871855.82940
   5727603.30300  21807701.88000                   4436901.01840  21807706.79040
  -1317379.24000  24270798.97400                   -976536.96540  24270804.71640
   5156488.87600  21602793.91100                   4010132.01440  21602797.26340
    518120.35400  22483280.11400                    403611.60240  22483283.67740
 96  9  4  1 14 30.0010000  0  6  1 14 15 22 25 29
   7824936.21300  24757762.49700                   6093846.05340  24757766.83340
   -103858.92900  21871295.64600                    -71453.34140  21871300.08740
   5848147.92100  21830640.53600                   4530831.86540  21830645.34140
  -1349650.95500  24264657.59900                  -1001683.69940  24264663.30640
   5264010.22000  21623254.55200                   4093914.87940  21623257.77440
    532828.18000  22486078.91100                    415072.25340  22486082.47440
 96  9  4  1 15  0.0010000  0  6  1 14 15 22 25 29
   7965775.96700  24784562.20800                   6203591.19240  24784568.33740
   -106535.31000  21870786.63000                    -73538.82740  21870790.82540
   5969223.71300  21853681.30200                   4625176.61540  21853685.93140
  -1381825.60800  24258534.82500                  -1026754.76340  24258541.57540
   5371987.68500  21643802.06700                   4178053.16640  21643805.30240
    547717.06700  22488912.33300                    426673.99640  22488915.90740
 96  9  4  1 15 30.0020000  0  6  1 14 15 22 25 29
   8106616.60900  24811362.73600                   6313337.17140  24811367.56440
   -108954.27100  21870326.02500                    -75423.72440  21870330.32640
   6090837.11100  21876822.97900                   4719940.27840  21876827.88940
  -1413903.11900  24252431.08800                  -1051750.14840  24252436.45540
   5480402.28900  21664432.59600                   4262532.07440  21664435.93640
    562801.58200  22491782.57200                    438428.18540  22491786.51040
 96  9  4  1 16  0.0020000  0  6  1 14 15 22 25 29
   8247458.00900  24838163.91600                   6423083.65140  24838170.32640
   -111098.19900  21869918.22900                    -77094.31040  21869922.07240
   6212982.27000  21900066.56400                   4815118.29740  21900071.36940
  -1445890.02900  24246344.58000                  -1076674.97740  24246349.60740
   5589249.53000  21685145.54100                   4347348.10040  21685148.71740
    578076.29600  22494689.25200                    450330.57640  22494692.75640
 96  9  4  1 16 30.0020000  0  6  1 14 15 22 25 29
   8388304.71400  24864967.58800                   6532834.30640  24864971.99440
   -112958.50600  21869564.22100                    -78543.89140  21869568.24040
   6335646.27000  21923408.63500                   4910700.61440  21923413.60440
  -1477798.60300  24240271.77500                  -1101538.71440  24240278.81140
   5698511.97600  21705937.47900                   4432487.66140  21705941.02940
    593531.62800  22497630.24400                    462373.71940  22497633.84240
 96  9  4  1 17  0.0020000  0  6  1 14 15 22 25 29
   8529167.84700  24891772.46300                   6642597.69140  24891779.97940
   -114534.05300  21869264.10400                    -79771.57640  21869268.20540
   6458828.28300  21946849.64300                   5006686.57140  21946854.52940
  -1509639.99200  24234212.61900                  -1126350.11340  24234219.27540
   5808184.50100  21726807.83800                   4517946.77040  21726811.27140
    609153.80900  22500602.94700                    474546.87940  22500607.11940
 96  9  4  1 17 30.0020000  0  6  1 14 15 22 25 29
   8670056.64100  24918582.75200                   6752381.15740  24918591.29940
   -115818.33700  21869019.85400                    -80772.29140  21869024.35440
   6582534.20500  21970389.99400                   5103080.78140  21970395.03340
  -1541412.86500  24228166.72900                  -1151108.14840  24228172.93940
   5918283.02300  21747758.70500                   4603737.81940  21747762.05740
    624931.97400  22503605.69700                    486841.58640  22503609.83440
 96  9  4  1 18  0.0020000  0  6  1 14 15 22 25 29
   8810986.12400  24945400.63500                   6862196.32840  24945405.90840
   -116813.26500  21868830.68200                    -81547.54240  21868834.85440
   6706760.64300  21994029.58000                   5199880.57640  21994034.35040
  -1573111.28600  24222134.11100                  -1175808.14440  24222139.31440
   6028830.53800  21768795.40000                   4689878.73740  21768798.75240
    640850.41400  22506635.01000                    499245.59440  22506638.33840
 96  9  4  1 18 30.0020000  0  6  1 14 15 22 25 29
   8951949.66000  24972224.74400                   6972038.00040  24972229.04540
   -117523.13300  21868695.39300                    -82100.66540  21868699.77540
   6831507.01200  22017768.09600                   5297085.52240  22017772.59640
  -1604731.50200  24216118.42400                  -1200447.21440  24216124.08440
   6139831.34500  21789917.57200                   4776372.87140  21789920.66640
    656918.93700  22509692.59600                    511766.54740  22509695.98240
 96  9  4  1 19  0.0020000  0  6  1 14 15 22 25 29
   9092936.16600  24999054.37700                   7081897.57440  24999059.90840
   -117949.36800  21868614.37700                    -82432.77640  21868618.72540
   6956774.50300  22041605.83000                   5394696.53640  22041610.57640
  -1636275.29200  24210115.56400                  -1225026.73740  24210120.39340
   6251293.88200  21811128.62700                   4863226.79040  21811132.10740
    673149.99000  22512781.26000                    524414.14040  22512784.77540
 96  9  4  1 19 30.0020000  0  6  1 14 15 22 25 29
   9233946.45400  25025888.38500                   7191775.70040  25025895.11140
   -118083.47600  21868588.93900                    -82537.25640  21868593.13540
   7082562.87700  22065542.33800                   5492713.42840  22065547.33040
  -1667742.48300  24204126.35400                  -1249546.56340  24204132.42440
   6363215.19200  21832426.57200                   4950438.19840  21832429.98240
    689572.40600  22515906.43200                    537210.84840  22515909.88940
 96  9  4  1 20  0.0020000  0  6  1 14 15 22 25 29
   9374955.68900  25052719.70500                   7301653.06640  25052726.06840
   -117938.59500  21868616.54900                    -82424.34740  21868620.60440
   7208854.33300  22089575.06400                   5591122.33540  22089579.98640
  -1699137.59300  24198152.72100                  -1274010.24240  24198158.51040
   6475562.68600  21853805.58000                   5037981.70340  21853808.93240
    706193.49200  22519069.15800                    550162.35940  22519072.68640
 96  9  4  1 20 30.0020000  0  6  1 14 15 22 25 29
   9515971.99300  25079555.75200                   7411535.77440  25079561.49440
   -117497.91800  21868700.41600                    -82080.94840  21868704.51840
   7335659.89900  22113705.13500                   5689931.84640  22113710.16240
  -1730438.16600  24192195.65000                  -1298400.21040  24192202.53340
   6588330.16700  21875264.51800                   5125852.46340  21875267.96340
    723038.52700  22522274.82200                    563288.38040  22522277.93940
 96  9  4  1 21  0.0020000  0  6  1 14 15 22 25 29
   9657016.80800  25106394.72900                   7521440.83640  25106403.92040
   -116739.63400  21868844.83000                    -81490.06840  21868848.99040
   7462986.91400  22137934.56400                   5789147.68640  22137939.56840
  -1761616.70800  24186263.71300                  -1322695.14740  24186268.95140
   6701515.21400  21896802.76000                   5214048.60240  21896806.04140
    740111.32100  22525523.83000                    576591.87340  22525527.31140
 96  9  4  1 21 30.0020000  0  6  1 14 15 22 25 29
   9798073.52300  25133236.83000                   7631355.15640  25133241.62340
   -115682.87500  21869045.46300                    -80666.61340  21869049.76440
   7590816.52300  22162259.90000                   5888755.15540  22162264.75240
  -1792657.69300  24180356.65000                  -1346882.86640  24180362.46340
   6815094.40900  21918416.35400                   5302551.86740  21918419.57640
    757369.28100  22528807.37700                    590039.64840  22528811.13940
 96  9  4  1 22  0.0020000  0  6  1 14 15 22 25 29
   9939120.34200  25160077.72100                   7741261.72740  25160082.47940
   -114340.40400  21869300.73600                    -79620.52240  21869305.00240
   7719126.00900  22186676.61900                   5988736.54840  22186681.55340
  -1823557.03600  24174475.93900                  -1370960.23440  24174482.12740
   6929063.07400  21940103.86100                   5391358.61840  21940106.93240
    774769.38900  22532118.44700                    603598.20140  22532122.47940
 96  9  4  1 22 30.0020000  0  6  1 14 15 22 25 29
  10080185.87800  25186921.85400                   7851182.89940  25186927.44340
   -112691.43400  21869614.86100                    -78335.60040  21869619.13940
   7847929.37300  22211186.74400                   6089102.78340  22211191.81840
  -1854301.65200  24168626.01000                  -1394916.99840  24168631.38940
   7043453.65200  21961871.43900                   5480494.13140  21961874.72140
    792304.84500  22535455.63500                    617262.21840  22535459.53740
 96  9  4  1 23  0.0020000  0  6  1 14 15 22 25 29
  10221283.05900  25213771.67400                   7961128.77440  25213777.22940
   -110728.66700  21869988.25200                    -76806.16440  21869992.22540
   7977235.33200  22235792.90000                   6189860.65040  22235797.97540
  -1884876.60200  24162807.27500                  -1418741.55840  24162813.17040
   7158279.41300  21983722.21300                   5569968.74640  21983725.56440
    809978.67200  22538818.59600                    631034.05040  22538822.33440
 96  9  4  1 23 30.0020000  0  6  1 14 15 22 25 29
  10362392.61700  25240623.85400                   8071084.17840  25240629.98240
   -108463.76200  21870419.44700                    -75041.30840  21870423.46740
   8107030.08600  22260492.24400                   6290999.39340  22260496.81440
  -1915304.75500  24157016.65800                  -1442451.76440  24157022.72940
   7273528.49000  22005653.36100                   5659773.21240  22005656.54940
    827784.06100  22542207.00200                    644908.40140  22542210.68240
 96  9  4  1 24  0.0020000  0  6  1 14 15 22 25 29
  10503514.60800  25267477.24400                   8181049.35640  25267481.41640
   -105884.17400  21870910.22900                    -73031.23340  21870914.43640
   8237313.94500  22285284.29900                   6392519.26340  22285289.11540
  -1945603.97400  24151250.55700                  -1466061.45740  24151256.35740
   7389204.71900  22027665.75200                   5749910.53840  22027668.97540
    845759.63200  22545628.07200                    658915.36240  22545631.57640
 96  9  4  1 24 30.0020000  0  6  1 14 15 22 25 29
  10644639.96500  25294334.03300                   8291017.12340  25294340.58440
   -102999.05600  21871459.29900                    -70783.09240  21871463.47140
   8368078.35500  22310168.22900                   6494413.57940  22310173.29140
  -1975789.36600  24145507.58800                  -1489582.49140  24145514.44740
   7505287.19200  22049755.61900                   5840364.40740  22049758.94740
    863919.32100  22549083.23600                    673065.78340  22549086.54140
 96  9  4  1 25  0.0020000  0  6  1 14 15 22 25 29
  10785780.75200  25321191.86900                   8400996.92640  25321198.24440
    -99790.10600  21872070.01000                    -68282.61440  21872074.24040
   8499337.11900  22335145.91600                   6596693.10940  22335151.06140
  -2005834.05100  24139789.68900                  -1512993.90640  24139795.63140
   7621777.66000  22071923.05700                   5931136.19640  22071925.99840
    882292.88800  22552579.79100                    687382.86340  22552583.20140
 96  9  4  1 25 30.0020000  0  6  1 14 15 22 25 29
  10926926.12100  25348051.66600                   8510980.30340  25348056.33040
    -96262.40700  21872740.94700                    -65533.75540  21872745.31840
   8631083.72900  22360215.96300                   6699352.77840  22360220.96740
  -2035743.97400  24134097.41600                  -1536300.24140  24134102.76040
   7738679.73900  22094168.71300                   6022228.71940  22094171.67840
    900889.51800  22556118.58000                    701873.75740  22556122.15440
 96  9  4  1 26  0.0020000  0  6  1 14 15 22 25 29
  11068069.72700  25374910.04900                   8620962.31440  25374917.43640
    -92432.95700  21873469.79100                    -62549.76740  21873474.01040
   8763305.43600  22385377.40000                   6802382.64940  22385382.49840
  -2065524.39200  24128429.63500                  -1559505.73540  24128436.36140
   7855992.55100  22116492.84600                   6113641.29840  22116496.13940
    919698.36700  22559697.43200                    716530.02040  22559700.80740
 96  9  4  1 26 30.0020000  0  6  1 14 15 22 25 29
  11209228.28600  25401771.01000                   8730955.98940  25401779.04140
    -88307.31000  21874254.67400                    -59334.97540  21874259.10440
   8896002.77900  22410628.93200                   6905783.14940  22410633.86540
  -2095169.32800  24122790.20500                  -1582605.62940  24122794.63540
   7973716.94700  22138894.93200                   6205374.58640  22138898.14340
    938685.60100  22563310.59600                    731325.28540  22563314.13540
 96  9  4  1 27  0.0020000  0  6  1 14 15 22 25 29
  11350410.59100  25428637.56400                   8840968.09840  25428639.86140
    -83862.37800  21875100.96300                    -55871.39440  21875105.14640
   9029184.56100  22435972.38500                   7009561.13440  22435977.03740
  -2124665.86200  24117177.24400                  -1605589.80940  24117182.03740
   8091871.34800  22161378.64300                   6297442.95440  22161381.81840
    957848.68500  22566957.32200                    746257.57240  22566960.92040
 96  9  4  1 27 30.0030000  0  6  1 14 15 22 25 29
  11491626.72900  25455510.49100                   8951006.66740  25455517.18340
    -79088.53500  21876009.09300                    -52151.51440  21876013.47640
   9162853.96200  22461409.45200                   7113719.08140  22461414.45640
  -2154027.17200  24111588.99900                  -1628468.70740  24111594.29640
   8210469.23300  22183947.28800                   6389856.88540  22183950.52240
    977191.41400  22570638.14000                    761329.84940  22570641.45640
 96  9  4  1 28  0.0030000  0  6  1 14 15 22 25 29
  11632868.05300  25482387.25700                   9061064.72140  25482394.05440
    -73969.02400  21876983.60100                    -48162.27840  21876987.76140
   9296993.30000  22486934.56200                   7218243.22540  22486939.74140
  -2183252.02600  24106027.12400                  -1651241.26540  24106033.13640
   8329480.89400  22206594.33500                   6482593.24340  22206597.75740
    996684.34800  22574347.53800                    776519.15640  22574350.76140
 96  9  4  1 28 30.0030000  0  6  1 14 15 22 25 29
  11774137.38100  25509269.91300                   9171144.67040  25509272.21040
    -68489.55900  21878026.23300                    -43892.56340  21878030.45240
   9431603.29200  22512550.60800                   7323134.10240  22512555.47240
  -2212339.16500  24100492.62400                  -1673906.51040  24100497.25340
   8448891.53900  22229317.56200                   6575640.49240  22229320.94840
   1016329.35000  22578086.14700                    791826.95640  22578089.42940
 96  9  4  1 29  0.0030000  0  6  1 14 15 22 25 29
  11915426.29900  25536155.79600                   9281239.93840  25536158.47940
    -62650.31000  21879137.17900                    -39342.49640  21879141.47940
   9566676.99100  22538254.26500                   7428386.30640  22538259.28040
  -2241282.76200  24094984.97600                  -1696459.88540  24094991.96440
   8568688.92900  22252114.48300                   6668989.10140  22252117.81240
   1036149.37700  22581857.51500                    807271.14140  22581860.79640
 96  9  4  1 29 30.0030000  0  6  1 14 15 22 25 29
  12056760.35000  25563051.86600                   9391370.33440  25563058.53440
    -56451.45100  21880316.74100                    -34512.19940  21880321.06540
   9702225.02200  22564048.00700                   7534008.12840  22564053.21040
  -2270052.53600  24089510.28800                  -1718877.84140  24089515.87840
   8688871.99400  22274984.78000                   6762638.23940  22274987.94440
   1056165.64900  22585666.64000                    822868.24340  22585670.09740
 96  9  4  1 30  0.0030000  0  6  1 14 15 22 25 29
  12198123.40900  25589951.21800                   9501523.38740  25589957.49940
    -49911.37400  21881561.26500                    -29416.01340  21881565.96440
   9838238.19300  22589930.17100                   7639992.38540  22589935.49140
  -2298631.81800  24084071.74100                  -1741147.36740  24084076.81540
   8809438.93200  22297927.44400                   6856586.49840  22297930.59740
   1076371.33600  22589511.78000                    838612.94840  22589515.10840
 96  9  4  1 30 30.0030000  0  6  1 14 15 22 25 29
  12339516.30300  25616858.08500                   9611699.64840  25616863.00740
    -43052.57000  21882866.52200                    -24071.47440  21882870.89440
   9974711.53400  22615900.17900                   7746335.22440  22615905.04240
  -2327018.79400  24078670.10100                  -1763267.02440  24078674.31940
   8930393.58500  22320944.35800                   6950836.87440  22320947.60440
   1096781.69000  22593395.46800                    854517.13040  22593398.85440
 96  9  4  1 31  0.0030000  0  6  1 14 15 22 25 29
  12480936.64300  25643769.62400                   9721897.24240  25643775.07340
    -35878.82100  21884231.47600                    -18481.51540  21884235.94040
  10111637.04700  22641956.64000                   7853030.41140  22641961.57340
  -2355202.07200  24073306.91300                  -1785227.95340  24073312.11640
   9051738.91500  22344035.65500                   7045391.66540  22344039.06540
   1117389.87600  22597317.04600                    870575.47040  22597320.62040
 96  9  4  1 31 30.0030000  0  6  1 14 15 22 25 29
  12622394.81400  25670687.36600                   9832124.43440  25670692.73340
    -28365.24600  21885661.27200                    -12626.76440  21885665.33940
  10249024.57200  22668100.62400                   7960085.60640  22668105.71040
  -2383173.36400  24067983.62400                  -1807023.68940  24067990.35140
   9173493.33700  22367204.94400                   7140265.23140  22367208.36640
   1138199.10900  22601276.89700                    886790.47040  22601280.35440
 96  9  4  1 32  0.0030000  0  6  1 14 15 22 25 29
  12763881.94400  25697612.53800                   9942374.13340  25697615.62040
    -20500.41500  21887158.21000                     -6498.30540  21887162.35840
  10386862.79300  22694330.24100                   8067491.99240  22694335.37440
  -2410947.52300  24062698.10100                  -1828665.85540  24062702.88240
   9295637.52700  22390448.15500                   7235442.52040  22390451.15540
   1159194.40000  22605272.34300                    903150.44940  22605275.72940
 96  9  4  1 32 30.0030000  0  6  1 14 15 22 25 29
  12905420.77300  25724546.89700                  10052664.08640  25724549.79240
    -12258.20100  21888726.68700                       -75.78240  21888730.68340
  10525161.04300  22720647.82700                   8175256.83940  22720653.13640
  -2438507.77500  24057454.20200                  -1850141.30440  24057459.08940
   9418164.24300  22413764.28800                   7330917.88540  22413767.38240
   1180381.21100  22609304.03000                    919659.66240  22609307.05440
 96  9  4  1 33  0.0030000  0  6  1 14 15 22 25 29
  13046988.69400  25751485.59300                  10162976.73940  25751493.03840
     -3639.15300  21890366.69400                      6640.37140  21890370.67940
  10663904.40500  22747049.81200                   8283368.53140  22747054.79240
  -2465852.33300  24052250.88200                  -1871448.69040  24052256.70640
   9541060.63700  22437150.49900                   7426681.30240  22437153.79240
   1201740.66500  22613368.35100                    936303.40440  22613371.85440
 96  9  4  1 33 30.0030000  0  5 14 15 22 25 29
      5355.19100  21892078.17900                     13648.96840  21892082.42140
  10803097.98000  22773536.95200                   8391831.03540  22773542.02640
  -2492977.35800  24047089.46000                  -1892585.01540  24047094.71040
   9664330.45800  22460607.96800                   7522735.70540  22460611.42540
   1223272.53700  22617466.29600                    953081.49540  22617469.54240
 96  9  4  1 34  0.0030000  0  5 14 15 22 25 29
     14682.59300  21893852.95200                     20917.08940  21893857.18340
  10942707.38500  22800104.05400                   8500617.57140  22800109.21040
  -2519898.32600  24041966.26500                  -1913562.34640  24041971.02240
   9787942.13800  22484130.37400                   7619056.49540  22484133.63240
   1244945.09700  22621589.96000                    969969.21740  22621593.24140
 96  9  4  1 34 30.0030000  0  5 14 15 22 25 29
     24366.14700  21895695.68700                     28462.73140  21895699.98740
  11082765.50000  22826756.17100                   8609753.74240  22826761.12840
  -2546577.85300  24036889.64700                  -1934351.54140  24036895.05040
   9911950.05800  22507728.46000                   7715686.03840  22507731.68340
   1266804.71200  22625749.67100                    987002.69640  22625752.88240
 96  9  4  1 35  0.0030000  0  5 14 15 22 25 29
     34403.16000  21897605.70200                     36283.78640  21897610.05040
  11223262.93200  22853491.83500                   8719232.24440  22853496.95640
  -2573040.64800  24031853.42100                  -1954971.82440  24031858.21440
  10036358.92500  22531402.25700                   7812628.01340  22531405.56240
   1288845.89100  22629944.09300                   1004177.65540  22629947.45640
 96  9  4  1 35 30.0030000  0  5 14 15 22 25 29
     44785.54600  21899581.59300                     44373.96340  21899585.88240
  11364181.78700  22880308.02200                   8829039.12140  22880313.05040
  -2599318.57300  24026852.89700                  -1975448.07940  24026857.63240
  10161141.36400  22555148.21000                   7909861.07640  22555151.31540
   1311055.45300  22634170.41300                   1021483.82440  22634173.90540
 96  9  4  1 36  0.0030000  0  5 14 15 22 25 29
     55533.49000  21901626.70200                     52748.99240  21901630.81540
  11505526.47600  22907204.82700                   8939177.81340  22907209.57340
  -2625410.92500  24021887.42900                  -1995779.72540  24021892.87840
  10286298.96000  22578964.91300                   8007386.47640  22578968.11240
   1333454.65500  22638432.22600                   1038937.76640  22638436.01140
 96  9  4  1 36 30.0030000  0  5 14 15 22 25 29
     66649.67500  21903742.23300                     61410.96440  21903746.38240
  11647281.81500  22934180.23300                   9049636.50840  22934185.41340
  -2651336.82800  24016953.21000                  -2015981.68640  24016958.57740
  10411815.09900  22602849.63200                   8105191.25640  22602852.66740
   1356032.90500  22642729.04600                   1056531.23940  22642732.84340
 96  9  4  1 37  0.0030000  0  5 14 15 22 25 29
     78144.85100  21905929.49900                     70368.24140  21905933.60140
  11789445.94300  22961233.48300                   9160413.72740  22961238.85140
  -2677083.60900  24012054.21800                  -2036044.06840  24012059.97240
  10537685.66700  22626801.80400                   8203272.21440  22626805.05040
   1378782.69500  22647058.32700                   1074258.36940  22647061.98340
 96  9  4  1 37 30.0030000  0  5 14 15 22 25 29
     90003.35300  21908186.31900                     79608.63740  21908190.50340
  11932005.82700  22988361.51500                   9271499.31840  22988366.62440
  -2702639.02000  24007190.79600                  -2055957.33240  24007195.81240
  10663884.63500  22650816.71000                   8301609.06640  22650819.81540
   1401705.68500  22651420.31900                   1092120.45340  22651423.65940
 96  9  4  1 38  0.0030000  0  5 14 15 22 25 29
    102225.03800  21910511.98300                     89132.03340  21910516.10840
  12074964.55200  23015565.57700                   9382895.70840  23015570.93340
  -2727979.49100  24002368.28800                  -2075703.08240  24002373.69040
  10790429.26100  22674897.61600                   8400215.27040  22674900.54640
   1424805.97400  22655815.97600                   1110120.69840  22655819.33940
 96  9  4  1 38 30.0030000  0  5 14 15 22 25 29
    114815.47200  21912908.10800                     98942.76640  21912912.19840
  12218321.69900  23042845.37400                   9494602.56040  23042851.03440
  -2753083.50000  23997591.15500                  -2095264.58640  23997596.68740
  10917322.14500  22699044.51500                   8499092.84440  22699047.76140
   1448076.92700  22660244.61600                   1128253.92040  22660248.02640
 96  9  4  1 39  0.0030000  0  5 14 15 22 25 29
    127760.64200  21915371.39000                    109029.91840  21915375.33940
  12362059.03000  23070197.69400                   9606605.64440  23070202.60440
  -2777969.53700  23992856.25700                  -2114656.26140  23992861.98740
  11044536.43200  22723252.39000                   8598220.86040  22723255.99940
   1471497.11600  22664701.28000                   1146503.43240  22664704.50340
 96  9  4  1 39 30.0030000  0  5 14 15 22 25 29
    141080.66000  21917906.01500                    119409.15740  21917909.92940
  12506192.26400  23097625.25700                   9718917.23340  23097630.83540
  -2802630.31100  23988163.71800                  -2133872.40240  23988169.35440
  11172079.15100  22747523.02200                   8697604.79440  22747526.55040
   1495082.71800  22669189.56200                   1164881.83540  22669192.71440
 96  9  4  1 40  0.0040000  0  5 14 15 22 25 29
    154788.18600  21920514.48000                    130090.34740  21920518.39540
  12650724.45300  23125129.41000                   9831539.68240  23125134.32040
  -2827068.45600  23983512.56600                  -2152915.07340  23983518.80140
  11299966.76300  22771859.25400                   8797257.46940  22771862.60540
   1518821.20000  22673706.96500                   1183379.37440  22673710.12940
 96  9  4  1 40 30.0040000  0  5 14 15 22 25 29
    168883.00800  21923196.53500                    141073.33340  21923200.60240
  12795641.42600  23152705.82400                   9944461.98040  23152710.82840
  -2851286.20300  23978905.25400                  -2171785.97140  23978910.23440
  11428182.89000  22796258.16000                   8897166.14140  22796261.31240
   1542709.70300  22678252.54300                   1201993.80340  22678256.16440
 96  9  4  1 41  0.0040000  0  5 14 15 22 25 29
    183360.57300  21925951.39500                    152354.55940  21925955.30940
  12940950.25100  23180357.45700                  10057689.60040  23180362.89540
  -2875288.45100  23974336.50400                  -2190488.97040  23974342.87940
  11556733.67000  22820720.24600                   8997335.57940  22820723.46940
   1566747.98000  22682827.11300                   1220724.94140  22682830.28940
 96  9  4  1 41 30.0040000  0  5 14 15 22 25 29
    198199.50800  21928775.31600                    163917.37840  21928779.24240
  13086632.89600  23208079.74600                  10171208.52240  23208084.68040
  -2899069.86800  23969811.50400                  -2209019.90840  23969815.65240
  11685619.79700  22845246.82400                   9097766.32540  22845250.36340
   1590936.32500  22687429.50400                   1239573.02340  22687432.77340
 96  9  4  1 42  0.0040000  0  5 14 15 22 25 29
    213389.46400  21931665.88700                    175753.71740  21931670.00040
  13232681.72100  23235871.96500                  10285012.76440  23235877.47340
  -2922623.33200  23965328.33200                  -2227373.20640  23965333.40640
  11814849.00500  22869838.17600                   9198464.39840  22869841.79740
   1615279.82600  22692062.15200                   1258542.00040  22692065.71540
 96  9  4  1 42 30.0040000  0  5 14 15 22 25 29
    228929.90000  21934623.27000                    187863.15240  21934627.25440
  13379095.93300  23263733.80900                  10399101.73240  23263738.82440
  -2945945.50700  23960890.74600                  -2245546.26240  23960896.32440
  11944420.74300  22894494.74600                   9299429.39040  22894497.99240
   1639792.33400  22696726.84800                   1277642.66440  22696730.31640
 96  9  4  1 43  0.0040000  0  5 14 15 22 25 29
    244831.32900  21937649.10500                    200253.88140  21937653.09040
  13525874.33000  23291664.87900                  10513474.47740  23291669.63740
  -2969032.33200  23956497.33200                  -2263535.94640  23956503.28540
  12074331.72700  22919215.90200                   9400658.71440  22919219.24240
   1664482.29800  22701425.23000                   1296881.60840  22701428.64140
 96  9  4  1 43 30.0040000  0  5 14 15 22 25 29
    261098.27900  21940744.48800                    212929.43640  21940748.57840
  13673012.65900  23319663.80100                  10628127.68440  23319668.79340
  -2991872.89300  23952151.58200                  -2281333.73240  23952156.80940
  12204583.48100  22944002.05900                   9502153.57840  22944005.08240
   1689363.40100  22706159.87100                   1316269.48640  22706162.88340
 96  9  4  1 44  0.0040000  0  5 14 15 22 25 29
    277730.26200  21943909.44100                    225889.42640  21943913.49640
  13820501.95600  23347730.36300                  10743054.38440  23347735.55540
  -3014474.57000  23947849.80900                  -2298945.38740  23947854.29740
  12335162.50600  22968850.02000                   9603903.46140  22968853.25440
   1714413.62000  22710926.50400                   1335789.15240  22710929.70340
 96  9  4  1 44 30.0040000  0  5 14 15 22 25 29
    294749.35800  21947147.92600                    239151.06740  21947152.19140
  13968347.57400  23375864.76200                  10858258.73140  23375869.40240
  -3036825.53500  23943596.72300                  -2316361.67540  23943602.06640
  12466064.34700  22993760.09800                   9705904.88940  22993763.60240
   1739627.93300  22715724.54300                   1355436.67840  22715727.73040
 96  9  4  1 45  0.0040000  0  5 14 15 22 25 29
    312134.22300  21950456.18400                    252697.72040  21950460.55540
  14116522.07800  23404061.05900                  10973719.34940  23404066.06240
  -3058939.28800  23939388.79300                  -2333593.11540  23939393.37540
  12597251.35600  23018724.01200                   9808128.51940  23018727.28140
   1764983.91500  22720549.83200                   1375194.58740  22720553.14840
 96  9  4  1 45 30.0040000  0  5 14 15 22 25 29
    329900.95500  21953837.18400                    266541.93740  21953841.30940
  14265035.14700  23432322.57400                  11089443.78440  23432328.00040
  -3080799.35400  23935228.77000                  -2350626.87340  23935234.04340
  12728730.27500  23043743.80100                   9910579.62440  23043746.83640
   1790481.26600  22725401.96500                   1395062.65740  22725405.32840
 96  9  4  1 46  0.0040000  0  5 14 15 22 25 29
    348059.10900  21957292.53500                    280691.15640  21957296.73040
  14413879.62000  23460646.48000                  11205426.45940  23460651.44940
  -3102413.16600  23931116.61300                  -2367468.78140  23931121.62940
  12860484.98800  23068816.05100                  10013245.62740  23068819.14540
   1816102.76400  22730277.48000                   1415027.47140  22730280.44540
 96  9  4  1 46 30.0040000  0  5 14 15 22 25 29
    366619.42400  21960824.39500                    295153.74940  21960828.42640
  14563056.90300  23489033.80100                  11321668.45940  23489039.07440
  -3123780.48200  23927049.47300                  -2384118.58940  23927055.30940
  12992510.54300  23093939.69900                  10116122.66940  23093943.40240
   1841861.26800  22735178.97300                   1435099.04340  22735182.17240
 96  9  4  1 47  0.0040000  0  5 14 15 22 25 29
    385577.62700  21964432.10500                    309926.38140  21964436.10240
  14712567.79400  23517485.09000                  11438170.41840  23517490.38740
  -3144892.24200  23923031.84000                  -2400569.26340  23923036.64540
  13124802.92100  23119114.06600                  10219207.63440  23119117.43040
   1867777.54300  22740110.85500                   1455293.55640  22740114.40640
 96  9  4  1 47 30.0040000  0  6 14 15 18 22 25 29
    404921.14400  21968113.12100                    324999.26140  21968117.10540
  14862398.65300  23545996.84800                  11554921.70540  23546002.59040
                  26004291.77000
  -3165758.32400  23919061.58200                  -2416828.48940  23919066.56240
  13257363.14500  23144339.05100                  10322501.31640  23144342.20340
   1893823.97200  22745067.21500                   1475589.49140  22745070.78940
 96  9  4  1 48  0.0040000  0  6 14 15 18 22 25 29
    424654.56900  21971868.16000                    340375.96140  21971872.01640
  15012555.83500  23574570.85500                  11671927.27340  23574576.38740
    -17947.15200  26000759.76200
  -3186360.55200  23915141.14500                  -2432882.12540  23915147.03940
  13390216.94500  23169620.81600                  10426023.74540  23169624.16840
   1920028.19200  22750053.77000                   1496008.37240  22750057.03940
 96  9  4  1 48 30.0040000  0  6 14 15 18 22 25 29
    444769.08100  21975696.06600                    356049.61140  21975699.82840
  15163044.80000  23603208.12900                  11789191.36840  23603213.34440
    -36455.57200  25997237.40200
  -3206682.52500  23911273.55900                  -2448717.38740  23911279.45340
  13523376.46300  23194959.95700                  10529784.40140  23194963.41440
   1946417.58600  22755075.62100                   1516571.55040  22755078.84440
 96  9  4  1 49  0.0040000  0  6 14 15 18 22 25 29
    465259.38000  21979595.26200                    372016.08440  21979599.18740
  15313853.70800  23631906.30900                  11906704.75040  23631911.77040
    -54934.97700  25993719.60500
  -3226716.94600  23907461.53500                  -2464328.56340  23907466.31640
  13656840.51800  23220357.87900                  10633782.35540  23220360.99640
   1972979.87100  22760130.29300                   1537269.44640  22760133.53940
 96  9  4  1 49 30.0040000  0  6 14 15 18 22 25 29
    486145.45400  21983569.35500                    388290.94740  21983573.42240
  15464977.68300  23660664.36300                  12024463.65640  23660669.57840
    -73409.53300  25990203.93400
  -3246468.21200  23903703.01200                  -2479719.10540  23903707.39540
  13790631.51000  23245817.36300                  10738035.07140  23245820.50440
   1999703.78300  22765215.29300                   1558093.28340  22765218.68040
 96  9  4  1 50  0.0040000  0  6 14 15 18 22 25 29
    507423.04200  21987618.38700                    404870.88840  21987622.58240
  15616404.97400  23689479.76200                  12142458.90440  23689485.18740
    -91911.22300  25986684.23000                    -12495.60950  25986689.39840
  -3265949.76900  23899995.55900                  -2494899.49940  23900000.53940
  13924723.86800  23271334.12900                  10842522.62040  23271337.12940
   2026588.07000  22770330.98000                   1579042.09240  22770334.35540
 96  9  4  1 50 30.0040000  0  6 14 15 18 22 25 29
    529099.25000  21991743.18400                    421761.44740  21991747.34440
  15768137.58400  23718353.38700                  12260692.08240  23718358.81240
   -110438.34000  25983158.49600                    -26932.27840  25983161.69540
  -3285152.93300  23896340.94900                  -2509862.95640  23896346.14140
  14059098.25300  23296904.53500                  10947229.92940  23296907.38340
   2053616.86300  22775474.81600                   1600103.51140  22775478.35540
 96  9  4  1 51  0.0040000  0  6 14 15 18 22 25 29
    551209.54400  21995950.63700                    438990.25240  21995954.99640
  15920189.67700  23747288.21500                  12379174.19340  23747293.67640
   -128951.01900  25979635.08200                    -41357.75040  25979640.00440
  -3304056.60700  23892743.50400                  -2524593.03240  23892748.71940
  14193770.58700  23322531.62100                  11052169.39640  23322534.78540
   2080782.69400  22780644.30900                   1621271.70340  22780647.40240
 96  9  4  1 51 30.0040000  0  6 14 15 18 22 25 29
    573732.92400  22000236.74600                    456540.94140  22000240.98840
  16072542.68600  23776279.97300                  12497890.80040  23776285.41040
   -147449.58900  25976114.79300
  -3322683.78800  23889199.60500                  -2539107.68140  23889204.77340
  14328713.32200  23348210.84000                  11157319.57440  23348214.16840
   2108066.04700  22785836.34800                   1642531.47040  22785839.37140
 96  9  4  1 52  0.0040000  0  6 14 15 18 22 25 29
    596664.70200  22004600.44900                    474409.86140  22004604.63340
  16225210.01500  23805331.82400                  12616852.31440  23805337.85940
   -165903.31100  25972603.60500
  -3340998.25400  23885714.19900                  -2553378.63940  23885719.22740
  14463916.65800  23373938.97300                  11262672.81840  23373942.14840
   2135494.03100  22791055.73000                   1663903.93740  22791058.60240
 96  9  4  1 52 30.0050000  0  6 14 15 18 22 25 29
    620009.17700  22009042.88400                    492600.35940  22009046.89240
  16378184.28200  23834441.70400                  12736053.00340  23834447.27040
   -184299.41000  25969103.40700
  -3359000.54900  23882288.48500                  -2567406.35940  23882293.38440
  14599392.19200  23399719.08700                  11368238.16440  23399722.26340
   2163075.35600  22796304.03200                   1685395.89240  22796307.07940
 96  9  4  1 53  0.0050000  0  6 14 15 18 22 25 29
    643790.03900  22013568.20400                    511130.90140  22013572.31740
  16531458.58900  23863608.80600                  12855487.48540  23863614.31340
   -202631.47300  25965613.60300                     -7135.86550  25965619.22840
  -3376694.80100  23878921.02400                  -2581194.04340  23878926.12240
  14735160.05300  23425555.11800                  11474031.29940  23425558.32940
   2190839.83800  22801587.46200                   1707030.56640  22801590.47440
 96  9  4  1 53 30.0050000  0  6 14 15 18 22 25 29
    668000.04100  22018175.26700                    529995.83940  22018179.42740
  16685028.53000  23892832.21200                  12975152.33140  23892837.38040
   -220921.44900  25962134.18800                    -21387.69140  25962140.54040
  -3394085.82400  23875612.14200                  -2594745.44240  23875617.25140
  14871211.83800  23451444.33700                  11580045.67340  23451447.77040
   2218802.72100  22806908.54800                   1728819.84340  22806911.68840
 96  9  4  1 54  0.0050000  0  6 14 15 18 22 25 29
    692647.06200  22022865.55600                    549201.31340  22022869.50540
  16838888.38700  23922111.00100                  13095043.09740  23922116.45040
   -239168.40900  25958659.93800                    -35605.98640  25958666.31340
  -3411172.79600  23872360.37600                  -2608059.93340  23872365.77840
  15007547.09000  23477388.56300                  11686280.92640  23477391.78640
   2246966.58400  22812267.92300                   1750765.73040  22812271.25140
 96  9  4  1 54 30.0050000  0  6 14 15 18 22 25 29
    717748.51200  22027642.06300                    568760.88540  22027646.14240
  16993038.56700  23951445.15700                  13215160.07240  23951450.14940
   -257382.74600  25955195.35300                    -49798.90140  25955201.86840
  -3427967.16500  23869164.17300                  -2621146.40640  23869169.69240
  15144170.48100  23503387.49300                  11792740.70040  23503390.41140
   2275314.18800  22817662.25100                   1772854.78840  22817665.72040
 96  9  4  1 55  0.0050000  0  6 14 15 18 22 25 29
    743291.71600  22032502.72000                    588664.68140  22032506.83340
  17147475.88600  23980833.23500                  13335500.80440  23980838.63840
   -275578.08700  25951732.43100                    -63977.01440  25951737.77440
  -3444453.02000  23866027.27400                  -2633992.46140  23866032.50140
  15281054.78000  23529435.22800                  11899403.77740  23529438.76740
   2303816.47800  22823086.07900                   1795064.37940  22823089.39540
 96  9  4  1 55 30.0050000  0  6 14 15 18 22 25 29
    769263.93100  22037445.09500                    608902.77540  22037448.91540
  17302210.87200  24010278.25100                  13456073.48440  24010283.95840
   -293731.73600  25948278.75100                    -78122.62140  25948284.02440
  -3460595.53900  23862955.43800                  -2646571.01940  23862959.82140
  15418186.77300  23555530.56300                  12006259.87440  23555534.13840
   2332466.46900  22828537.92300                   1817389.06540  22828541.21640
 96  9  4  1 56  0.0050000  0  6 14 15 18 22 25 29
    795635.01500  22042463.51700                    629451.67640  22042467.47840
  17457220.19100  24039775.43800                  13576859.92240  24039781.06340
   -311859.09000  25944828.49300                    -92247.73140  25944833.93140
  -3476410.22300  23859946.04800                  -2658894.09740  23859950.34940
  15555546.25600  23581669.47000                  12113293.23640  23581672.45840
   2361236.50200  22834012.88400                   1839807.28540  22834016.22440
 96  9  4  1 56 30.0050000  0  6 14 15 18 22 25 29
    822404.10400  22047557.43800                    650310.71240  22047561.31740
  17612504.70400  24069325.55600                  13697860.78340  24069330.97040
   -329959.14900  25941384.83700                   -106351.58140  25941390.93140
  -3491878.66500  23857002.37600                  -2670947.39340  23857007.28640
  15693134.99400  23607851.54000                  12220505.23340  23607854.57540
   2390132.26900  22839511.64900                   1862323.47840  22839514.84940
 96  9  4  1 57  0.0050000  0  6 14 15 18 22 25 29
    849569.79900  22052726.72000                    671478.79240  22052730.75140
  17768059.70700  24098926.47800                  13819072.44340  24098931.85640
   -348012.22200  25937948.50900                   -120418.91440  25937954.84940
  -3506993.98000  23854125.98500                  -2682725.51240  23854130.16940
  15830959.09600  23634078.68800                  12327900.61440  23634081.95840
   2419168.70300  22845036.79000                   1884949.28340  22845039.91940
 96  9  4  1 57 30.0050000  0  6 14 15 18 22 25 29
    877149.20700  22057975.03200                    692969.24640  22057979.01740
  17923889.45700  24128579.93100                  13940498.16440  24128584.77040
   -366010.29100  25934524.22000                   -134443.27240  25934530.38440
  -3521764.13600  23851314.37600                  -2694234.67940  23851319.93140
  15969048.35300  23660356.32100                  12435502.63140  23660359.66140
   2448376.83800  22850595.24300                   1907708.87440  22850598.31340
 96  9  4  1 58  0.0050000  0  6 14 15 18 22 25 29
    905160.41800  22063305.33700                    714796.17040  22063309.50940
  18079981.93600  24158283.00900                  14062128.64440  24158288.36440
   -383966.67600  25931106.75900                   -148435.18140  25931112.25540
  -3536210.10500  23848567.25100                  -2705491.22740  23848571.21240
  16107409.42500  23686685.77400                  12543316.44740  23686688.29440
   2477759.26600  22856186.43800                   1930604.28240  22856189.29840
 96  9  4  1 58 30.0050000  0  6 14 15 18 22 25 29
    933609.74100  22068719.11800                    736964.48140  22068723.30240
  18236326.56700  24188035.22000                  14183955.59040  24188040.27040
   -401880.66100  25927697.63400                   -162394.02440  25927701.64240
  -3550337.18400  23845877.72000                  -2716499.30140  23845882.63040
  16246039.11200  23713066.04800                  12651339.57640  23713069.20040
   2507306.57400  22861808.87600                   1953628.16740  22861812.22840
 96  9  4  1 59  0.0050000  0  6 14 15 18 22 25 29
    962514.03500  22074219.35300                    759487.31840  22074223.36040
  18392929.74300  24217835.43800                  14305984.00340  24217841.18140
   -419741.34200  25924298.58700                   -176311.43240  25924303.22840
  -3564145.15000  23843250.10300                  -2727258.71440  23843255.14240
  16384936.13200  23739496.75900                  12759571.01740  23739500.35640
   2537028.48500  22867464.79000                   1976788.10640  22867468.16540
 96  9  4  1 59 30.0050000  0  6 14 15 18 22 25 29
    991867.29600  22079805.05600                    782359.99540  22079809.00540
  18549783.05000  24247683.73500                  14428207.30240  24247689.64240
   -437566.50600  25920906.12600                   -190201.10840  25920910.59140
  -3577640.59900  23840682.32100                  -2737774.59940  23840687.05640
  16524081.10100  23765974.88400                  12867995.66440  23765978.38840
   2566923.98000  22873153.96200                   2000083.30840  22873157.32540
 96  9  4  2  0  0.0050000  0  6 14 15 18 22 25 29
   1021667.15100  22085476.08700                    805580.67440  22085480.10640
  18706886.01600  24277579.38400                  14550625.14740  24277584.73940
   -455347.02500  25917523.43800                   -204056.05040  25917528.78240
  -3590804.53200  23838177.22000                  -2748032.16940  23838181.75540
  16663453.40200  23792497.72800                  12976597.45140  23792500.72840
   2596987.35400  22878874.56300                   2023509.32140  22878877.62240
 96  9  4  2  0 30.0050000  0  6 14 15 18 22 25 29
   1051903.73200  22091229.70400                    829141.66140  22091233.68840
  18864235.07400  24307522.07100                  14673234.76840  24307527.43840
   -473089.13900  25914147.47000                   -217881.05840  25914151.85340
  -3603621.59000  23835737.45400                  -2758019.43840  23835742.49340
  16803042.37600  23819059.67300                  13085368.07940  23819062.93140
   2627221.40000  22884628.15700                   2047068.31940  22884631.34540
 96  9  4  2  1  0.0050000  0  6 14 15 18 22 25 29
   1082557.54400  22097062.74300                    853027.75640  22097066.52840
  19021815.08700  24337508.57900                  14796024.34440  24337513.32540
   -490816.09200  25910773.92300                   -231694.20140  25910779.32540
  -3616107.02200  23833362.45400                  -2767748.31640  23833367.73940
  16942838.95900  23845662.47800                  13194300.47640  23845665.80640
   2657631.67500  22890414.95400                   2070764.64140  22890417.98940
 96  9  4  2  1 30.0050000  0  6 14 15 18 22 25 29
   1113647.56000  22102978.97000                    877253.75840  22102982.93140
  19179645.85600  24367542.64900                  14919009.31440  24367548.28640
   -508517.85600  25907405.97000                   -245487.77640  25907410.45840
  -3628227.92800  23831055.72800                  -2777193.13440  23831059.99340
  17082889.43200  23872312.94600                  13303430.71640  23872316.62640
   2688239.17200  22896239.29800                   2094614.63940  22896242.56740
 96  9  4  2  2  0.0050000  0  6 14 15 18 22 25 29
   1145184.10200  22108980.31300                    901827.69840  22108984.19240
  19337717.13100  24397622.69600                  15042181.68640  24397627.85340
   -526203.89900  25904039.25900                   -259269.05140  25904042.54040
  -3639980.92900  23828819.35300                  -2786351.27240  23828824.19240
  17223196.36500  23899012.67300                  13412760.79340  23899015.74340
   2719020.07800  22902096.61800                   2118599.76740  22902099.89940
 96  9  4  2  2 30.0050000  0  6 14 15 18 22 25 29
   1177184.97500  22115069.69600                    926763.45040  22115073.65740
  19496030.03500  24427748.51700                  15165542.35440  24427753.96640
   -543877.28700  25900677.25100                   -273040.48640  25900682.95840
  -3651372.37200  23826651.07100                  -2795227.69340  23826655.74740
  17363784.04900  23925765.43100                  13522309.63240  23925769.19240
   2749983.23200  22907988.70400                   2142726.90740  22907991.90340
 96  9  4  2  3  0.0050000  0  6 14 15 18 22 25 29
   1209643.35300  22121246.58700                    952055.69440  22121250.45440
  19654563.41900  24457916.87600                  15289074.80340  24457921.97440
   -561548.86200  25897314.05600                   -286810.53140  25897320.89940
  -3662434.88900  23824546.54000                  -2803847.79640  23824551.20440
  17504628.25300  23952566.64200                  13632058.35040  23952570.31040
   2781097.03100  22913909.69600                   2166971.43340  22913912.66140
 96  9  4  2  3 30.0050000  0  6 14 15 18 22 25 29
   1242610.34400  22127519.88400                    977744.26340  22127523.96240
  19813338.11900  24488130.57100                  15412795.29440  24488136.23140
   -579184.16000  25893957.85300                   -300552.24540  25893964.00540
  -3673131.35600  23822510.50100                  -2812182.66840  23822514.66140
  17645725.78100  23979416.75100                  13742004.48540  23979420.16140
   2812361.66900  22919859.06300                   2191333.49540  22919862.09940
 96  9  4  2  4  0.0050000  0  6 14 15 18 22 25 29
   1276072.25700  22133887.47800                   1003818.47940  22133891.43840
  19972331.62400  24518386.18100                  15536686.29740  24518391.86440
   -596782.90300  25890608.53200                   -314265.49940  25890614.59140
  -3683477.69100  23820541.61800                  -2820244.70740  23820546.03640
  17787034.36700  24006307.32100                  13852115.06440  24006310.98940
   2843763.36500  22925834.26700                   2215802.36140  22925837.47840
 96  9  4  2  4 30.0060000  0  6 14 15 18 22 25 29
   1310023.05700  22140348.25600                   1030273.64740  22140352.11140
  20131555.06600  24548685.45100                  15660756.46940  24548690.99440
   -614322.62500  25887271.00600                   -327932.78040  25887276.79540
  -3693455.04700  23818643.39600                  -2828019.22840  23818648.26040
  17928554.12600  24033237.31800                  13962390.20440  24033241.10340
   2875318.40900  22931838.91200                   2240390.71740  22931842.13540
 96  9  4  2  5  0.0060000  0  6 14 15 18 22 25 29
   1344442.17900  22146897.97500                   1057093.74740  22146901.92440
  20290987.16000  24579024.36500                  15784989.24140  24579029.28740
   -631800.01500  25883945.21700                   -341551.46940  25883949.41240
  -3703044.51600  23816818.33400                  -2835491.50140  23816823.19740
  18070247.97400  24060201.42000                  14072800.98840  24060204.91240
   2907000.74300  22937868.35700                   2265078.26340  22937871.51040
 96  9  4  2  5 30.0060000  0  6 14 15 18 22 25 29
   1379293.84200  22153529.85000                   1084250.88340  22153533.81140
  20450612.51900  24609400.10700                  15909372.59440  24609405.02940
   -649233.21400  25880627.31800                   -355135.71740  25880630.86940
  -3712239.18300  23815068.85000                  -2842656.14540  23815073.15040
  18212112.96700  24087197.24800                  14183345.12440  24087200.93940
   2938797.95600  22943919.12300                   2289855.32240  22943922.11140
 96  9  4  2  6  0.0060000  0  6 14 15 18 22 25 29
   1414559.48900  22160240.87300                   1111730.60840  22160244.77540
  20610436.25800  24639813.71700                  16033910.50140  24639819.36540
   -666625.15400  25877318.52900                   -368687.81040  25877323.41640
  -3721033.72000  23813394.93600                  -2849508.98340  23813399.42440
  18354180.07600  24114231.85000                  14294046.75740  24114235.78740
   2970729.08900  22949995.53700                   2314736.73840  22949998.46740
 96  9  4  2  6 30.0060000  0  6 14 15 18 22 25 29
   1450248.56500  22167032.17800                   1139540.27640  22167036.20940
  20770473.30300  24670266.97500                  16158614.66140  24670272.42440
   -683977.21100  25874017.13100                   -382208.82740  25874021.81840
  -3729414.83400  23811800.63900                  -2856039.69640  23811804.76440
  18496468.32900  24141307.36500                  14404920.72840  24141310.83440
   3002810.31600  22956099.83400                   2339735.11340  22956102.98640
 96  9  4  2  7  0.0060000  0  6 14 15 18 22 25 29
   1486351.72000  22173902.51400                   1167672.60340  22173906.53340
  20930704.37000  24700758.20900                  16283469.98240  24700763.84640
   -701318.02800  25870715.36500                   -395721.09140  25870721.20140
  -3737407.63100  23810278.48200                  -2862267.80240  23810283.25240
  18638968.69100  24168424.88100                  14515959.96740  24168428.45540
   3035040.54300  22962233.25600                   2364849.58840  22962236.44340
 96  9  4  2  7 30.0060000  0  6 14 15 18 22 25 29
   1522892.20800  22180855.78700                   1196145.71340  22180859.85340
  21091139.15300  24731288.03700                  16408484.05240  24731293.82640
   -718645.67200  25867417.99800                   -409223.11540  25867424.06840
  -3745009.83700  23808832.00600                  -2868191.56740  23808837.58440
  18781701.61300  24195586.42000                  14627180.41540  24195589.42040
   3067455.10700  22968401.38900                   2390107.71340  22968404.48240
 96  9  4  2  8  0.0060000  0  6 14 15 18 22 25 29
   1559889.73600  22187896.08400                   1224974.95740  22187900.13940
  21251781.29200  24761857.59200                  16533659.68740  24761863.43940
   -735960.64800  25864124.13900                   -422715.23140  25864128.11140
  -3752216.98100  23807460.77900                  -2873807.48340  23807465.74840
  18924653.33700  24222789.49800                  14738571.36640  24222792.53340
   3100065.87400  22974606.97500                   2415518.71340  22974610.13940
 96  9  4  2  8 30.0060000  0  6 14 15 18 22 25 29
   1597352.18500  22195024.81800                   1254166.47240  22195028.82640
  21412617.24100  24792463.52900                  16658986.36140  24792468.80340
   -753258.52300  25860831.73200                   -436194.03340  25860836.63140
  -3759032.14000  23806164.23200                  -2879117.96240  23806168.80340
  19067800.88400  24250029.33400                  14850114.90540  24250032.48640
   3132855.26200  22980847.01400                   2441068.90440  22980850.20140
 96  9  4  2  9  0.0060000  0  6 14 15 18 22 25 29
   1635322.40900  22202250.38100                   1283753.66040  22202254.47140
  21573660.50300  24823108.85000                  16784474.58540  24823114.48640
   -770505.30400  25857550.27100                   -449633.07940  25857557.10340
  -3765435.72100  23804944.86500                  -2884107.73240  23804949.11940
  19211167.81500  24277311.00600                  14961829.39340  24277314.42840
   3165830.39400  22987121.73200                   2466763.82740  22987124.74440
 96  9  4  2  9 30.0060000  0  6 14 15 18 22 25 29
   1673796.04300  22209571.77900                   1313733.11640  22209575.76440
  21734900.04700  24853792.38100                  16910115.74640  24853797.77140
   -787699.77400  25854278.19300                   -463031.28440  25854280.73640
  -3771439.85700  23803802.82600                  -2888786.23840  23803807.15040
  19354739.98200  24304632.13900                  15073703.80640  24304635.63140
   3198966.07200  22993427.17000                   2492583.84840  22993430.14640
 96  9  4  2 10  0.0060000  0  6 14 15 18 22 25 29
   1712777.38100  22216989.85000                   1344108.18440  22216993.74040
  21896333.64300  24884511.09200                  17035908.12340  24884516.65840
   -804822.43900  25851020.99000                   -476373.56940  25851023.88540
  -3777043.74300  23802736.54500                  -2893152.87940  23802740.99840
  19498522.57400  24331992.40400                  15185742.17640  24331995.77940
   3232258.33900  22999762.32600                   2518525.89040  22999765.59640
 96  9  4  2 10 30.0060000  0  6 14 15 18 22 25 29
   1752295.49200  22224509.72500                   1374901.52140  22224513.63940
  22057973.35900  24915270.33400                  17161861.10040  24915276.25240
   -821843.99400  25847779.89600                   -489637.04440  25847787.26040
  -3782242.66300  23801746.95900                  -2897203.95940  23801751.71740
  19642548.48800  24359400.35700                  15297970.16040  24359403.54540
   3265724.28100  23006130.70100                   2544603.26840  23006134.06440
 96  9  4  2 11  0.0060000  0  6 14 15 18 22 25 29
   1792330.21100  22232128.03700                   1406097.40840  22232131.70540
  22219802.59000  24946065.63900                  17287961.77340  24946071.72140
   -838777.26900  25844558.61500                   -502831.80140  25844563.76040
  -3787040.82200  23800834.16200                  -2900942.75440  23800838.22840
  19786809.05000  24386852.29500                  15410380.98440  24386855.11940
   3299370.54400  23012533.38100                   2570821.15740  23012536.69740
 96  9  4  2 11 30.0060000  0  6 14 15 18 22 25 29
   1832856.91700  22239840.09200                   1437676.65940  22239844.06440
  22381812.97500  24976895.63100                  17414203.56340  24976901.20940
   -855629.12300  25841351.44300                   -515963.06240  25841357.10340
  -3791419.66600  23800001.31100                  -2904354.80140  23800006.04540
  19931290.03100  24414345.20900                  15522963.56340  24414348.45540
   3333208.83900  23018972.59200                   2597188.67340  23018975.52140
 96  9  4  2 12  0.0060000  0  6 14 15 18 22 25 29
   1873869.99100  22247644.69300                   1469634.90140  22247648.71340
  22544001.27600  25007758.88900                  17540583.99940  25007764.10340
   -872417.84900  25838156.69300                   -529045.14240  25838160.16240
  -3795354.58400  23799251.92000                  -2907420.93840  23799256.49040
  20075993.56500  24441881.85000                  15635719.54940  24441885.30740
   3367242.96800  23025449.15400                   2623708.78440  23025451.95540
 96  9  4  2 12 30.0060000  0  6 14 15 18 22 25 29
   1915376.28800  22255543.06100                   1501977.47340  22255547.19740
  22706372.38800  25038656.78700                  17667106.91540  25038662.36540
   -889160.67500  25834970.15400                   -542091.42940  25834976.22540
  -3798816.02400  23798593.34200                  -2910118.14440  23798597.79540
  20220919.97000  24469460.66200                  15748649.20440  24469463.92040
   3401475.93100  23031963.76400                   2650383.82640  23031966.68240
 96  9  4  2 13  0.0060000  0  6 14 15 18 22 25 29
   1957353.34700  22263530.85000                   1534686.87340  22263534.79940
  22868911.37200  25069587.70100                  17793760.62940  25069593.31440
   -905882.60500  25831788.39600                   -555121.45240  25831792.56840
  -3801795.83300  23798026.03700                  -2912440.03240  23798030.57240
  20366041.49400  24497075.74000                  15861730.91540  24497079.39640
   3435891.15400  23038512.75600                   2677200.89140  23038515.47540
 96  9  4  2 13 30.0060000  0  6 14 15 18 22 25 29
   1999803.14100  22271608.99000                   1567764.64040  22271612.92840
  23031615.04600  25100548.44300                  17920542.66440  25100553.95140
   -922603.94600  25828606.13100                   -568151.04040  25828609.70540
  -3804313.11800  23797547.50600                  -2914401.51740  23797551.80740
  20511348.69400  24524727.36500                  15974957.29440  24524731.06840
   3470462.80000  23045091.47500                   2704139.84340  23045094.31140
 96  9  4  2 14  0.0060000  0  6 14 15 18 22 25 29
   2042745.20700  22279780.35700                   1601225.99040  22279784.34240
  23194484.80100  25131541.66200                  18047454.11940  25131547.40440
   -939317.85400  25825427.13900                   -581174.80940  25825429.84640
  -3806385.72800  23797152.19300                  -2916016.50540  23797156.14340
  20656843.89500  24552414.27100                  16088330.17540  24552417.18940
   3505184.45500  23051698.33400                   2731195.69440  23051701.68640
 96  9  4  2 14 30.0060000  0  6 14 15 18 22 25 29
   2086196.22400  22288048.86500                   1635083.93240  22288052.74440
  23357517.56100  25162565.67000                  18174492.56840  25162571.68240
   -955998.55500  25822251.28700                   -594172.72840  25822254.79140
  -3808039.59600  23796838.43600                  -2917305.19040  23796842.93640
  20802518.46000  24580134.92800                  16201842.82040  24580138.02140
   3540055.20700  23058333.92800                   2758367.71540  23058337.05740
 96  9  4  2 15  0.0060000  0  6 14 15 18 22 25 29
   2130142.36200  22296411.55300                   1669327.68240  22296415.42040
  23520698.84000  25193618.68600                  18301646.75940  25193624.33440
   -972638.37700  25819084.46700                   -607138.77940  25819090.59640
  -3809306.79900  23796596.54500                  -2918292.59240  23796601.33840
  20948356.52000  24607887.83400                  16315482.85040  24607890.85740
   3575068.11700  23064996.96700                   2785650.51140  23065000.27140
 96  9  4  2 15 30.0060000  0  6 14 15 18 22 25 29
   2174600.39000  22304871.62300                   1703970.30640  22304875.59640
  23684033.56600  25224700.26400                  18428920.50140  25224706.65040
   -989214.97800  25815929.86500                   -620055.58040  25815935.19740
  -3810182.15700  23796430.10700                  -2918974.65240  23796434.85340
  21094376.56900  24635672.88900                  16429264.70840  24635675.87740
   3610230.88800  23071688.07600                   2813050.08240  23071691.24040
 96  9  4  2 16  0.0060000  0  6 14 15 18 22 25 29
   2219565.01600  22313428.14600                   1739007.68040  22313432.15440
  23847508.11600  25255809.21700                  18556303.19840  25255814.36140
  -1005721.60900  25812789.59200                   -632917.85040  25812793.28340
  -3810654.35900  23796340.67000                  -2919342.56240  23796345.15840
  21240566.85400  24663492.93600                  16543179.22140  24663496.67440
   3645550.74300  23078409.52900                   2840572.05140  23078412.34240
 96  9  4  2 16 30.0060000  0  6 14 15 18 22 25 29
   2265039.36100  22322081.60700                   1774442.23440  22322085.41640
  24011131.73300  25286945.49000                  18683802.08040  25286951.15040
  -1022150.90200  25809663.30300                   -645719.83640  25809666.15040
  -3810694.19800  23796332.61500                  -2919373.57340  23796337.08040
  21386933.59200  24691345.13900                  16657231.21240  24691348.77140
   3681047.28500  23085164.45900                   2868231.69640  23085167.21340
 96  9  4  2 17  0.0070000  0  6 14 15 18 22 25 29
   2311008.95200  22330829.17500                   1810262.69840  22330833.12440
  24174905.26300  25318109.76100                  18811417.77940  25318114.62440
  -1038519.06700  25806548.21400                   -658474.20840  25806551.26140
  -3810286.47300  23796410.76900                  -2919055.82940  23796415.18640
  21533482.67600  24719232.72200                  16771425.30340  24719236.09740
   3716731.24200  23091954.69000                   2896037.37340  23091957.46840
 96  9  4  2 17 30.0070000  0  6 14 15 18 22 25 29
   2357476.04600  22339671.68300                   1846470.82740  22339675.55040
  24338808.31900  25349299.76100                  18939134.38540  25349305.03440
  -1054841.14400  25803442.41700                   -671192.68240  25803446.56540
  -3809429.81400  23796573.31500                  -2918388.27340  23796577.58140
  21680186.55200  24747149.95600                  16885740.00740  24747152.92140
   3752601.39400  23098780.10400                   2923988.14740  23098783.25740
 96  9  4  2 18  0.0070000  0  6 14 15 18 22 25 29
   2404429.87100  22348607.07300                   1883058.23040  22348610.88240
  24502826.41300  25380511.96400                  19066940.62840  25380516.83940
  -1071148.59300  25800338.51900                   -683899.71540  25800343.32340
  -3808145.08000  23796817.97200                  -2917387.14040  23796822.46040
  21827019.73500  24775090.51900                  17000155.48140  24775093.90540
   3788654.17100  23105640.83100                   2952081.22840  23105643.67940
 96  9  4  2 18 30.0070000  0  6 14 15 18 22 25 29
   2451876.35200  22357635.78400                   1920029.51140  22357639.60440
  24666958.21500  25411744.50300                  19194835.46840  25411750.58540
  -1087444.82800  25797237.70600                   -696598.02340  25797242.93340
  -3806431.87300  23797143.86200                  -2916052.14240  23797148.59740
  21973988.28100  24803058.80800                  17114676.42240  24803062.34740
   3824886.49700  23112535.83100                   2980314.21440  23112538.78440
 96  9  4  2 19  0.0070000  0  6 14 15 18 22 25 29
   2499837.40200  22366762.33100                   1957401.76140  22366766.36240
  24831207.67300  25443000.21400                  19322821.98340  25443006.56540
  -1103714.57700  25794142.30800                   -709275.69840  25794146.83140
  -3804273.66800  23797553.94000                  -2914370.38640  23797558.81540
  22121110.47000  24831054.57300                  17229317.08740  24831057.91340
   3861305.26200  23119466.23700                   3008692.48340  23119469.06140
 96  9  4  2 19 30.0070000  0  6 14 15 18 22 25 29
   2548339.75300  22375991.95600                   1995195.80640  22375995.85840
  24995587.06000  25474281.00300                  19450909.71440  25474287.57740
  -1119933.73800  25791055.22900                   -721913.97140  25791059.94040
  -3801639.59900  23798054.96400                  -2912317.83540  23798059.37040
  22268395.82900  24859082.90100                  17344084.89940  24859085.39740
   3897913.20100  23126432.68300                   3037218.15040  23126435.33140
 96  9  4  2 20  0.0070000  0  6 14 15 18 22 25 29
   2597356.48400  22385319.68300                   2033390.67240  22385323.55040
  25160074.32400  25505581.37800                  19579081.57640  25505586.46440
  -1136105.86700  25787977.39400                   -734515.56140  25787983.11240
  -3798535.95100  23798646.49500                  -2909899.37140  23798650.46840
  22415851.83200  24887141.87800                  17458985.68340  24887145.56940
   3934673.76900  23133427.83900                   3065862.75440  23133430.64040
 96  9  4  2 20 30.0070000  0  6 14 15 18 22 25 29
   2646889.67000  22394745.33100                   2071987.96440  22394749.39740
  25324685.99300  25536906.65900                  19707350.33740  25536913.15140
  -1152197.96600  25784915.18300                   -747054.81340  25784919.44840
  -3794934.44000  23799331.51900                  -2907092.96140  23799335.85440
  22563504.30000  24915239.30000                  17574039.55640  24915243.17940
   3971596.19100  23140453.97900                   3094633.47740  23140456.87440
 96  9  4  2 21  0.0070000  0  6 14 15 18 22 25 29
   2696935.02800  22404268.77600                   2110984.35340  22404272.69040
  25489416.98600  25568253.61200                  19835712.07640  25568258.18340
  -1168219.57800  25781866.30800                   -759539.14340  25781872.37840
  -3790843.94000  23800110.09700                  -2903905.51540  23800114.57340
  22711341.11400  24943372.28400                  17689237.06940  24943375.87040
   4008679.22400  23147510.47900                   3123529.35740  23147513.53840
 96  9  4  2 21 30.0070000  0  6 14 15 18 22 25 29
   2747474.51800  22413885.84700                   2150365.77840  22413889.79640
  25654255.97400  25599621.87000                  19964157.96340  25599627.98740
  -1184184.23600  25778828.14400                   -771979.08940  25778832.32740
  -3786289.98200  23800976.07300                  -2900356.94640  23800980.42140
  22859340.87400  24971536.08900                  17804561.55940  24971539.44040
   4045914.85500  23154595.87000                   3152544.14640  23154599.05840
 96  9  4  2 22  0.0070000  0  6 14 15 18 22 25 29
   2798503.11700  22423596.23700                   2190128.32840  22423600.24540
  25819206.11900  25631011.52600                  20092690.48140  25631016.28440
  -1200092.33500  25775801.45600                   -784374.98340  25775807.12840
  -3781276.09100  23801930.55000                  -2896449.99040  23801934.83940
  23007504.69000  24999730.44000                  17920013.88540  24999732.74940
   4083321.00900  23161714.21400                   3181691.81340  23161717.35440
 96  9  4  2 22 30.0070000  0  6 14 15 18 22 25 29
   2850021.23100  22433399.67500                   2230272.32140  22433403.57740
  25984262.57900  25662419.22900                  20221305.83340  25662424.99540
  -1215963.66000  25772781.23700                   -796742.21740  25772785.19840
  -3775805.36500  23802971.21400                  -2892187.04640  23802975.72640
  23155802.64600  25027949.72200                  18035570.74940  25027953.35440
   4120910.37000  23168867.30000                   3210982.23140  23168870.19440
 96  9  4  2 23  0.0070000  0  6 14 15 18 22 25 29
   2902036.89500  22443298.18300                   2270804.00940  22443301.95640
  26149417.87700  25693847.54200                  20349998.21840  25693854.40140
  -1231806.25600  25769766.62000                   -809087.04140  25769770.19440
  -3769874.42900  23804099.92500                  -2887565.51440  23804104.37840
  23304228.97100  25056194.92500                  18151227.61140  25056198.68640
   4158679.36300  23176054.66700                   3240412.61940  23176057.50340
 96  9  4  2 23 30.0070000  0  6 14 15 18 22 25 29
   2954548.18300  22453290.65100                   2311721.89740  22453294.42540
  26314668.37800  25725294.32300                  20478764.77140  25725300.44040
  -1247615.89400  25766758.54200                   -821406.21440  25766763.24140
  -3763468.33900  23805319.25300                  -2882573.72640  23805323.23740
  23452789.68300  25084465.15900                  18266989.23040  25084467.80840
   4196630.82000  23183276.55000                   3269985.19340  23183279.40940
 96  9  4  2 24  0.0070000  0  6 14 15 18 22 25 29
   3007563.82200  22463379.57300                   2353032.78140  22463383.60440
  26480013.23900  25756758.43300                  20607604.82740  25756764.09340
  -1263397.31800  25763753.82300                   -833703.39740  25763758.53440
  -3756562.95100  23806633.00300                  -2877192.87540  23806637.43340
  23601488.83900  25112762.01100                  18382858.69840  25112765.31540
   4234759.57000  23190532.11200                   3299695.91140  23190535.00740
 96  9  4  2 24 30.0070000  0  6 14 15 18 22 25 29
   3061086.87100  22473564.40100                   2394739.05440  22473568.37440
  26645439.23000  25788237.33100                  20736508.13240  25788243.15540
  -1279160.71500  25760754.47200                   -845986.53340  25760759.24140
  -3749163.89000  23808040.99500                  -2871427.34140  23808045.69440
  23750328.54500  25141083.97900                  18498837.69140  25141087.89440
   4273041.93500  23197816.81500                   3329526.34040  23197819.88640
 96  9  4  2 25  0.0070000  0  6 14 15 18 22 25 29
   3115126.50000  22483847.75300                   2436847.85640  22483851.67940
  26810945.05900  25819732.67500                  20865473.62640  25819738.15940
  -1294897.00700  25757760.22200                   -858248.54740  25757765.49540
  -3741260.51500  23809544.94000                  -2865268.83940  23809549.54640
  23899319.94400  25169436.91700                  18614934.89640  25169439.96440
   4311474.38000  23205130.07300                   3359473.70940  23205133.07340
 96  9  4  2 25 30.0070000  0  6 14 15 18 22 25 29
   3169688.78800  22494230.63600                   2479363.92240  22494234.59740
  26976530.21200  25851242.66700                  20994500.95140  25851248.98340
  -1310608.02700  25754770.62800                   -870490.89640  25754775.16340
  -3732846.61800  23811146.21400                  -2858712.52540  23811150.24540
  24048452.96100  25197816.05000                  18731142.45240  25197818.93340
   4350058.00200  23212472.62800                   3389538.87140  23212475.55840
 96  9  4  2 26  0.0070000  0  6 14 15 18 22 25 29
   3224770.13900  22504712.55000                   2522284.44840  22504716.35840
  27142193.23400  25882767.31500                  21123588.96040  25882773.60840
  -1326278.26600  25751789.80000                   -882701.46440  25751793.59740
  -3723912.53900  23812846.52600                  -2851750.88140  23812851.05040
  24197728.33500  25226222.07300                  18847460.92140  25226224.89740
   4388790.18800  23219842.84700                   3419719.80640  23219845.71840
 96  9  4  2 26 30.0070000  0  6 14 15 18 22 25 29
   3280383.04700  22515295.08900                   2565619.18140  22515298.89740
  27307940.88900  25914308.33100                  21252742.90340  25914314.07340
  -1341882.76600  25748819.58900                   -894860.77640  25748823.74940
  -3714447.13300  23814647.42500                  -2844375.20640  23814651.71440
  24347156.42700  25254657.33100                  18963898.38940  25254660.20240
   4427691.61300  23227245.86200                   3450032.61540  23227248.73340
 96  9  4  2 27  0.0070000  0  6 14 15 18 22 25 29
   3336522.77900  22525978.12000                   2609364.42440  22525982.02240
  27473763.41000  25945862.33100                  21381955.16740  25945867.58140
  -1357421.68500  25745862.58100                   -906969.02240  25745866.34340
  -3704459.08400  23816547.72900                  -2836592.27940  23816552.05440
  24496717.68900  25283117.22900                  19080439.64340  25283120.61640
   4466770.51000  23234682.52600                   3480483.71340  23234685.23340
 96  9  4  2 27 30.0070000  0  6 14 15 18 22 25 29
   3393179.48900  22536759.47200                   2653512.50640  22536763.39740
  27639648.42800  25977429.18300                  21511216.16240  25977434.63240
  -1372896.14600  25742918.45600                   -919027.03340  25742922.14740
  -3693975.56900  23818542.90100                  -2828423.27940  23818547.13240
  24646394.78900  25311600.19000                  19197071.15140  25311604.29240
   4506026.36100  23242152.68300                   3511072.69240  23242155.40140
 96  9  4  2 28  0.0070000  0  6 14 15 18 22 25 29
   3450386.59100  22547645.77600                   2698089.46240  22547649.73740
  27805616.23500  26009013.00300                  21640541.65740  26009018.78040
  -1388283.01200  25739989.83100                   -931016.79040  25739994.96440
  -3682993.70400  23820632.89400                  -2819865.95740  23820637.03040
  24796219.03900  25340111.10400                  19313817.30840  25340115.04240
   4545491.81900  23249662.38600                   3541825.00740  23249665.36240
 96  9  4  2 28 30.0070000  0  6 14 15 18 22 25 29
   3508154.23100  22558638.47900                   2743103.20340  22558642.42940
  27971650.16100  26040607.34700                  21769918.64640  26040613.74540
  -1403610.46200  25737073.05000                   -942960.25440  25737077.46840
  -3671550.58700  23822810.66700                  -2810949.21740  23822814.90940
  24946183.29700  25368648.37000                  19430672.58140  25368651.71040
   4585166.37800  23257212.12800                   3572740.26040  23257215.23340
 96  9  4  2 29  0.0070000  0  6 14 15 18 22 25 29
   3566470.70600  22569735.76100                   2788544.60740  22569739.61640
  28137742.56600  26072213.51900                  21899341.20540  26072220.47240
  -1418893.40900  25734164.34700                   -954869.03140  25734168.94040
  -3659663.78500  23825072.28400                  -2801686.74940  23825076.67940
  25096270.39400  25397208.92500                  19547623.56440  25397212.22940
   4625047.41900  23264801.27600                   3603816.40640  23264804.52240
 96  9  4  2 29 30.0080000  0  6 14 15 18 22 25 29
   3625350.58900  22580940.39100                   2834425.03340  22580944.16440
  28303913.53200  26103835.75000                  22028825.01440  26103841.72740
  -1434124.06900  25731266.48400                   -966737.05340  25731270.87940
  -3647301.98700  23827424.19500                  -2792054.15340  23827428.48440
  25246510.64000  25425799.43700                  19664693.88540  25425802.07440
   4665147.08900  23272431.77300                   3635062.91840  23272434.94940
 96  9  4  2 30  0.0080000  0  6 14 15 18 22 25 29
   3684778.36500  22592249.18000                   2880732.38640  22592253.03540
  28470138.41600  26135466.97700                  22158350.80140  26135474.45740
  -1449318.50200  25728374.89800                   -978576.87640  25728379.55140
  -3634451.27400  23829869.88300                  -2782040.58440  23829873.84440
  25396887.22400  25454414.14100                  19781870.44440  25454417.77340
   4705446.63300  23280100.60900                   3666465.16840  23280103.77340
 96  9  4  2 30 30.0080000  0  6 14 15 18 22 25 29
   3744730.55300  22603657.63300                   2927448.37240  22603661.45340
  28636407.03600  26167107.60900                  22287910.70440  26167114.77340
  -1464476.39000  25725491.13300                   -990388.17240  25725496.74640
  -3621093.00900  23832412.22700                  -2771631.52240  23832416.12940
  25547373.16900  25483051.08600                  19899132.22040  25483052.90240
   4745928.83200  23287804.39100                   3698009.74840  23287807.30940
 96  9  4  2 31  0.0080000  0  6 14 15 18 22 25 29
   3805199.55000  22615164.49200                   2974567.07040  22615168.45340
  28802729.08800  26198757.90600                  22417512.23040  26198763.30940
  -1479578.98700  25722616.84400                  -1002156.42440  25722621.13340
  -3607192.64100  23835057.14800                  -2760800.04240  23835061.18040
  25697971.24400  25511708.89800                  20016481.36040  25511712.16840
   4786593.54900  23295542.60200                   3729696.54840  23295545.67240
 96  9  4  2 31 30.0080000  0  6 14 15 18 22 25 29
   3866186.58200  22626769.80500                   3022089.43140  22626773.76640
  28969094.51300  26230415.47700                  22547147.48840  26230423.36740
  -1494625.01100  25719753.07800                  -1013880.57840  25719757.82440
  -3592741.33700  23837807.00000                  -2749539.26040  23837811.32440
  25848682.06000  25540388.23400                  20133918.36340  25540391.11740
   4827424.96900  23303312.29700                   3761513.25240  23303315.27340
 96  9  4  2 32  0.0080000  0  6 14 15 18 22 25 29
   3927690.61100  22638473.61700                   3070014.64240  22638477.54340
  29135498.41700  26262080.50000                  22676812.82740  26262087.15640
  -1509603.03200  25716902.64800                  -1025551.71540  25716907.81640
  -3577744.57800  23840660.99200                  -2737853.45240  23840665.24640
  25999494.91700  25569086.52300                  20251434.86840  25569089.71140
   4868416.28100  23311112.68000                   3793454.54340  23311115.70340
 96  9  4  2 32 30.0080000  0  6 14 15 18 22 25 29
   3989707.39700  22650274.99200                   3118339.41240  22650278.88340
  29301939.93000  26293754.46900                  22806507.39840  26293759.25040
  -1524513.72500  25714065.71900                  -1037170.40740  25714070.74640
  -3562211.06100  23843616.66400                  -2725749.38440  23843621.08240
  26150416.77100  25597806.43700                  20369036.29540  25597809.53140
   4909567.42000  23318943.76600                   3825520.37440  23318946.75440
 96  9  4  2 33  0.0080000  0  6 14 15 18 22 25 29
   4052232.66600  22662173.18700                   3167060.39940  22662177.12540
  29468410.29600  26325432.58600                  22936224.52740  26325438.70340
  -1539370.93200  25711238.60900                  -1048747.43640  25711243.46140
  -3546162.02800  23846670.75000                  -2713243.62040  23846674.87540
  26301454.98800  25626549.13300                  20486728.39240  25626552.41440
   4950876.05700  23326804.49200                   3857708.92840  23326807.51640
 96  9  4  2 33 30.0080000  0  6 14 15 18 22 25 29
   4115268.60200  22674168.68700                   3216179.31140  22674172.71940
  29634903.67600  26357115.04700                  23065959.55040  26357122.09440
  -1554172.92100  25708422.02300                  -1060281.43540  25708426.25440
  -3529603.69900  23849821.57000                  -2700341.00640  23849825.84840
  26452590.66200  25655308.26600                  20604496.45440  25655311.10240
   4992343.51300  23334695.56200                   3890021.23940  23334698.39840
 96  9  4  2 34  0.0080000  0  6 14 15 18 22 25 29
   4178831.80300  22686264.28900                   3265709.07640  22686268.33240
  29801432.98300  26388804.59400                  23195722.54940  26388811.43740
  -1568907.38900  25705618.47700                  -1071762.79240  25705623.18740
  -3512528.84200  23853070.79700                  -2687035.89040  23853075.20340
  26603829.08000  25684088.21900                  20722344.58040  25684090.64440
   5033993.95000  23342621.01600                   3922476.13440  23342623.91040
 96  9  4  2 34 30.0080000  0  6 14 15 18 22 25 29
   4242904.43600  22698456.72700                   3315635.80640  22698460.78140
  29967970.69800  26420495.57000                  23325492.17240  26420501.99240
  -1583606.86400  25702821.46900                  -1083216.89740  25702825.78140
  -3494966.95000  23856412.99200                  -2673351.28140  23856417.43440
  26755141.06900  25712881.23400                  20840250.00240  25712884.25840
   5075818.67900  23350580.13300                   3955066.84240  23350583.15640
 96  9  4  2 35  0.0080000  0  6 14 15 18 22 25 29
   4307512.10700  22710751.27300                   3365979.44840  22710755.35240
  30134533.41300  26452191.14100                  23455281.18340  26452196.70740
  -1598246.84700  25700035.35200                  -1094624.64640  25700040.80140
  -3476894.44300  23859852.00000                  -2659268.77540  23859856.11340
  26906532.60200  25741690.82000                  20958217.43240  25741693.46940
   5117844.07200  23358577.18700                   3987813.90540  23358579.96540
 96  9  4  2 35 30.0080000  0  6 14 15 18 22 25 29
   4372660.43300  22723148.57000                   3416744.37640  22723152.50840
  30301112.96500  26483891.10200                  23585083.35240  26483897.67640
  -1612835.71300  25697258.55500                  -1105992.55740  25697262.60940
  -3458300.55500  23863390.27300                  -2644780.00540  23863394.56240
  27057999.07100  25770514.03100                  21076243.24840  25770517.91040
   5160054.30600  23366609.53900                   4020705.00740  23366612.53940
 96  9  4  2 36  0.0080000  0  6 14 15 18 22 25 29
   4438358.21700  22735650.50800                   3467937.46040  22735654.31640
  30467708.73200  26515593.28100                  23714898.15640  26515598.37940
  -1627376.03400  25694491.55500                  -1117322.63640  25694496.12540
  -3439170.10400  23867030.60900                  -2629873.12540  23867034.81640
  27209568.64400  25799356.36700                  21194349.38340  25799359.93040
   5202454.40800  23374677.77300                   4053744.05840  23374680.83240
 96  9  4  2 36 30.0080000  0  7  4 14 15 18 22 25 29
     11951.85510  27339464.94500
   4504611.82300  22748258.25800                   3519563.64640  22748262.12540
  30634325.52700  26547298.48400                  23844729.36140  26547303.68740
  -1641860.80400  25691734.91400                  -1128609.42140  25691737.92640
  -3419477.24100  23870778.03900                  -2614528.02740  23870781.77740
  27361260.00300  25828221.53900                  21312550.44840  25828225.58240
   5245043.63400  23382782.55500                   4086930.47840  23382785.48440
 96  9  4  2 37  0.0080000  0  7  4 14 15 18 22 25 29
     33455.85400  27343556.03900
   4571431.83900  22760973.36700                   3571631.18940  22760977.39840
  30800970.76000  26579010.36700                  23974582.66140  26579015.88740
  -1656267.58900  25688993.39100                  -1139835.46240  25688997.51640
  -3399194.86800  23874637.96100                  -2598723.55040  23874642.06240
  27513090.00800  25857114.06200                  21430859.53540  25857117.62540
   5287806.95400  23390919.97700                   4120252.55340  23390923.07040
 96  9  4  2 37 30.0080000  0  7  4 14 15 18 22 25 29
     55466.87200  27347744.56200                        -1.26350  27347749.74240
   4638810.91400  22773795.25800                   3624134.36240  22773799.37140
  30967621.14700  26610723.95300                  24104440.02840  26610731.70340
  -1670615.35200  25686263.70300                  -1151015.49640  25686267.65240
  -3378341.06700  23878605.96100                  -2582473.81840  23878609.66440
  27665048.13500  25886031.61700                  21549268.44840  25886035.47340
   5330731.49600  23399088.40600                   4153700.25740  23399091.24240
 96  9  4  2 38  0.0080000  0  7  4 14 15 18 22 25 29
     77978.38700  27352028.42200                     17540.11240  27352032.81640
   4706748.72400  22786723.43700                   3677072.91140  22786727.58640
  31134271.82700  26642435.10200                  24234297.62340  26642443.53140
  -1684909.71100  25683543.60900                  -1162153.92740  25683548.08640
  -3356927.49600  23882680.83600                  -2565787.88540  23882684.66840
  27817122.77700  25914970.01600                  21667768.15840  25914973.76640
   5373837.05600  23407291.12500                   4187289.01540  23407294.09040
 96  9  4  2 38 30.0080000  0  7  4 14 15 18 22 25 29
    101005.63300  27356410.78900                     35483.44740  27356411.85540
   4775267.67400  22799762.14100                   3730464.29540  22799766.12540
  31300938.80600  26674151.04700                  24364167.89140  26674158.84440
  -1699126.37500  25680838.15600                  -1173231.79040  25680842.34040
  -3334955.64100  23886861.78100                  -2548666.93540  23886865.71940
  27969308.37800  25943930.37500                  21786354.35440  25943932.57840
   5417151.40500  23415533.61700                   4221040.46640  23415536.50040
 96  9  4  2 39  0.0080000  0  7  4 14 15 18 22 25 29
    124535.84800  27360888.33600                     53818.68640  27360892.43740
   4844360.38700  22812909.94500                   3784302.77140  22812913.93040
  31467610.34100  26705868.93700                  24494041.71840  26705873.30940
  -1713271.80400  25678146.31200                  -1184254.16840  25678151.19940
  -3312450.47800  23891144.52300                  -2531130.42040  23891148.81240
  28121593.03600  25972909.18000                  21905017.72540  25972912.88340
   5460689.16300  23423818.59400                   4254966.00040  23423821.43040
 96  9  4  2 39 30.0080000  0  7  4 14 15 18 22 25 29
    148544.85200  27365456.60900                     72527.07340  27365460.20740
   4914011.80600  22826164.36700                   3838576.60440  22826168.46940
  31634275.89200  26737583.71100                  24623910.94140  26737588.84440
  -1727366.67800  25675463.42200                  -1195237.15540  25675468.15640
  -3289420.01700  23895527.34400                  -2513184.58340  23895531.55140
  28273962.31100  26001903.16400                  22023747.01640  26001906.14140
   5504474.79400  23432150.64100                   4289084.68440  23432153.45340
 96  9  4  2 40  0.0080000  0  7  4 14 15 18 22 25 29
    173035.31700  27370117.52300                     91610.46440  27370121.34440
   4984207.42100  22839522.00000                   3893274.47940  22839525.93740
  31800938.96900  26769298.77300                  24753778.16040  26769303.59040
  -1741398.66600  25672793.28100                  -1206171.10640  25672798.20340
  -3265851.12600  23900011.87500                  -2494819.18940  23900015.85940
  28426409.12600  26030913.35900                  22142536.73140  26030916.61740
   5548497.29100  23440527.95300                   4323387.93640  23440530.87140
 96  9  4  2 40 30.0080000  0  7  4 14 15 18 22 25 29
    198005.60200  27374868.67200                    111067.92640  27374873.30140
   5054931.23100  22852980.31200                   3948383.93740  22852984.36740
  31967594.86500  26801013.21900                  24883639.85340  26801019.26640
  -1755353.23900  25670138.32000                  -1217044.75940  25670142.77340
  -3241738.05000  23904600.64800                  -2476029.75040  23904605.06640
  28578935.53200  26059938.74200                  22261388.46140  26059941.47340
   5592734.04500  23448945.83600                   4357858.14540  23448948.94140
 96  9  4  2 41  0.0080000  0  7  4 14 15 18 22 25 29
    223463.60300  27379713.57000                    130905.29240  27379722.90240
   5126182.43800  22866539.09400                   4003904.35340  22866542.97340
  32134244.35800  26832725.55500                  25013496.48140  26832732.66040
  -1769222.69200  25667498.69500                  -1227852.08340  25667503.25440
  -3217055.41700  23909297.43700                  -2456796.50140  23909301.55140
  28731556.19500  26088979.84400                  22380313.64940  26088984.48440
   5637162.09900  23457400.22700                   4392477.41340  23457403.05140
 96  9  4  2 41 30.0090000  0  7  4 14 15 18 22 25 29
    249420.18200  27384653.27800                    151131.24440  27384655.62240
   5197972.09600  22880200.31700                   4059844.34340  22880204.13840
  32300893.71500  26864437.95000                  25143353.05140  26864444.78240
  -1783002.02000  25664876.89500                  -1238589.17440  25664881.30240
  -3191796.63300  23914104.10600                  -2437114.30740  23914108.00940
  28884268.91100  26118041.13800                  22499310.54340  26118043.81040
   5681760.75700  23465887.09100                   4427229.62240  23465889.91540
 96  9  4  2 42  0.0090000  0  7  4 14 15 18 22 25 29
    275898.53500  27389690.41900                    171763.70240  27389697.66540
   5270310.17300  22893965.43500                   4116211.67040  22893969.34940
  32467534.07000  26896148.36400                  25273202.60740  26896153.45040
  -1796676.06400  25662275.06700                  -1249244.23240  25662278.92340
  -3165960.88500  23919020.47400                  -2416982.53240  23919024.57540
  29037078.39100  26147118.54400                  22618382.88340  26147122.29440
   5726514.16400  23474403.31700                   4462102.41040  23474406.01340
 96  9  4  2 42 30.0090000  0  7  4 14 15 18 22 25 29
    302898.78600  27394829.89500                    192802.81940  27394831.26740
   5343213.86800  22907838.85600                   4173019.74340  22907842.87640
  32634169.29600  26927858.27000                  25403048.12840  26927865.59940
  -1810248.13000  25659692.17700                  -1259819.83640  25659695.70440
  -3139546.52600  23924046.41100                  -2396399.89040  23924050.29040
  29190000.16600  26176219.83300                  22737542.67940  26176223.75940
   5771435.70300  23482951.45000                   4497106.21640  23482954.36840
 96  9  4  2 43  0.0090000  0  7  4 14 15 18 22 25 29
    330416.09100  27400065.23900                    214244.90240  27400065.22740
   5416683.11900  22921819.41100                   4230268.50540  22921823.41940
  32800786.64200  26959562.59900                  25532879.69840  26959569.34940
  -1823738.56900  25657124.67700                  -1270331.82440  25657128.50940
  -3112554.91400  23929183.05200                  -2375367.43940  23929187.00140
  29343019.53000  26205337.09100                  22856778.55240  26205341.72040
   5816542.83500  23491535.01300                   4532254.63140  23491538.07140
 96  9  4  2 43 30.0090000  0  7  4 14 15 18 22 25 29
    358434.69500  27405397.16900                    236077.55140  27405397.79040
   5490716.06200  22935907.48100                   4287956.51040  22935911.23140
  32967377.91600  26991263.81000                  25662690.97440  26991269.07140
  -1837161.68300  25654570.02000                  -1280791.35540  25654573.84140
  -3084991.40900  23934428.37200                  -2353889.36040  23934432.12240
  29496117.22100  26234471.41100                  22976075.44040  26234472.85240
   5861857.34200  23500158.14500                   4567564.64240  23500161.18140
 96  9  4  2 44  0.0090000  0  7  4 14 15 18 22 25 29
    386951.00100  27410822.77000                    258298.04040  27410825.94640
   5565319.39300  22950104.17700                   4346088.97440  22950108.20840
  33133950.58300  27022963.13000                  25792487.75940  27022970.37640
  -1850515.73300  25652029.29400                  -1291197.07240  25652033.68840
  -3056832.30900  23939786.54400                  -2331947.18040  23939790.51740
  29649292.83600  26263620.98100                  23095433.08140  26263624.32140
   5907394.88300  23508823.66900                   4603048.44740  23508826.55240
 96  9  4  2 44 30.0090000  0  7  4 14 15 18 22 25 29
    415965.82200  27416345.13000                    280907.19440  27416346.47740
   5640508.43800  22964411.98900                   4404677.83540  22964415.82140
  33300506.66500  27054657.21600                  25922271.65040  27054665.48140
  -1863806.13400  25649500.23100                  -1301553.20140  25649505.75140
  -3028072.16100  23945259.66100                  -2309536.64840  23945263.88040
  29802533.89000  26292780.95800                  23214841.66440  26292785.61040
   5953162.59800  23517533.03600                   4638711.60440  23517535.95440
 96  9  4  2 45  0.0090000  0  7  4 14 15 18 22 25 29
    445493.76500  27421964.23900                    303915.90840  27421965.82140
   5716301.01200  22978834.91900                   4463736.98240  22978838.81040
  33467052.81800  27086350.36400                  26052047.71340  27086357.03240
  -1877023.45600  25646985.10600                  -1311852.37840  25646989.63040
  -2998702.33200  23950848.50500                  -2286651.04440  23950852.70040
  29955836.26100  26321954.14500                  23334298.02240  26321957.42740
   5999158.42300  23526285.70000                   4674552.51240  23526288.58340
 96  9  4  2 45 30.0090000  0  7  4 14 15 18 22 25 29
    475518.01500  27427678.33300
   5792683.45500  22993369.77000                   4523255.76440  22993373.76740
  33633575.52100  27118039.06000                  26181805.61540  27118045.28240
  -1890182.68200  25644480.05200                  -1322106.28540  25644484.23540
  -2968739.42100  23956550.30200                  -2263303.29840  23956554.34540
  30109191.80000  26351136.76300                  23453795.83940  26351140.59540
   6045351.67400  23535075.99700                   4710547.26040  23535079.02040
 96  9  4  2 46  0.0090000  0  7  4 14 15 18 22 25 29
    506037.65500  27433485.13800
   5869630.78300  23008012.71600                   4583214.71740  23008016.75940
  33800062.28400  27149720.34100                  26311535.43140  27149725.83740
  -1903282.84400  25641987.48900                  -1332314.16440  25641991.57940
  -2938196.31600  23962362.00500                  -2239503.44840  23962366.01340
  30262609.55600  26380330.73100                  23573342.14140  26380334.69240
   6091720.56600  23543899.67700                   4746678.87340  23543902.56040
 96  9  4  2 46 30.0090000  0  7  4 14 15 18 22 25 29
    537050.79500  27439386.75500
   5947126.73800  23022759.70800                   4643601.17040  23022763.63440
  33966508.54100  27181393.95800                  26441233.65340  27181400.74340
  -1916300.85600  25639510.25500                  -1342458.03440  25639515.91540
  -2907083.12000  23968282.79400                  -2215259.37240  23968286.72040
  30416108.01100  26409539.91100                  23692951.31940  26409543.93140
   6138272.83900  23552758.31000                   4782953.38140  23552761.18140
 96  9  4  2 47  0.0090000  0  7  4 14 15 18 22 25 29
    568531.22800  27445377.98900
   6025132.46100  23037603.66900                   4704384.84540  23037607.61840
  34132902.77800  27213056.51300                  26570891.40940  27213060.82540
  -1929222.04000  25637050.93500                  -1352526.43240  25637054.93140
  -2875405.94600  23974310.84900                  -2190575.82840  23974315.05640
  30569682.98400  26438765.46600                  23812620.12940  26438768.19640
   6185011.74200  23561652.29400                   4819373.31140  23561655.09540
 96  9  4  2 47 30.0090000  0  7  4 14 15 18 22 25 29
    600486.30900  27451458.98900                       835.39350  27451462.11840
   6103645.94200  23052544.14500                   4765564.17940  23052548.06040
     94254.33310  27244713.63000                  26700514.58640  27244718.50540
  -1942031.95400  25634614.48100                  -1362508.14040  25634619.55640
  -2843160.11100  23980447.05200                  -2165449.19140  23980451.03640
  30723353.75900  26468006.66100                  23932363.55240  26468011.32540
   6231965.56200  23570587.72400                   4855960.71140  23570590.64240
 96  9  4  2 48  0.0090000  0  7  4 14 15 18 22 25 29
    632934.74300  27457633.62200                     26119.95740  27457636.42340
   6182688.09100  23067585.46600                   4827155.46040  23067589.48540
    260565.77100  27276361.60600                  26830107.72040  27276368.01740
  -1954701.57800  25632202.95000                  -1372380.55540  25632207.81340
  -2810334.46400  23986693.17700                  -2139870.73940  23986697.22040
  30877124.83900  26497269.20000                  24052185.19840  26497271.00540
   6279146.33000  23579565.54400                   4892724.95740  23579568.39240
 96  9  4  2 48 30.0090000  0  7  4 14 15 18 22 25 29
    665849.88900  27463896.64500                     51768.11240  27463905.33340
   6262256.45000  23082726.84900                   4889156.77440  23082730.86840
    426806.49400  27307995.81000                  26959645.84640  27308002.85640
  -1967269.33700  25629811.58300                  -1382173.57940  25629815.42740
  -2776952.21200  23993046.02800                  -2113858.57740  23993049.70840
  31030949.74800  26526541.53600                  24172048.77540  26526544.52440
   6326530.62200  23588582.65300                   4929647.78740  23588585.58340
 96  9  4  2 49  0.0090000  0  7  4 14 15 18 22 25 29
    699283.51500  27470258.65300                     77820.28240  27470265.05240
   6342401.41800  23097977.91100                   4951607.39340  23097981.82540
    592995.82500  27339621.27800                  27089143.98240  27339630.77440
  -1979741.40300  25627438.60600                  -1391892.02840  25627442.04040
  -2742988.82000  23999509.13000                  -2087393.57440  23999512.93840
  31184844.29100  26555827.46600                  24291966.56940  26555830.88840
   6374134.36700  23597641.02800                   4966741.62740  23597643.71240
 96  9  4  2 49 30.0090000  0  7  4 14 15 18 22 25 29
    733255.64300  27476724.18500                    104292.11340  27476726.00140
   6423139.92100  23113342.03600                   5014520.50440  23113345.93840
    759123.28600  27371234.02000                  27218593.81540  27371241.57140
  -1992155.43200  25625075.91900                  -1401565.26440  25625079.16540
  -2708456.60100  24006080.32500                  -2060485.33540  24006084.00540
  31338802.63500  26585124.13800                  24411934.12240  26585126.95040
   6421935.20900  23606737.63000                   5003989.03940  23606740.34940
 96  9  4  2 50  0.0090000  0  7  4 14 15 18 22 25 29
    767777.63700  27483292.67700                    131192.33240  27483297.23540
   6504485.31700  23128821.51300                   5077906.52440  23128825.43840
    925197.57200  27402835.66900                  27348002.12640  27402845.97440
  -2004507.92600  25622725.31000                  -1411190.53240  25622729.57540
  -2673321.17200  24012766.31000                  -2033107.04740  24012770.11840
  31492836.69000  26614435.29400                  24531960.64840  26614439.19640
   6469936.25900  23615871.78600                   5041392.46740  23615874.45840
 96  9  4  2 50 30.0090000  0  7  4 14 15 18 22 25 29
    802829.94000  27489963.36400                    158505.84440  27489967.02040
   6586415.24800  23144412.20800                   5141748.02140  23144416.14540
   1091199.56600  27434426.23900                  27477354.27040  27434433.21640
  -2016834.58900  25620379.42700                  -1420795.68340  25620383.51740
  -2637602.61800  24019563.41900                  -2005274.39240  24019567.15740
  31646935.95300  26643758.77000                  24652037.99740  26643762.66140
   6518133.30200  23625043.46600                   5078948.61140  23625046.07940
 96  9  4  2 51  0.0090000  0  7  4 14 15 18 22 25 29
    838404.42800  27496733.43500                    186226.22640  27496737.34940
   6668913.85300  23160111.21600                   5206032.63940  23160115.11840
   1257124.85400  27466001.31000                  27606646.72940  27466010.59540
  -2029133.43800  25618038.79400                  -1430379.16640  25618042.25140
  -2601305.08200  24026470.48900                  -1976990.57740  24026474.33340
  31801099.31800  26673093.98100                  24772165.27940  26673095.58740
   6566526.86700  23634252.16900                   5116657.88940  23634254.97040
 96  9  4  2 51 30.0090000  0  7  4 14 15 18 22 25 29
    874475.53400  27503597.59900                    214333.57740  27503603.51740
   6751965.88700  23175915.35600                   5270748.49940  23175919.45840
   1422970.13000  27497561.01300                  27735876.41840  27497568.68140
  -2041384.81500  25615707.22400                  -1439925.66540  25615711.11440
  -2564401.99500  24033492.66900                  -1948234.89740  24033496.71240
  31955315.00700  26702442.43500                  24892333.34940  26702445.90340
   6615126.14200  23643500.39500                   5154527.46240  23643503.32540
 96  9  4  2 52  0.0090000  0  7  4 14 15 18 22 25 29
    911041.24700  27510555.09900                    242826.40540  27510555.31040
   6835560.44900  23191823.00500                   5335887.11740  23191826.89540
   1588735.51300  27529104.02800                  27865044.20040  27529109.25540
  -2053567.26600  25613388.96600                  -1449418.45940  25613392.70440
  -2526877.39900  24040633.36400                  -1918994.92540  24040637.12640
  32109574.41000  26731796.85600                  25012535.49940  26731801.04040
   6663950.10100  23652791.39500                   5192572.11240  23652794.30240
 96  9  4  2 52 30.0090000  0  7  4 14 15 18 22 25 29
    948108.35300  27517608.66900                    271709.84240  27517612.20840
   6919682.29900  23207831.01300                   5401436.60140  23207834.90340
   1754411.09300  27560631.27000                  27994142.06440  27560637.81040
  -2065673.14300  25611085.91900                  -1458851.57040  25611089.64540
  -2488758.71300  24047887.34100                  -1889292.02840  24047891.23140
  32263854.41900  26761155.65300                  25132753.72640  26761158.03240
   6712999.23400  23662125.10600                   5230792.22540  23662127.86040
 96  9  4  2 53  0.0090000  0  7  4 14 15 18 22 25 29
    985683.35900  27524759.32500                    300989.06340  27524763.61440
   7004315.63600  23223936.25500                   5467384.65140  23223940.04040
   1919996.25800  27592139.57500                  28123169.20140  27592149.15340
  -2077683.67100  25608799.78600                  -1468210.39540  25608803.44240
  -2450025.48700  24055257.63800                  -1859110.27440  24055261.43540
  32418148.34900  26790516.45800                  25252982.75940  26790520.31340
   6762269.78000  23671500.99700                   5269184.86140  23671503.82140
 96  9  4  2 53 30.0090000  0  7  4 14 15 18 22 25 29
   1023783.26500  27532009.50500                    330677.29840  27532011.47440
   7089469.86200  23240140.45000                   5533738.58140  23240144.38840
   2085507.39200  27623637.71600                  28252138.77840  27623646.08740
  -2089579.58400  25606536.40300                  -1477479.89640  25606540.64540
  -2410662.88100  24062748.20800                  -1828438.08940  24062752.22740
  32572474.11100  26819883.69200                  25373236.61440  26819887.25540
   6811781.44300  23680922.66900                   5307765.38640  23680925.52840
 96  9  4  2 54  0.0100000  0  7  4 14 15 18 22 25 29
   1062401.00200  27539358.01000                    360768.98840  27539362.15840
   7175139.15500  23256442.59600                   5600493.86840  23256446.60340
   2250938.26600  27655118.25200                  28381045.80340  27655126.11940
  -2101370.17300  25604293.04900                  -1486667.32240  25604297.27940
  -2370712.42100  24070350.77500                  -1797307.83940  24070354.63140
  32726841.90800  26849257.68200                  25493523.23240  26849261.13940
   6861514.33700  23690386.50200                   5346518.29740  23690389.44340
 96  9  4  2 54 30.0100000  0  7  4 14 15 18 22 25 29
   1101496.46500  27546797.61900                    391232.95240  27546801.43940
   7261312.63900  23272840.98600                   5667642.03540  23272844.88940
                  27686572.10300
  -2113074.94300  25602065.63500                  -1495787.90440  25602069.53740
  -2330206.22100  24078058.97800                  -1765744.54840  24078062.81040
  32881232.40200  26878638.20500                  25613827.47940  26878641.62740
   6911429.91400  23699885.13500                   5385413.56340  23699888.04140
 96  9  4  2 55  0.0100000  0  7  4 14 15 18 22 25 29
   1141073.28200  27554328.86100                    422071.99640  27554335.99040
   7348036.26200  23289343.95500                   5735218.87640  23289347.88140
    159705.50300  27718017.38500
  -2124690.80800  25599854.42400                  -1504839.18740  25599858.17440
  -2289118.83100  24085877.60300                  -1733728.37640  24085881.62340
  33035674.82800  26908027.54100                  25734172.22440  26908031.95940
   6961540.07400  23709420.83800                   5424460.44240  23709423.68540
 96  9  4  2 55 30.0100000  0  7  4 14 15 18 22 25 29
   1181134.37300  27561951.65800                    453288.46840  27561952.47840
   7435344.19800  23305957.94700                   5803251.02740  23305962.08440
    324830.52300  27749439.29100
  -2136223.71100  25597660.24400                  -1513825.84940  25597663.43240
  -2247465.76900  24093803.36900                  -1701271.42640  24093807.14340
  33190173.22400  26937426.80700                  25854560.60040  26937431.95140
   7011842.34900  23718992.97800                   5463657.02040  23718995.67440
 96  9  4  2 56  0.0100000  0  7  4 14 15 18 22 25 29
   1221700.59800  27569671.71300                    484898.49040  27569677.27940
   7523258.23200  23322687.61100                   5871755.46240  23322691.71340
    489868.63400  27780843.38500                     85722.03950  27780854.21740
  -2147663.38100  25595483.24400                  -1522739.85740  25595486.36140
  -2205234.82800  24101839.91600                  -1668364.17940  24101843.57240
  33344734.72500  26966840.01000                  25974998.13940  26966842.43540
   7062341.73400  23728602.46300                   5503007.19840  23728605.28740
 96  9  4  2 56 30.0100000  0  7  4 14 18 19 22 25 29
   1262786.42200  27577489.72100                    516913.40340  27577491.25640
   7611788.89500  23339534.33000                   5940740.38340  23339538.25640
  -2159016.64900  25593322.87700                  -1531586.53040  25593327.42440
    -10223.24210  27563140.79900
  -2162400.93200  24109990.96300                  -1634987.10140  24109994.87740
  33499351.30500  26996262.09600                  26095478.61440  26996265.27140
   7113055.20200  23738253.13500                   5542524.19140  23738256.20540
 96  9  4  2 57  0.0100000  0  7  4 14 18 19 22 25 29
   1304395.82400  27585407.33800                    549336.29540  27585411.08840
   7700922.51400  23356496.22800                   6010195.14440  23356500.24840
  -2170300.66400  25591174.72100                  -1540379.24140  25591178.81040
    -38000.80600  27557854.84600
  -2118958.48700  24118257.73600                  -1601135.82740  24118261.34640
  33654011.28100  27025693.28300                  26215992.89340  27025696.79940
   7163991.45800  23747945.91600                   5582214.78840  23747949.05740
 96  9  4  2 57 30.0100000  0  7  4 14 18 19 22 25 29
   1346522.03500  27593423.72100                    582161.92140  27593430.49440
   7790627.67800  23373566.46300                   6080095.26840  23373570.48240
  -2181521.56900  25589039.65000                  -1549122.76540  25589043.24840
    -65629.78400  27552597.82200
  -2074908.21200  24126640.07200                  -1566810.91440  24126643.78740
  33808694.10500  27055127.94700                  26336524.95040  27055131.21740
   7215140.94900  23757679.24400                   5622071.53540  23757682.03340
 96  9  4  2 58  0.0100000  0  7  4 14 18 19 22 25 29
   1389170.70600  27601540.14300                    615394.63040  27601544.03340
   7880896.69400  23390743.92400                   6150434.75140  23390747.96740
  -2192666.09600  25586918.97800                  -1557806.76940  25586922.76440
    -93088.64900  27547371.95500                    -17106.93550  27547381.34640
  -2030211.61800  24135145.73600                  -1531982.39040  24135149.72140
  33963395.16000  27084565.90000                  26457071.26740  27084571.43240
   7266522.75000  23767457.22100                   5662109.30640  23767459.95140
 96  9  4  2 58 30.0100000  0  7  4 14 18 19 22 25 29
   1432323.90800  27609752.46300                    649020.50640  27609757.74840
   7971716.23600  23408026.24400                   6221203.21940  23408030.20540
  -2203734.32500  25584812.44700                  -1566431.32040  25584816.94740
   -120385.75800  27542178.65000                    -38377.30640  27542185.76840
  -1984868.92600  24143774.22100                  -1496650.39740  24143778.07640
  34118101.98500  27114007.61100                  26577621.95440  27114008.79540
   7318134.60500  23777278.33800                   5702326.33940  23777281.08040
 96  9  4  2 59  0.0100000  0  7  4 14 18 19 22 25 29
   1475987.65800  27618061.50200                    683044.16740  27618065.70940
   8063069.97500  23425410.46300                   6292387.94240  23425414.49440
  -2214720.35200  25582722.47800                  -1574991.83340  25582726.59240
   -147525.90600  27537013.03300                    -59525.39540  27537019.52540
  -1938888.56200  24152524.00200                  -1460821.53140  24152527.68240
  34272808.08600  27143446.31400                  26698172.18540  27143450.43940
   7369965.22400  23787141.72800                   5742713.83740  23787144.63540
 96  9  4  2 59 30.0100000  0  7  4 14 18 19 22 25 29
   1520194.33600  27626473.47800                    717490.89640  27626477.75640
   8154972.30900  23442898.84600                   6364000.14240  23442902.80740
  -2225583.02000  25580655.38500                  -1583456.22940  25580659.59240
   -174485.50700  27531882.64300                    -80532.76140  27531888.98240
  -1892246.64000  24161399.30700                  -1424477.15440  24161403.40840
  34427538.80500  27172889.69700                  26818741.58240  27172892.41640
   7422029.70800  23797049.16600                   5783283.56440  23797051.99040
 96  9  4  3  0  0.0100000  0  7  4 14 18 19 22 25 29
   1564945.30900  27634988.10300                    752361.70740  27634992.67440
   8247421.10700  23460491.36900                   6436038.15540  23460495.33040
  -2236317.93100  25578612.33800                  -1591821.07740  25578616.46340
   -201272.63100  27526785.58000                   -101405.69840  27526794.11540
  -1844961.83800  24170397.37700                  -1387631.84540  24170401.10340
  34582326.77900  27202345.30700                  26939355.58240  27202348.18940
   7474332.16200  23807001.93200                   5824038.72240  23807004.62740
 96  9  4  3  0 30.0100000  0  7  4 14 18 19 22 25 29
   1610232.74100  27643606.62700                    787650.67640  27643611.68940
   8340399.40400  23478184.36900                   6508488.76340  23478188.26040
  -2246938.75500  25576591.58000                  -1600097.02240  25576595.21340
   -227921.76600  27521713.34600                   -122171.13640  27521717.06040
  -1797083.37300  24179508.47100                  -1350323.93540  24179512.57240
  34737188.80700  27231814.99400                  27060027.29340  27231817.98240
   7526853.33000  23816996.13500                   5864964.30740  23816998.84240
 96  9  4  3  1  0.0100000  0  7  4 14 18 19 22 25 29
   1656058.43000  27652326.04900                    823358.94540  27652330.63140
   8433907.09800  23495978.27500                   6581351.89740  23495982.17840
  -2257450.17900  25574591.23600                  -1608287.72040  25574594.96340
   -254422.31600  27516670.40000                   -142820.62140  27516678.97140
  -1748610.00900  24188732.54900                  -1312552.46940  24188736.51040
  34892132.55300  27261300.30700                  27180762.65240  27261304.92440
   7579588.08300  23827031.46300                   5906056.32140  23827034.25240
 96  9  4  3  1 30.0100000  0  7  4 14 18 19 22 25 29
   1702389.94400  27661143.60300                    859461.45440  27661150.09640
   8527954.11500  23513874.91600                   6654635.28140  23513878.93540
  -2267853.24100  25572611.58000                  -1616394.01240  25572615.35340
   -280774.79800  27511656.33000                   -163355.01840  27511669.02540
  -1699548.66100  24198068.67400                  -1274322.83340  24198072.58840
  35047159.01500  27290800.09600                  27301562.53440  27290803.61140
   7632532.22100  23837106.18900                   5947311.49040  23837109.07240
 96  9  4  3  2  0.0100000  0  7  4 14 18 19 22 25 29
   1749212.48900  27670054.25200                    895946.52840  27670057.07640
   8622547.20000  23531875.39300                   6728344.17040  23531879.35340
  -2278164.92800  25570649.15800                  -1624429.09440  25570652.80340
   -307000.30800  27506665.68900                   -183790.37940  27506671.83040
  -1649914.85200  24207513.58000                  -1235647.12840  24207517.42440
  35202253.60700  27320312.91600                  27422415.42440  27320316.06840
   7685677.81800  23847219.53300                   5988723.64540  23847222.56840
 96  9  4  3  2 30.0100000  0  7  4 14 18 19 22 25 29
   1796535.50500  27679058.26800                    932821.56640  27679063.65840
   8717706.36000  23549983.55700                   6802494.15640  23549987.65840
  -2288374.34000  25568706.94700                  -1632384.45640  25568710.70940
   -333090.82200  27501699.93200                   -204120.57440  27501705.38140
  -1599686.26900  24217071.75200                  -1196507.95040  24217075.67840
  35357377.47700  27349832.83000                  27543291.14640  27349836.70940
   7739030.61100  23857372.16600                   6030297.24640  23857375.28340
 96  9  4  3  3  0.0100000  0  7  4 14 18 19 22 25 29
   1844346.07300  27688157.50200                    970076.50240  27688163.76040
   8813441.36000  23568201.41600                   6877092.84740  23568205.41240
  -2298482.83000  25566783.04900                  -1640261.18240  25566786.95140
   -359037.06500  27496763.74400                   -224338.40740  27496769.34640
  -1548849.55100  24226745.69700                  -1156894.90740  24226749.35340
  35512491.78400  27379350.11100                  27664159.45440  27379354.54140
   7792592.82700  23867564.70500                   6072034.03840  23867567.71740
 96  9  4  3  3 30.0100000  0  7  4 14 18 19 22 25 29
   1892646.56100  27697348.55700                   1007713.22340  27697353.54940
   8909755.15400  23586529.18200                   6952142.55240  23586533.11940
  -2308495.41400  25564877.38500                  -1648063.17340  25564881.33440
   -384844.89000  27491852.53300                   -244448.30540  27491858.36940
  -1497418.28500  24236532.67400                  -1116818.57440  24236536.35340
  35667580.75400  27408862.67400                  27785007.99940  27408865.11140
   7846382.17900  23877800.56400                   6113947.82440  23877803.51840
 96  9  4  3  4  0.0100000  0  7  4 14 18 19 22 25 29
   1941485.96600  27706641.91600                   1045769.94140  27706647.09640
   9006661.33900  23604969.89300                   7027653.85740  23604973.79540
  -2318392.48100  25562994.04100                  -1655775.15940  25562997.54540
   -410490.02500  27486971.33800                   -264431.49240  27486975.85040
  -1445368.71800  24246437.51000                  -1076260.45940  24246441.13140
  35822662.12300  27438374.00200                  27905850.63140  27438376.51040
   7900434.32300  23888086.33800                   6156066.37940  23888089.20940
 96  9  4  3  4 30.0100000  0  7  4 14 18 19 22 25 29
   1990848.26600  27716035.76000                   1084234.06040  27716040.91640
   9104143.00800  23623519.97100                   7103613.59140  23623524.01440
  -2328182.21100  25561131.70500                  -1663403.50340  25561135.22140
   -435971.09600  27482123.55700                   -284286.87040  27482129.45140
  -1392700.97100  24256459.88500                  -1035220.63940  24256463.60040
  35977718.19100  27467880.36100                  28026673.49940  27467885.06040
   7954745.53800  23898421.50200                   6198386.80640  23898424.27940
 96  9  4  3  5  0.0100000  0  7  4 14 18 19 22 25 29
   2040731.52500  27725528.00200                   1123104.08840  27725532.53740
   9202189.49600  23642177.76000                   7180013.43940  23642181.69740
  -2337868.92300  25559288.19700                  -1670951.57440  25559291.92440
   -461281.10700  27477305.50200                   -304008.89440  27477310.48240
  -1339405.80300  24266601.51000                   -993691.92340  24266605.23640
  36132766.91300  27497385.08000                  28147490.71840  27497386.79140
   8009327.67200  23908808.11900                   6240918.33340  23908810.88540
 96  9  4  3  5 30.0100000  0  7  4 14 18 19 22 25 29
   2091141.71700  27735121.42400                   1162384.72840  27735125.03340
   9300780.42000  23660939.02500                   7256837.52540  23660942.95140
  -2347460.98200  25557462.83800                  -1678425.90040  25557466.27140
   -486425.82900  27472519.72100                   -323602.10440  27472525.17040
  -1285481.48800  24276863.27500                   -951672.96340  24276866.81440
  36287820.59400  27526890.62700                  28268311.77540  27526895.52540
   8064166.26700  23919243.33800                   6283649.71440  23919246.06840
 96  9  4  3  6  0.0100000  0  7  4 14 18 19 22 25 29
   2142065.68100  27744811.54100                   1202065.75440  27744816.33440
   9399904.85800  23679801.65000                   7334077.33240  23679805.58840
  -2356959.76300  25555655.23600                  -1685827.52540  25555658.79940
   -511410.07000  27467766.46300                   -343070.23640  27467771.71340
  -1230916.21600  24287246.31400                   -909154.55440  24287250.17040
  36442885.60600  27556398.09600                  28389141.66140  27556403.19340
   8119232.69100  23929722.26800                   6326558.62140  23929725.18540
 96  9  4  3  6 30.0110000  0  7  4 14 18 19 22 25 29
   2193479.87100  27754594.21000                   1242128.72940  27754598.53440
   9499554.66500  23698764.46000                   7411726.52740  23698768.43340
  -2366376.25100  25553862.99100                  -1693165.03440  25553866.98740
   -536249.80300  27463040.89000                   -362425.81940  27463043.71440
  -1175704.66800  24297752.74100                   -866132.56040  24297757.06540
  36597961.17200  27585908.78000                  28509979.72540  27585911.30040
   8174514.32700  23940241.98300                   6369635.22540  23940244.92540
 96  9  4  3  7  0.0110000  0  7  4 14 18 19 22 25 29
   2245406.29300  27764476.74100                   1282590.79040  27764480.40940
   9599734.19800  23717827.76500                   7489788.48740  23717831.87840
  -2375694.52300  25552090.00700                  -1700426.01840  25552094.02640
   -560932.33900  27458344.36600                   -381658.99140  27458349.66340
  -1119843.63000  24308382.68600                   -822604.45940  24308386.48340
  36753068.05100  27615423.48300                  28630842.30140  27615430.99940
   8230021.62400  23950804.56100                   6412887.66340  23950807.45640
 96  9  4  3  7 30.0110000  0  7  4 14 18 19 22 25 29
   2297841.06000  27774456.67100                   1323449.07140  27774465.61640
   9700445.14000  23736992.61600                   7568264.53240  23736996.71840
  -2384914.92600  25550335.49900                  -1707610.72240  25550339.56540
   -585461.67000  27453675.87400                   -400772.69340  27453680.80840
  -1063348.93500  24319133.18600                   -778582.60740  24319137.00740
  36908219.69600  27644948.66300                  28751739.65140  27644952.83540
   8285739.56400  23961407.46800                   6456304.24340  23961410.36240
 96  9  4  3  8  0.0110000  0  7  4 14 18 19 22 25 29
   2350778.77100  27784529.10800                   1364699.22440  27784531.73340
   9801689.91900  23756258.90500                   7647156.56140  23756262.80840
  -2394029.98800  25548601.09300                  -1714713.34940  25548604.24540
   -609836.43700  27449038.28000                   -419765.96540  27449044.42140
  -1006227.58800  24330003.05400                   -734072.44640  24330006.79240
  37063409.54900  27674478.95200                  28872666.81940  27674482.55040
   8341667.35200  23972050.00700                   6499884.34740  23972052.90140
 96  9  4  3  8 30.0110000  0  4 18 22 25 29
  -2403024.34700  25546894.17900                  -1721721.93840  25546899.15940
   -948486.59400  24340991.39000                   -689079.45140  24340993.14740
  37218634.04700  27704017.56100                  28993620.90940  27704021.53440
                  23982736.14700
 96  9  4  3  9  0.0110000  0  5 14 18 22 25 29
                  23795105.69400
  -2411887.23300  25545201.84300                  -1728628.01340  25545205.28840
   -890152.68800  24352091.16300                   -643624.41140  24352095.97940
  37373888.49900  27733562.71800                  29114598.42640  27733568.97640
     54505.12500  23993466.99900
 96  9  4  3  9 30.0110000  0  7  4 14 18 19 22 25 29
     20042.37110  27815346.85100                     99477.76800  23814687.89000
        -2.96950  23814691.99140
  -2420619.62000  25543541.17100                  -1735432.44340  25543544.92140
    -12702.73510  27435317.82700
   -831216.36400  24363306.59300                   -597699.99640  24363310.37840
  37529151.67800  27763107.90500                  29235582.73540  27763111.05840
    111109.91900  24004238.46800                      7361.02650  24004241.25740
 96  9  4  3 10  0.0110000  0  6  4 14 18 22 25 29
      9201.40810  27825815.64700                    202936.45700  23834374.52200
     80614.28740  23834375.50740
  -2429223.85600  25541903.60800                  -1742137.06640  25541908.30840
   -771671.24000  24374637.49900                   -551301.04640  24374634.99140
  37684396.72900  27792650.67900                  29356552.99940  27792654.22940
    167934.41100  24015052.01500                     51639.92540  24015055.67140
 96  9  4  3 10 30.0110000  0  6  4 14 18 19 22 29
      9283.66210  27836374.97600                     59006.82310  23854169.78000
     -3090.61510
                  25540291.44400
    -13322.96710  27426325.80400                     34166.78110
                  24386087.76500
                                                     20950.38510  24025911.87400
 96  9  4  3 11  0.0110000  0  7  4 14 18 19 22 25 29
     65293.15000  27847033.71800                    163576.88600  23874068.67100
     35359.01250                                                  23874072.57340
    -11428.09400  25538704.47600                     -1291.72250  25538708.83540
    -36719.46000  27421873.29600                     94965.02600
                  24397657.25700
     17426.69050  24397661.01840                    119002.75110  27851729.31100
                                                     78256.49000  24036817.08500
 96  9  4  3 11 30.0110000  0  7  4 14 18 19 22 25 29
    121820.09600  27857790.06100                     20602.28350  27857796.22640
    268698.11400  23894072.92100                    117271.62940  23894076.94040
    -19632.66800  25537143.18600                     -7684.88040  25537146.64340
    -59954.42400  27417452.31900                     -3008.64550  27417458.56540
    156411.28700  24409349.83500
     65306.91840  24409353.69040                    274232.00400  27881268.65500
    135813.17500  24047769.70200                     23941.33950  24047772.43340
 96  9  4  3 12  0.0110000  0  7  4 14 18 19 22 25 29
    178848.89800  27868642.21800                     65040.40440  27868646.12040
    374342.24700  23914176.41300                    199591.73640  23914180.50340
    -27733.14300  25535601.51500                    -13996.92540  25535605.67540
    -83042.57600  27413058.93600                    -20999.28240  27413065.12440
    218477.59600  24421161.00700
    113670.25140  24421164.68640                    429438.54800  27910804.27200
    193597.00700  24058765.37400                     68967.71140  24058768.16340
 96  9  4  3 12 30.0110000  0  7  4 14 18 19 22 25 29
    236428.78100  27879599.63200                    109907.90240  27879600.81540
    480551.27900  23934387.29600                    282352.00640  23934391.31540
    -35695.51400  25534086.10800                    -20201.31240  25534090.29240
   -105936.30900  27408702.21000                    -38838.48340  27408708.98340
    281188.84100  24433094.17900
    162536.21040  24433098.04640                    584664.31300  27940342.49900
    251648.82900  24069812.03000                    114202.89840  24069814.85440
 96  9  4  3 13  0.0110000  0  7  4 14 18 19 22 25 29
    294571.10200  27890663.98300
    587321.06400  23954704.89700                    365549.24140  23954708.91740
    -43530.00500  25532595.86600                    -26306.08140  25532599.40540
   -128634.05200  27404383.08500                    -56524.94040  27404389.39040
    344537.57800  24445149.23300
    211898.87040  24445152.92540                    739904.01400  27969883.91300
    309956.30700  24080907.73300                    159637.30740  24080910.89740
 96  9  4  3 13 30.0110000  0  7  4 14 18 19 22 25 29
    353260.20400  27901831.23300
    694649.27100  23975128.74100                    449181.59440  23975132.89040
    -51247.06600  25531126.95200                    -32319.32940  25531131.07740
   -151134.51800  27400100.45200                    -74057.65740  27400106.60440
    408519.58400  24457324.32700
    261755.00140  24457327.98340                    895139.54100  27999422.32700
    368522.76100  24092052.92100                    205273.50940  24092055.86240
 96  9  4  3 14  0.0110000  0  7  4 14 18 19 22 25 29
    412485.01200  27913102.78000                     36951.44650  27913108.37040
    802541.60400  23995659.85800                    533253.52240  23995663.91340
    -58847.80700  25529680.90500                    -38241.96440  25529684.66740
   -173451.95300  27395854.25700                    -91447.78340  27395860.92540
    473124.84400  24469618.74100
    312096.73740  24469622.35140                   1050366.13800  28028960.75700
    427346.89100  24103246.48300                    251110.48140  24103249.31940
 96  9  4  3 14 30.0110000  0  7  4 14 18 19 22 25 29
    472245.49800  27924474.71800                     83518.11640  27924480.09740
    910993.20600  24016297.37400                    617761.24140  24016301.40540
    -66324.41000  25528258.08500                    -44067.86740  25528261.80040
   -195591.15600  27391640.90500                   -108699.02140  27391646.60140

                  24482034.47600                   1205606.05100  28058503.71000
    486443.33000  24114492.43600                    297159.66140  24114495.28440
 96  9  4  3 15  0.0110000  0  7  4 14 18 19 22 25 29
    532525.57000  27935945.31100                    130489.53140  27935950.33940
   1019983.56500  24037037.99900                    702688.78240  24037042.04240
    -73678.50500  25526858.88200                    -49798.31240  25526862.66740
   -217557.50700  27387461.03000                   -125815.58340  27387467.04240
     63690.19800  24494570.03800
    414271.02840  24494573.94040                   1360859.50200  28088046.24900
    545804.51400  24125788.39700                    343415.14540  24125791.21040
 96  9  4  3 15 30.0110000  0  6  4 14 18 19 22 29
    593296.86400  27947510.24100                    177843.85840  27947513.64040
   1129496.43400  24057877.31900                    788023.50640  24057881.32740
    -80915.85400  25525481.35800                    -55437.78140  25525484.42940
   -239352.59600  27383312.87400                   -142798.66240  27383318.39340
    130186.72300  24507224.33500                    466086.52940  24507228.03840
    605412.53900  24137131.19400                    389862.93340  24137134.14740
 96  9  4  3 16  0.0110000  0  6  4 14 18 19 22 29
    654560.59200  27959167.39000                    225581.74840  27959173.07340
   1239515.13700  24078813.20200                    873752.32640  24078817.36240
    -88036.82300  25524126.47600                    -60986.53640  25524130.56540
   -260977.11700  27379198.66300                   -159648.84440  27379205.80440
    197294.26300  24519994.35100                    518378.10740  24519997.96040
    665257.39100  24148519.46800                    436495.30940  24148522.30440
 96  9  4  3 16 30.0110000  0  6  4 14 18 19 22 29
    716315.64900  27970919.38200                    273702.53840  27970924.58540
   1350028.69000  24099843.19400                    959866.76940  24099847.23740
    -95038.20000  25522793.69400                    -66442.14340  25522797.46840
   -282413.77200  27375118.71800                   -176352.59740  27375125.10440
    265019.11000  24532881.87400                    571150.74240  24532885.78840
    725334.75800  24159951.88200                    483308.84040  24159954.81140
 96  9  4  3 17  0.0110000  0  6  4 14 18 19 22 29
    778566.37400  27982765.10100                    322209.64340  27982769.27240
   1461056.11500  24120971.16300                   1046381.63040  24120975.25340
   -101913.09300  25521485.31100                    -71799.17740  25521489.06140
   -303643.46900  27371079.24100                   -192895.11840  27371085.51140
    333362.19000  24545886.94400                    624405.12040  24545890.57740
    785639.06500  24171427.21800                    530299.20440  24171430.11240
 96  9  4  3 17 30.0110000  0  6  4 14 18 19 22 29
    841322.53300  27994707.96000                    371110.44940  27994714.26540
   1572617.38300  24142200.46800                   1133312.48540  24142204.72240
   -108640.38100  25520205.17100                    -77041.22640  25520208.80440
   -324659.41400  27367079.58500                   -209271.15440  27367085.69040
    402346.71900  24559014.23300                    678159.30140  24559017.99540
    846188.21600  24182949.54600                    577480.37140  24182952.35840
 96  9  4  3 18  0.0110000  0  6  4 14 18 19 22 29
     23243.37510  28006743.31900                    420393.13340  28006747.92540
   1684690.75200  24163527.38200                   1220642.37540  24163531.40140
   -115239.47900  25518949.60800                    -82183.38340  25518953.40540
                                                     -3461.14410  27363113.47600
    471946.67600  24572258.99100                    732393.00340  24572262.65940
    906962.19000  24194514.42100                    624836.65140  24194517.33940
 96  9  4  3 18 30.0110000  0  6  4 14 18 19 22 29
                                                     10652.46110  28018870.97600
   1797315.62200  24184959.12400                   1308402.16840  24184963.17940
   -121692.04300  25517721.54600                    -87211.12040  25517726.21040
                                                    -24133.21400  27359178.36600
    542174.35700  24585622.86600                    787116.07140  24585626.85140
    967986.84500  24206126.86600                    672388.53740  24206129.38640
 96  9  4  3 19  0.0120000  0  6  4 14 18 19 22 29
                                                     74871.09800  28031091.37900
   1910497.81700  24206497.05900                   1396596.03440  24206501.16040
   -127997.96300  25516521.61300                    -92124.85040  25516525.25840
                                                    -44648.54800  27355273.95700
    613033.37500  24599106.41000                    842330.84440  24599110.40640
   1029286.29400  24217791.90200                    720154.29940  24217794.53940
 96  9  4  3 19 30.0120000  0  6  4 14 18 19 22 29
    139566.25800  28043401.07400                     15161.68250  28043406.13740
   2024215.44600  24228136.80100                   1485207.15640  24228140.82040
   -134164.33600  25515348.13700                    -96929.79540  25515351.87540
    -65022.36000  27351397.85500                    -12161.96850  27351402.55540
    684502.04500  24612706.43400                    898020.71540  24612709.99640
   1090856.86900  24229508.13700                    768131.38040  24229511.01940
 96  9  4  3 20  0.0120000  0  6  4 14 18 19 22 29
    204749.17700  28055805.78500                     65953.56940  28055809.20740
   2138474.63400  24249879.76200                   1574240.31240  24249883.57040
   -140205.58000  25514198.76900                   -101637.28440  25514202.23840
                                                     -7394.35410  27347548.40200
    756569.58200  24626420.91000                    954177.24840  24626424.77740
   1152706.21900  24241277.47300                    816325.66640  24241280.47340
 96  9  4  3 20 30.0120000  0  6  4 14 18 19 22 29
    270442.63300  28068306.97300                    117143.28640  28068311.69540
   2253277.97600  24271726.22300                   1663697.43840  24271730.06640
   -146122.73000  25513072.34800                   -106248.00840  25513076.05140
                                                    -27440.24800  27343733.70700
    829263.12700  24640253.59800                   1010821.59040  24640257.58240
   1214850.42100  24253103.44100                    864749.72540  24253106.11340
 96  9  4  3 21  0.0120000  0  6  4 14 18 19 22 29
    336636.43800  28080904.30900                    168722.81440  28080907.89440
   2368588.12200  24293668.67600                   1753549.49040  24293672.84840
   -151939.05300  25511965.76900                   -110780.19940  25511969.69540
                                                                  27339952.53500
    902568.17000  24654203.32400                   1067942.40640  24654207.18040
   1277254.67100  24264978.80100                    913376.41240  24264981.41440
 96  9  4  3 21 30.0120000  0  6  4 14 18 19 22 29
    403325.89600  28093593.22300                    220688.65940  28093597.53540
   2484397.27800  24315706.74600                   1843790.35940  24315710.87140
   -157674.39100  25510874.04300                   -115249.25740  25510877.87540
    -19047.42400  27336202.42600                    -14842.92150  27336208.39140
    976476.62600  24668267.71500                   1125533.41940  24668271.10140
   1339882.91100  24276896.54300                    962177.63640  24276899.25040
 96  9  4  3 22  0.0120000  0  6  4 14 18 19 22 29
    470520.10800  28106380.70700                    273047.72040  28106383.68440
   2600711.21900  24337840.12900                   1934424.58840  24337844.45340
   -163319.12600  25509800.02700                   -119647.75840  25509803.64840
    -38568.07800  27332487.18400                    -30053.74940  27332492.76240
   1051008.22700  24682450.73800                   1183610.00040  24682454.53540
   1402741.31000  24288857.74600                   1011158.19740  24288860.48840
 96  9  4  3 22 30.0120000  0  6  4 14 18 19 22 29
    538216.52500  28119262.69100                    325798.16640  28119270.46540
   2717523.64500  24360069.01900                   2025447.24340  24360073.20340
   -168847.50000  25508748.27700                   -123955.56640  25508751.98040
    -57896.72100  27328810.14400                    -45115.00240  27328813.55540
   1126168.06900  24696752.91800                   1242176.12940  24696756.80940
   1465822.80500  24300861.80100                   1060312.60440  24300864.67240
 96  9  4  3 23  0.0120000  0  6  4 14 18 19 22 29
    606401.33100  28132238.02700                    378929.15140  28132242.43440
   2834833.93900  24382392.50400                   2116857.85140  24382396.61740
   -174242.92200  25507721.30900                   -128159.80440  25507724.87140
    -77052.04800  27325163.41800                    -60041.18440  27325169.59440
   1201934.69500  24711171.12100                   1301215.06640  24711174.74240
   1529116.34300  24312906.11300                   1109632.23840  24312908.79740
 96  9  4  3 23 30.0120000  0  6  4 14 18 19 22 29
                  28145307.30100
   2952666.99100  24404815.41800                   2208675.79840  24404819.44940
   -179478.38400  25506724.84000                   -132239.38740  25506728.81240
    -96030.99700  27321552.80900                    -74829.95340  27321558.89140
   1278331.09700  24725708.70700                   1360744.73640  24725712.10540
   1592653.56200  24324996.90200                   1159141.77340  24324999.72640
 96  9  4  3 24  0.0120000  0  6  4 14 18 19 22 29
     66865.38200  28158468.87100
   3071010.95600  24427335.16800                   2300891.87240  24427339.30540
   -184536.87600  25505762.22300                   -136181.06740  25505765.90240
   -114839.18200  27317972.94900                    -89485.60440  27317975.52740
   1355352.04200  24740364.94900                   1420761.07640  24740368.66440
   1656437.64900  24337134.47300                   1208843.64340  24337137.29740
 96  9  4  3 24 30.0120000  0  6  4 14 18 19 22 29
    136495.35200  28171718.87900
   3189845.88000  24449948.83200                   2393490.50540  24449952.93440
   -189427.04100  25504831.84000                   -139991.59240  25504835.12140
   -133502.92200  27314421.48000                   -104028.71540  27314426.91840
   1432971.40600  24755135.59000                   1481243.70140  24755139.22340
   1720456.70800  24349316.96500                   1258728.62940  24349319.84840
 96  9  4  3 25  0.0120000  0  6  4 14 18 19 22 29
     25740.32510  28185055.28500                     36438.14950  28185057.66440
   3309161.10800  24472653.59800                   2486463.38640  24472657.80540
   -194162.55600  25503930.83200                   -143681.61140  25503934.24240
   -152038.82900  27310893.73800                   -118472.29740  27310900.10140
   1511179.95700  24770018.03500                   1542185.44140  24770021.50440
   1784709.67800  24361543.93400                   1308795.87940  24361546.73440
 96  9  4  3 25 30.0120000  0  6  4 14 18 19 22 29
     96261.03700  28198474.48800                     91389.17640  28198478.71940
   3428943.11200  24495447.48800                   2579800.01640  24495451.80140
   -198762.22700  25503055.62100                   -147265.79840  25503058.83240
   -170444.64200  27307391.77700                   -132814.46140  27307398.22340
   1589966.69200  24785010.74600                   1603577.71640  24785014.43740
   1849191.68000  24373814.67600                   1359041.58840  24373817.50040
 96  9  4  3 26  0.0120000  0  6  4 14 18 19 22 29
    167249.31200  28211982.02700                    146704.78740  28211986.12940
   3549200.46400  24518331.97300                   2673507.01840  24518336.02740
   -203219.11900  25502207.50400                   -150738.65640  25502211.37140
   -188689.74900  27303920.55900                   -147031.34640  27303927.01640
   1669334.66200  24800113.92600                   1665422.90840  24800117.91040
   1913916.17200  24386131.19100                   1409476.26040  24386134.00440
 96  9  4  3 26 30.0120000  0  6  4 14 18 19 22 29
    238684.65400  28225577.11300                    202368.61840  28225579.90240
   3669911.98000  24541302.51200                   2767567.92640  24541306.63740
   -207571.30300  25501379.27700                   -154129.98040  25501382.76940
   -206794.50500  27300474.51900                   -161138.90540  27300480.76640
   1749254.49100  24815322.21500                   1727698.10940  24815326.02340
   1978870.90300  24398491.87900                   1460090.32940  24398494.65640
 96  9  4  3 27  0.0120000  0  6  4 14 18 19 22 29
    310562.39400  28239255.38700                    258377.26840  28239260.80140
   3791083.18900  24564360.71500                   2861987.04240  24564364.88740
   -211831.58100  25500568.42600                   -157449.67140  25500572.26940
   -224753.49000  27297056.22300                   -175132.92840  27297061.30940
   1829725.36000  24830635.55100                   1790402.69240  24830639.48840
   2044041.83200  24410893.19900                   1510872.87540  24410896.08240
 96  9  4  3 27 30.0120000  0  6  4 14 18 19 22 29
    382888.88400  28253018.25400                    314735.49540  28253023.38740
   3912718.49000  24587507.09000                   2956767.78140  24587511.25040
   -216023.86000  25499770.73800                   -160716.38740  25499774.64140
   -242566.01300  27293667.57400                   -189012.76540  27293673.70340
   1910749.46000  24846053.54300                   1853538.35940  24846057.03540
   2109419.95300  24423334.48800                   1561816.86440  24423337.41840
 96  9  4  3 28  0.0120000  0  6  4 14 18 19 22 29
    455663.04500  28266867.38700                    371442.58340  28266873.18740
   4034822.84000  24610742.63700                   3051914.01240  24610746.87940
   -220151.21100  25498985.11300                   -163932.50140  25498988.92240
   -260217.44500  27290308.55900                   -202767.06840  27290313.75040
   1992342.08800  24861580.12900                   1917117.04040  24861583.59840
   2175017.59600  24435817.26900                   1612931.91440  24435820.07040
 96  9  4  3 28 30.0120000  0  6  4 14 18 19 22 29
    528899.18100  28280802.22300                    428509.64540  28280808.08240
   4157412.11100  24634070.82400                   3147438.10940  24634074.96140
   -224190.93800  25498216.59000                   -167080.33940  25498220.12940
   -277689.83900  27286983.98000                   -216381.86740  27286990.43740
   2074525.98400  24877219.55900                   1981156.45140  24877222.81640
   2240846.15600  24448343.70700                   1664226.89740  24448346.64840
 96  9  4  3 29  0.0120000  0  6  4 14 18 19 22 29
    602613.02500  28294829.96500                    485949.04240  28294833.68040
   4280497.13800  24657492.94900                   3243348.50740  24657497.03940
   -228116.75400  25497469.45700                   -170139.40740  25497473.05540
   -294962.57200  27283696.79300                   -229841.09540  27283702.64140
   2157333.88200  24892977.19900                   2045682.09440  24892980.96140
   2306910.80800  24460915.62100                   1715705.85540  24460918.46940
 96  9  4  3 29 30.0120000  0  6  4 14 18 19 22 29
    676832.89400  28308952.99600                    543782.67340  28308958.03540
   4404081.13400  24681010.30900                   3339647.71040  24681014.58640
   -231893.55500  25496750.94900                   -173082.36840  25496754.68740
   -312028.31600  27280449.77700                   -243139.01240  27280455.46140
   2240794.44000  24908859.65200                   2110716.30140  24908863.30940
   2373239.96400  24473537.66000                   1767390.90840  24473540.68440
 96  9  4  3 30  0.0120000  0  6  4 14 18 19 22 29
    751536.04800  28323169.26900                    601992.86440  28323172.09440
   4528149.39600  24704619.55100                   3436324.26740  24704623.87540
   -235501.44900  25496064.34000                   -175893.70840  25496067.82040
   -328903.28700  27277238.00400                   -256288.28940  27277242.73840
   2324887.62600  24924861.51200                   2176243.47040  24924865.01640
   2439833.99100  24486210.12100                   1819282.36340  24486213.01640
 96  9  4  3 30 30.0120000  0  6  4 14 18 19 22 29
    826727.69100  28337477.45700                    660583.76240  28337483.76240
   4652713.81600  24728323.54300                   3533387.43240  24728327.91440
   -238911.72300  25495415.76900                   -178551.05140  25495419.27340
   -345608.80800  27274059.41800                   -269305.56040  27274064.21140
   2409618.55300  24940985.37900                   2242267.56940  24940988.90640
   2506697.93100  24498933.80900                   1871384.13340  24498936.62140
 96  9  4  3 31  0.0120000  0  6  4 14 18 19 22 29
    902392.85800  28351875.98800                    719543.64240  28351881.07440
   4777760.46300  24752118.98800                   3630826.37040  24752123.27740
   -242144.68100  25494800.04300                   -181070.23440  25494803.82840
   -362172.91100  27270906.22300                   -282212.59940  27270912.17640
   2494967.19600  24957226.80100                   2308773.01940  24957230.28140
   2573834.32700  24511709.33200                   1923698.20840  24511712.02740
 96  9  4  3 31 30.0130000  0  6  4 14 18 19 22 29
    978525.85100  28366362.40700                    778867.92740  28366366.97740
   4903293.56800  24776007.04800                   3728644.36040  24776011.37240
   -245208.76400  25494217.33700                   -183457.81640  25494221.22740
   -378595.40500  27267782.00100                   -295009.30240  27267787.77840
   2580903.90000  24973579.75100                   2375736.68740  24973583.45440
   2641259.77300  24524540.18100                   1976237.52540  24524542.91140
 96  9  4  3 32  0.0130000  0  6  4 14 18 19 22 29
   1055115.75700  28380938.04000                    838548.38540  28380943.19640
   5029311.47000  24799987.77400                   3826840.11940  24799992.07540
   -248111.31800  25493664.20400                   -185719.51740  25493668.43440
   -394864.74200  27264686.26700                   -307686.64640  27264691.38840
   2667403.92800  24990040.14900                   2443139.31340  24990043.92340
   2708976.52800  24537426.19600                   2029003.83840  24537429.05640
 96  9  4  3 32 30.0130000  0  6  4 14 18 19 22 29
   1132181.37700  28395604.06300                    898599.51740  28395606.92340
   5155819.37900  24824061.33700                   3925417.69740  24824065.60240
   -250860.39600  25493140.89900                   -187861.62340  25493145.00140
   -410959.57100  27261623.50900                   -320228.00340  27261628.51340
   2754479.04300  25006610.09500                   2510990.05240  25006613.75140
   2776987.18900  24550367.96200                   2081999.16940  24550370.86840
 96  9  4  3 33  0.0130000  0  6  4 14 18 19 22 29
   1209707.18400  28410355.70400                    959009.19240  28410360.23940
   5282795.37300  24848223.97700                   4024360.01840  24848228.16140
   -253486.74500  25492641.60200                   -189908.10440  25492645.34140
   -426869.58900  27258595.79000                   -332625.34940  27258601.43840
   2842102.77200  25023284.04000                   2579268.29940  25023287.88440
   2845273.18200  24563362.54000                   2135209.03840  24563365.23540
 96  9  4  3 33 30.0130000  0  6  4 14 18 19 22 29
   1287693.27000  28425196.80600                   1019777.57540  28425203.78240
   5410254.14600  24872478.45400                   4123678.52540  24872482.82540
   -255971.87900  25492168.52400                   -191844.54240  25492171.85240
   -442573.87700  27255606.31300                   -344862.40140  27255611.43440
   2930281.18200  25040064.11800                   2647978.76640  25040068.07940
   2913821.07900  24576407.04800                   2188622.99740  24576409.82540
 96  9  4  3 34  0.0130000  0  6  4 14 18 19 22 29
     13097.93310  28440119.14200
   5538176.19100  24896821.18100                   4223358.03240  24896825.42340
   -258335.07400  25491719.10200                   -193685.99040  25491722.67740
   -458092.02600  27252653.41500                   -356954.37640  27252659.81340
   3019015.75100  25056950.14200                   2717122.58240  25056953.63440
   2982599.56300  24589494.75900                   2242216.61840  24589497.65340
 96  9  4  3 34 30.0130000  0  6  4 14 18 19 22 29
     91957.76800  28455126.47700
   5666568.61500  24921253.89900                   4323404.05140  24921258.13040
   -260557.16200  25491296.63400                   -195417.44240  25491299.83340
   -473408.77200  27249739.11000                   -368889.48840  27249742.84940
   3108335.56200  25073946.79800                   2786722.44440  25073950.37240
   3051619.89600  24602628.89200                   2295998.69040  24602631.92740
 96  9  4  3 35  0.0130000  0  6  4 14 18 19 22 29
     29121.73810  28470215.53200
   5795434.10700  24945776.39200                   4423818.73340  24945780.11840
   -262624.88300  25490903.04000                   -197028.67740  25490906.26340
   -488527.87800  27246861.60200                   -380670.50640  27246870.68840
   3198250.34900  25091057.22700                   2856785.89740  25091061.22440
   3120892.12700  24615811.06300                   2349977.04740  24615814.08740
 96  9  4  3 35 30.0130000  0  6  4 14 18 19 22 29
    108839.20600  28485386.25100
   5924757.68900  24970385.49300                   4524590.31640  24970389.66540
   -264542.67600  25490537.29000                   -198522.96640  25490541.43840
   -503474.31800  27244017.79800                   -392317.09540  27244023.90340
   3288768.95200  25108282.20400                   2927319.90540  25108285.84940
   3190408.39500  24629039.62600                   2404145.59040  24629042.60240
 96  9  4  3 36  0.0130000  0  6  4 14 18 19 22 29
    188994.41700  28500639.64200
   6054520.72600  24995078.39900                   4625704.34840  24995082.55940
   -266300.15700  25490203.15700                   -199892.41440  25490207.05940
   -518244.52500  27241206.45400                   -403826.24240  27241214.23940
   3379913.82600  25125626.54800                   2998341.88540  25125630.15740
   3260194.19300  24642319.12600                   2458524.11940  24642322.05640
 96  9  4  3 36 30.0130000  0  6  4 14 18 19 22 29
    269597.12700  28515977.49300
   6184709.45400  25019852.74300                   4727150.08940  25019856.99740
   -267889.02600  25489900.66500                   -201130.44840  25489904.14540
   -532854.28900  27238426.34500                   -415210.40040  27238430.90340
   3471678.02700  25143088.56300                   3069846.46040  25143092.26740
   3330245.71000  24655649.89900                   2513109.71440  24655652.70040
 96  9  4  3 37  0.0130000  0  6  4 14 18 19 22 29
    350673.00900  28531405.27400
   6315341.18000  25044710.78200                   4828941.02240  25044715.04840
   -269302.57700  25489632.04000                   -202231.87340  25489635.68440
   -547301.24200  27235678.31300                   -426467.74940  27235683.61040
   3564059.87500  25160668.04800                   3141832.32640  25160671.78640
   3400567.46200  24669031.44600                   2567905.89040  24669034.28240
 96  9  4  3 37 30.0130000  0  6  4 14 18 19 22 29
    432235.43400  28546925.93800
   6446420.63200  25069654.57900                   4931080.83840  25069658.83340
   -270530.83500  25489398.13400                   -203188.93940  25489401.36840
   -561581.29500  27232960.22700                   -437594.98940  27232965.22040
   3657050.99600  25178363.73500                   3214292.94240  25178367.50940
   3471158.23500  24682464.32900                   2622911.67940  24682467.29440
 96  9  4  3 38  0.0130000  0  6  4 14 18 19 22 29
     13704.35410  28562541.72000
   6577947.29300  25094683.41500                   5033569.15340  25094687.68140
   -271583.76700  25489197.90700                   -204009.38840  25489199.61840
   -575691.21900  27230275.09500                   -448589.65540  27230279.44240
   3750613.78500  25196167.87600                   3287198.96940  25196172.00140
   3542011.14900  24695947.56300                   2678121.72640  24695950.63440
 96  9  4  3 38 30.0130000  0  6  4 14 18 19 22 29
     63317.53710  28578245.92300
   6709959.99200  25119804.77400                   5136436.15640  25119809.04040
   -272460.30600  25489030.86000                   -204692.36140  25489034.20040
   -589617.43600  27227625.12600                   -459441.20940  27227630.07140
   3844730.89600  25214077.88400                   3360537.03840  25214081.59940
   3613140.68100  24709482.89900                   2733547.34340  24709485.67740
 96  9  4  3 39  0.0130000  0  6  4 14 18 19 22 29
    146331.47500  28594042.24300
   6842460.84600  25145018.58700                   5239683.56240  25145023.12240
   -273176.35500  25488894.46200                   -205250.29140  25488897.86040
   -603343.04700  27225013.01700                   -470136.41640  27225017.99740
   3939392.64900  25232091.54800                   3434299.44140  25232095.08740
   3684550.95600  24723071.88400                   2789191.70740  24723074.82540
 96  9  4  3 39 30.0130000  0  6  4 14 18 19 22 29
                  28609926.69600
   6975438.97000  25170323.77400                   5343302.86240  25170328.05240
   -273722.93500  25488790.72700                   -205676.17940  25488794.06740
   -616845.28000  27222443.63400                   -480657.58640  27222450.11440
   4034605.06200  25250210.23500                   3508490.94240  25250213.62240
   3756259.59600  24736717.35200                   2845068.56640  24736720.14240
 96  9  4  3 40  0.0130000  0  6  4 14 18 19 22 29
     81119.66800  28625895.40700
   7108895.90900  25195719.47700                   5447295.26740  25195723.77840
   -274100.92700  25488718.52400                   -205970.69340  25488722.27440
   -630119.61600  27219917.43800                   -491001.20240  27219922.02040
   4130377.77800  25268434.80600                   3583119.02940  25268438.36840
   3828280.25300  24750422.71200                   2901188.55640  24750425.44240
 96  9  4  3 40 30.0130000  0  6  4 14 18 19 22 29
    165453.86600  28641942.29800
   7242816.44900  25221203.82900                   5551648.92140  25221208.07140
   -274295.47800  25488681.36000                   -206122.26340  25488684.77040
   -643177.79200  27217432.84500                   -501176.32140  27217438.63440
   4226732.42600  25286770.61000                   3658200.58140  25286773.95040
   3900612.88800  24764186.90700                   2957551.64240  24764189.73140
 96  9  4  3 41  0.0130000  0  6  4 14 18 19 22 29
    250193.75900  28658068.89900                     37452.25150  28658074.23140
   7377172.79800  25246771.15700                   5656342.16840  25246775.48140
   -274299.44300  25488680.58700                   -206125.33440  25488684.05640
   -656030.61300  27214986.17300                   -511191.44540  27214991.88040
   4323690.05500  25305221.03200                   3733751.98640  25305224.53640
   3973230.09600  24778005.44600                   3014136.47840  24778008.36440
 96  9  4  3 41 30.0130000  0  6  4 14 18 19 22 29
    335333.24300  28674270.22700                    103794.66540  28674276.09940
   7511975.41300  25272423.14900                   5761383.16040  25272427.27440
   -274102.88800  25488718.37600                   -205972.14140  25488721.80940
   -668688.94400  27212577.68100                   -521055.07740  27212581.89940
   4421255.55200  25323786.91500                   3809777.06340  25323790.55940
   4046131.93700  24791878.54000                   3070943.10840  24791881.47040
 96  9  4  3 42  0.0130000  0  6  4 14 18 19 22 29
    420899.25100  28690553.16500                    170469.45840  28690558.54440
   7647237.62300  25298162.56300                   5866782.27540  25298166.70040
   -273706.21600  25488793.61000                   -205663.03940  25488796.99740
   -681162.97500  27210204.54800                   -530775.02840  27210208.77840
   4519441.37500  25342471.07100                   3886285.50140  25342474.68140
   4119306.79200  24805803.24300                   3127962.46740  24805806.30240
 96  9  4  3 42 30.0130000  0  6  4 14 18 19 22 29
    506901.51600  28706918.52400                    237484.24040  28706923.32940
   7782938.02000  25323985.68100                   5972522.82440  25323990.07540
   -273125.89400  25488904.21200                   -205210.82940  25488907.82140
   -693457.94800  27207864.42300                   -540355.47440  27207870.57540
   4618233.29500  25361270.59500                   3963266.22240  25361274.32140
   4192727.87100  24819774.72700                   3185173.69640  24819777.64540
 96  9  4  3 43  0.0130000  0  6  4 14 18 19 22 29
    593362.40600  28723371.32900                    304856.31940  28723374.48140
   7919083.14000  25349893.22000                   6078609.93240  25349897.54440
   -272373.13300  25489047.54800                   -204624.25240  25489050.58340
   -705557.70100  27205561.82900                   -549783.82940  27205567.65340
   4717626.02800  25380184.40700                   4040715.11240  25380188.11040
   4266403.68100  24833794.75100                   3242583.41140  24833797.63440
 96  9  4  3 43 30.0130000  0  6  4 14 18 19 22 29
    680277.84900  28739910.68100                    372582.57040  28739914.66540
   8055659.57000  25375882.60200                   6185033.12440  25375886.90340
   -271465.74900  25489219.92300                   -203917.21240  25489223.16940
   -717475.98400  27203293.98500                   -559070.76240  27203298.00540
   4817587.22000  25399206.38400                   4118606.96540  25399209.63040
   4340345.13800  24847865.22000                   3300200.12840  24847868.07940
 96  9  4  3 44  0.0140000  0  6  4 14 18 19 22 29
    767667.46400  28756541.89600                    440678.38840  28756547.59240
   8192678.84900  25401956.64600                   6291801.38740  25401961.07640
   -270376.10900  25489427.30300                   -203068.13140  25489431.12340
   -729188.69700  27201065.14600                   -568197.49840  27201070.20940
   4918132.70500  25418339.64600                   4196954.09740  25418343.22140
   4414581.41200  24861992.12300                   3358046.57540  24861994.85340
 96  9  4  3 44 30.0140000  0  6  4 14 18 19 22 29
    855494.06200  28773253.34200                    509114.67940  28773256.04940
   8330128.22700  25428112.35000                   6398904.79440  25428116.42840
   -269102.54700  25489669.70900                   -202075.73640  25489673.26040
   -740706.44800  27198872.80300                   -577172.35640  27198877.31440
   5019229.06600  25437577.48200                   4275730.49540  25437580.81040
   4489113.13600  24876174.85700                   3416123.24840  24876177.79940
 96  9  4  3 45  0.0140000  0  6  4 14 18 19 22 29
    943758.70600  28790050.08400                    577892.28240  28790054.40840
   8468028.91700  25454354.16200                   6506359.86640  25454358.49840
   -267621.68700  25489951.23200                   -200921.82040  25489954.83040
   -752035.64900  27196716.81800                   -586000.24740  27196722.17440
   5120884.31700  25456922.26400                   4354942.38540  25456925.89640
   4563961.97500  24890418.14600                   3474447.01140  24890421.05340
 96  9  4  3 45 30.0140000  0  6  4 14 18 19 22 29
   1032438.75400  28806924.57600                    646993.60940  28806928.09240
   8606385.57600  25480682.48200                   6614170.24840  25480686.95940
   -265924.24600  25490274.42800                   -199599.13740  25490278.00240
   -763181.57900  27194596.66200                   -594685.36940  27194601.46740
   5223084.98200  25476369.88900                   4434579.28240  25476373.53340
   4639111.06800  24904718.61500                   3533004.75140  24904721.65040
 96  9  4  3 46  0.0140000  0  6  4 14 18 19 22 29
   1121542.11500  28823881.10000                    716424.73940  28823884.21740
   8745204.60900  25507099.04500                   6722340.90540  25507103.36940
   -264002.35700  25490640.44300                   -198101.56640  25490644.11140
   -774136.37600  27192511.68500                   -603221.55440  27192516.77140
   5325840.21800  25495923.49800                   4514648.30340  25495927.30740
   4714551.92400  24919074.22500                   3591789.82940  24919077.17840
 96  9  4  3 46 30.0140000  0  6  4 14 18 19 22 29
   1211063.71200  28840916.38900                    786181.80940  28840922.72840
   8884462.49400  25533599.10000                   6830853.53140  25533603.14240
   -261872.79500  25491045.23200                   -196442.17240  25491048.91240
   -784912.02000  27190460.89600                   -611618.10240  27190467.02540
   5429150.17800  25515582.80300                   4595149.58440  25515586.55340
   4790268.73400  24933482.75600                   3650789.94040  24933485.52140
 96  9  4  3 47  0.0140000  0  6  4 14 18 19 22 29
   1301035.82000  28858038.20900                    856289.88140  28858043.18940
   9024166.54000  25560183.43500                   6939713.82140  25560187.60740
   -259529.04300  25491491.46700                   -194615.86640  25491494.81840
   -795472.30500  27188451.38100                   -619846.87140  27188456.36140
   5533041.55100  25535352.51400                   4676103.91240  25535356.42840
   4866276.69600  24947946.63100                   3710016.92840  24947949.37340
 96  9  4  3 47 30.0140000  0  6  4 14 18 19 22 29
   1391457.81300  28875244.42800                    926748.54340  28875248.41240
   9164299.25200  25586850.10700                   7048908.11840  25586854.56040
   -256986.35800  25491975.31800                   -192634.56040  25491978.71740
   -805808.02400  27186484.52900                   -627900.65740  27186490.68240
   5637505.50400  25555231.67000                   4757504.39840  25555235.19740
   4942579.29600  24962466.31000                   3769473.50040  24962469.21740
 96  9  4  3 48  0.0140000  0  6  4 14 18 19 22 29
   1482334.66800  28892537.92000                    997561.68140  28892543.93240
   9304833.26600  25613592.84200                   7158415.12640  25613597.17840
   -254256.63800  25492494.64600                   -190507.50140  25492498.53740
   -815939.71300  27184556.95100                   -635795.44240  27184562.61140
   5742541.30000  25575219.44300                   4839350.48340  25575223.02940
   5019183.72600  24977044.02100                   3829165.26540  24977046.84640
 96  9  4  3 48 30.0140000  0  6  4 14 18 19 22 29
   1573659.67300  28909916.18500                   1068723.98840  28909921.88140
   9445776.92100  25640413.60700                   7268241.33440  25640417.87340
   -251329.42500  25493051.71700                   -188226.55340  25493055.44340
   -825855.89600  27182669.59200                   -643522.32840  27182674.43240
   5848145.42800  25595315.02100                   4921639.42040  25595318.19740
   5096093.69300  24991679.62300                   3889095.11440  24991682.45940
 96  9  4  3 49  0.0140000  0  6  4 14 18 19 22 29
   1665424.07000  28927378.51400                   1140228.65040  28927382.51040
   9587140.51300  25667314.13100                   7378394.76640  25667318.24440
   -248194.69300  25493648.27100                   -185783.90640  25493651.60040
   -835557.36800  27180824.08400                   -651081.87940  27180829.20540
   5954301.02200  25615515.95900                   5004358.07040  25615519.76740
   5173312.02300  25006373.60000                   3949265.24040  25006376.51740
 96  9  4  3 49 30.0140000  0  6  4 14 18 19 22 29
   1757584.24100  28944916.52100                   1212041.77440  28944922.80340
   9728904.29500  25694290.88900                   7488860.02840  25694295.22540
   -244862.57100  25494282.60000                   -183187.45540  25494285.92840
   -845087.23700  27179010.20100                   -658507.72140  27179015.24040
   6060988.16100  25635817.96700                   5087490.90740  25635821.65840
   5250822.10900  25021123.44300                   4009662.71740  25021126.20940
 96  9  4  3 50  0.0140000  0  6  4 14 18 19 22 29
   1850117.18000  28962523.75600                   1284145.28840  28962528.17440
   9871067.49600  25721343.20100                   7599636.53840  25721347.37340
   -241340.29100  25494952.74800                   -180442.80940  25494956.48640
   -854457.98500  27177226.27900                   -665809.56240  27177231.89240
   6168199.92300  25656219.49000                   5171032.55240  25656222.98240
   5328606.07100  25035925.12300                   4070273.60540  25035928.01740
 96  9  4  3 50 30.0140000  0  6  4 14 18 19 22 29
   1943019.76800  28980202.82600                   1356536.88240  28980208.70940
  10013652.12400  25748476.35000                   7710741.42340  25748480.82640
   -237614.21400  25495661.72500                   -177539.36440  25495665.21740
   -863638.96400  27175479.38100                   -672963.54640  27175484.73640
   6275945.59700  25676722.73200                   5254990.22540  25676726.38940
   5406675.92800  25050781.05300                   4131107.25840  25050783.97140
 96  9  4  3 51  0.0140000  0  6  4 14 18 19 22 29
   2036274.04100  28997949.93500                   1429202.54540  28997953.13540
  10156640.26200  25775686.44300                   7822160.73540  25775690.65040
   -233713.40100  25496403.98200                   -174499.75440  25496407.75640
   -872655.62300  27173763.94300                   -679989.48640  27173768.68940
   6384218.04200  25697326.27900                   5339358.37240  25697329.66640
   5485036.23400  25065692.74800                   4192167.23840  25065695.56040
 96  9  4  3 51 30.0140000  0  6  4 14 18 19 22 29
   2129905.89400  29015766.70900                   1502162.34640  29015771.61940
  10300035.82700  25802973.81000                   7933897.52440  25802977.99440
   -229624.25700  25497181.60000                   -171313.39040  25497185.39640
   -881489.41600  27172082.92800                   -686872.93140  27172087.07640
   6493045.06300  25718035.30300                   5424158.65240  25718038.98240
   5563692.14800  25080660.38100                   4253457.56440  25080663.32240
 96  9  4  3 52  0.0140000  0  6  4 14 18 19 22 29
   2223935.01300  29033659.42800                   1575431.78440  29033662.54540
  10443822.65900  25830335.00600                   8045939.20540  25830339.34240
   -225352.80300  25497995.02100                   -167984.96640  25497998.78340
   -890133.83100  27170437.88100                   -693608.80240  27170442.90840
   6602408.05200  25738846.34200                   5509376.57440  25738849.84640
   5642630.58600  25095681.88900                   4314968.03740  25095684.66640
 96  9  4  3 52 30.0140000  0  6  4 14 18 19 22 29
   2318388.38400  29051634.06000                   1649031.75040  29051637.02540
  10588011.98600  25857773.73200                   8158294.50940  25857778.37340
   -220873.25600  25498847.26400                   -164494.39440  25498850.87340
   -898574.06300  27168831.45900                   -700185.56840  27168836.81440
   6712326.57700  25759763.60000                   5595027.37640  25759767.33840
   5721876.27500  25110762.04500                   4376717.92540  25110764.84640
 96  9  4  3 53  0.0140000  0  6  4 14 18 19 22 29
   2413262.29900  29069686.86500                   1722959.45740  29069691.58840
  10732583.79000  25885284.61500                   8270947.85040  25885289.06840
   -216180.66900  25499740.31000                   -160837.81440  25499743.72140
   -906836.39100  27167259.38900                   -706623.69740  27167264.26440
   6822793.33700  25780784.50600                   5681105.37740  25780788.23240
   5801418.86200  25125898.44300                   4438699.16340  25125901.26740
 96  9  4  3 53 30.0140000  0  6  4 14 18 19 22 29
   2508555.28100  29087820.47500                   1797213.71640  29087823.62740
  10877526.22300  25912866.49000                   8383889.98540  25912870.66240
   -211262.53100  25500676.14600                   -157005.48740  25500679.60340
   -914920.75000  27165721.53700                   -712923.16140  27165726.36540
   6933791.93900  25801906.68500                   5767597.79440  25801910.31840
   5881238.40000  25141087.66200                   4500896.20340  25141090.33440
 96  9  4  3 54  0.0140000  0  6  4 14 18 19 22 29
   2604248.42000  29106031.86500                   1871779.74140  29106035.33440
  11022853.82100  25940521.24800                   8497132.25940  25940525.77140
   -206119.93200  25501654.86500                   -152998.25040  25501658.38140
   -922812.66000  27164219.31000                   -719072.65840  27164223.38940
   7045318.32400  25823129.49000                   5854501.48240  25823132.74840
   5961362.64300  25156334.61500                   4563330.68140  25156337.49840
 96  9  4  3 54 30.0140000  0  6  4 14 18 19 22 29
   2700307.35700  29124310.17800                   1946630.80340  29124312.28740
  11168554.96600  25968247.28700                   8610665.60840  25968251.89240
   -200745.86500  25502677.31000                   -148810.64940  25502680.82640
   -930524.09400  27162751.78700                   -725081.52940  27162756.55740
   7157373.01700  25844452.58400                   5941816.83240  25844456.42840
   6041782.45700  25171638.09200                   4625995.47040  25171640.97540
 96  9  4  3 55  0.0140000  0  6  4 14 18 19 22 29
   2796733.46300  29142660.34200                   2021768.01340  29142665.40440
  11314627.27900  25996043.99000                   8724488.17040  25996048.37340
   -195137.63300  25503744.75600                   -144440.57840  25503748.08440
   -938047.07900  27161320.13900                   -730943.56740  27161324.96740
   7269939.49500  25865873.40400                   6029530.98040  25865877.07240
   6122485.58800  25186995.47500                   4688881.02140  25186998.36940
 96  9  4  3 55 30.0140000  0  6  4 14 18 19 22 29
   2893539.84000  29161081.06800                   2097201.51040  29161085.47540
  11461076.33700  26023912.17000                   8838604.31640  26023916.44740
   -189310.48800  25504853.65400                   -139899.93240  25504857.18240
   -945348.94200  27159930.68500                   -736633.26840  27159935.81840
   7383023.76600  25887392.62300                   6117648.59540  25887396.08040
   6203483.17900  25202408.92800                   4751996.02740  25202411.78740
 96  9  4  3 56  0.0140000  0  6  4 14 18 19 22 29
   2990744.02800  29179578.20900                   2172945.02340  29179582.18240
  11607908.10800  26051853.52100                   8953018.67240  26051858.05740
   -183265.02500  25506003.95100                   -135189.16240  25506007.64240
   -952409.01400  27158586.72500                   -742134.60640  27158591.24840
   7496648.03000  25909014.61500                   6206186.99240  25909018.20140
   6284793.31500  25217881.40400                   4815354.57440  25217884.31040
 96  9  4  3 56 30.0150000  0  6  4 14 18 19 22 29
   3088352.15300  29198153.35400                   2249003.23540  29198160.14040
  11755102.67200  26079863.78400                   9067715.72440  26079868.22540
   -177010.41800  25507194.23700                   -130315.43140  25507197.55440
   -959255.07800  27157283.63600                   -747469.15840  27157288.17140
   7610805.24600  25930738.30800                   6295140.66640  25930741.84740
   6366387.12500  25233408.22200                   4878934.16440  25233411.02240
 96  9  4  3 57  0.0150000  0  6  4 14 18 19 22 29
   3186355.90000  29216802.88600                   2325369.72740  29216808.08940
  11902663.79400  26107943.71400                   9182698.40140  26107947.95640
   -170570.52400  25508419.31500                   -125297.31240  25508422.79640
   -965879.60200  27156023.19000                   -752631.08140  27156028.25340
   7725488.89900  25952561.63600                   6384504.56040  25952565.31540
   6448272.13900  25248990.47900                   4942740.66940  25248993.32740
 96  9  4  3 57 30.0150000  0  6  4 14 18 19 22 29
   3284743.97000  29235525.40100                   2402035.71840  29235529.16340
  12050608.31100  26136096.62800                   9297979.83240  26136101.08140
   -163936.31200  25509682.09700                   -120127.78440  25509685.55440
   -972284.42400  27154805.08900                   -757621.82840  27154809.20240
   7840723.83300  25974490.13600                   6474298.02340  25974493.82740
   6530466.51400  25264631.63600                   5006788.23340  25264634.67140
 96  9  4  3 58  0.0150000  0  6  4 14 18 19 22 29
   3383493.86800  29254316.62000                   2478983.63640  29254322.36240
  12198946.05300  26164324.44800                   9413567.67540  26164329.20640
   -157076.23000  25510987.34700                   -114782.24940  25510990.89740
   -978502.54200  27153621.69000                   -762467.06940  27153626.60040
   7956500.27100  25996521.60400                   6564513.42640  25996525.09740
   6612958.08700  25280329.05000                   5071067.38240  25280332.00340
 96  9  4  3 58 30.0150000  0  6  4 14 18 19 22 29
   3482584.22400  29273172.56500                   2556196.83040  29273177.38240
  12347678.78300  26192627.19800                   9529463.29940  26192631.64040
   -149970.95900  25512339.42500                   -109245.66440  25512342.89340
   -984556.97300  27152469.57300                   -767184.76440  27152475.15140
   8072794.44800  26018651.73700                   6655132.27140  26018655.39340
   6695748.75600  25296083.67500                   5135579.59140  25296086.64040
 96  9  4  3 59  0.0150000  0  6  4 14 18 19 22 29
   3582004.15500  29292091.69000                   2633666.85840  29292095.90940
  12496805.84700  26221005.15900                   9645666.19940  26221009.63640
   -142624.92400  25513737.35400                   -103521.47040  25513740.75340
   -990445.80100  27151348.82300                   -771773.41840  27151353.99140
   8189581.89400  26040875.60400                   6746135.47240  26040879.14340
   6778850.16800  25311897.29200                   5200333.93340  25311900.21040
 96  9  4  3 59 30.0150000  0  6  4 14 18 19 22 29
   3681763.43800  29311076.05800                   2711401.33740  29311081.28440
  12646296.43000  26249451.77600                   9762152.35840  26249456.35840
   -135034.50900  25515181.67500                    -97606.84640  25515185.22540
   -996185.21300  27150256.31500                   -776245.64340  27150260.90940
   8306836.80100  26063188.30000                   6837502.94440  26063192.01540
   6862258.92000  25327769.65900                   5265327.76640  25327772.65940
 96  9  4  4  0  0.0150000  0  6  4 14 18 19 22 29
   3781870.63100  29330125.15900                   2789406.91940  29330131.44040
  12796136.08300  26277965.61200                   9878910.51640  26277970.04240
   -127204.56700  25516671.58900                    -91505.57940  25516675.38640
  -1001777.93400  27149192.24500                   -780603.56440  27149197.30840
   8424545.94400  26085587.76100                   6929224.35940  26085591.49940
   6945970.73500  25343699.58900                   5330557.75440  25343702.37840
 96  9  4  4  0 30.0150000  0  6  4 14 18 19 22 29
   3882350.83700  29349245.96400                   2867703.16440  29349254.03040
  12946325.22300  26306546.43300                   9995941.00640  26306550.76840
   -119139.33400  25518206.45600                    -85220.96740  25518209.77240
  -1007179.20800  27148163.90100                   -784812.32040  27148169.04640
   8542713.11400  26108073.83100                   7021302.67540  26108077.52240
   7030006.39500  25359690.80800                   5396040.08740  25359693.49140
 96  9  4  4  1  0.0150000  0  7  3  4 14 18 19 22 29
     -5464.29810  29361372.11200
   3983206.48000  29368437.14300                   2946291.96040  29368438.93640
  13096850.75100  26335189.69000                  10113233.62340  26335193.81540
   -110857.22600  25519782.70600                    -78767.36640  25519786.04640
  -1012379.82000  27147174.83900                   -788864.68440  27147179.32740
   8661359.46800  26130651.82300                   7113754.37740  26130655.47940
   7114351.64200  25375741.21400                   5461763.65640  25375744.03840
 96  9  4  4  1 30.0150000  0  7  3  4 14 18 19 22 29
    -15010.27000  29359555.24500
   4084421.98900  29387699.00300                   3025161.06640  29387704.83940
  13247699.29700  26363895.44000                  10230777.93640  26363899.78840
   -102356.70100  25521400.36200                    -72143.57040  25521403.69040
  -1017396.98600  27146219.30000                   -792774.12240  27146224.04640
   8780502.99900  26153324.33900                   7206593.50140  26153327.76140
   7198971.25600  25391843.97900                   5527701.01940  25391846.75740
 96  9  4  4  2  0.0150000  0  7  3  4 14 18 19 22 29
    -24399.08900  29357769.08100                     -4374.13050  29357774.06140
   4186001.90000  29407028.47900                   3104314.31440  29407033.97540
  13398897.69500  26392667.44800                  10348594.86440  26392671.96040
    -93617.71300  25523063.04200                    -65333.95640  25523066.44040
  -1022211.11000  27145304.26800                   -796525.37040  27145308.86240
   8900174.41700  26176097.14300                   7299843.96040  26176100.70640
   7283869.68200  25407999.43300                   5593855.63740  25408002.22240
 96  9  4  4  2 30.0150000  0  7  3  4 14 18 19 22 29
    -33645.56200  29356008.91700                    -11579.13740  29356013.44040
   4287931.54200  29426425.99500                   3183739.91240  29426428.60840
  13550432.82700  26421503.72200                  10466674.17840  26421508.15140
    -84645.76800  25524770.26800                    -58342.80940  25524773.78440
  -1026826.18500  27144424.91700                   -800121.47240  27144429.95640
   9020368.54300  26198968.86200                   7393501.72440  26198972.34340
   7369056.88600  25424209.77600                   5660235.27640  25424212.64740
 96  9  4  4  3  0.0150000  0  7  3  4 14 18 19 22 29
    -42781.98000  29354270.40900                    -18698.41440  29354275.65940
   4390203.73500  29445886.63600                   3263432.46640  29445887.08140
  13702302.80700  26450403.76100                  10585014.41840  26450407.92140
    -75448.82100  25526520.29200                    -51176.34240  25526523.72540
  -1031265.86300  27143580.56500                   -803580.91840  27143585.48740
   9141093.94500  26221942.08900                   7487573.47140  26221945.56940
   7454525.72800  25440474.02600                   5726834.38540  25440477.00340
 96  9  4  4  3 30.0150000  0  6  3 14 18 19 22 29
    -51822.90800  29352550.55800                    -25743.33040  29352551.91740
  13854512.49700  26479368.55800                  10703619.36040  26479372.75340
    -66023.05700  25528314.15100                    -43831.58240  25528317.67940
  -1035521.64100  27142771.19000                   -806897.07040  27142776.11240
   9262321.96000  26245011.62000                   7582036.86740  26245014.84340
   7540285.09900  25456793.61200                   5793659.86340  25456796.48340
 96  9  4  4  4  0.0150000  0  6  3 14 18 19 22 29
    -60785.11800  29350844.48700                    -32726.86940  29350850.19440
  14007069.39200  26508399.26100                  10822494.85040  26508403.76140
    -56362.45500  25530152.30000                    -36303.83740  25530155.61640
  -1039562.99900  27142001.05000                   -810046.15340  27142005.64340
   9384033.92800  26268172.01800                   7676877.35540  26268175.74540
   7626360.70100  25473173.17500                   5860731.76140  25473175.85840
 96  9  4  4  4 30.0150000  0  6  3 14 18 19 22 29
    -69680.73300  29349151.83100                    -39658.45540  29349155.59340
  14159968.52200  26537494.55800                  10941637.02140  26537499.18640
    -46476.12100  25532033.83900                    -28600.18640  25532037.26140
  -1043391.47000  27141272.87800                   -813029.33640  27141277.28440
   9506210.48400  26291421.58900                   7772079.86240  26291424.98740
   7712737.80700  25489610.18300                   5928038.59540  25489612.97240
 96  9  4  4  5  0.0150000  0  6  3 14 18 19 22 29
    -78484.58200  29347475.98700                    -46518.56440  29347481.02640
  14313235.92700  26566660.31500                  11061066.16140  26566664.53440
    -36342.22800  25533962.07300                    -20703.63940  25533965.37840
  -1046992.65600  27140587.52600                   -815835.40440  27140592.07340
   9628867.94300  26314762.62800                   7867657.11340  26314766.10840
   7799413.00600  25506104.03400                   5995577.71240  25506106.77640
 96  9  4  4  5 30.0150000  0  6  3 14 18 19 22 29
    -87192.40600  29345818.97200                    -53303.89640  29345826.31140
  14466846.31300  26595891.51800                  11180762.55340  26595896.07740
    -25970.21400  25535935.67500                    -12621.53640  25535939.37840
  -1050377.27500  27139943.66700                   -818472.73440  27139947.27640
   9751983.28200  26338190.74500                   7963591.14140  26338194.29640
   7886378.16300  25522652.78400                   6063342.77040  25522655.64340
 96  9  4  4  6  0.0150000  0  6  3 14 18 19 22 29
    -95786.37100  29344184.16700                    -60000.52140  29344187.96440
  14620796.62400  26625187.22900                  11300723.81740  26625191.68340
    -15348.82500  25537956.88600                     -4345.12040  25537960.70640
  -1053547.40600  27139340.42500                   -820942.92740  27139345.30040
   9875576.69200  26361709.43300                   8059897.69340  26361713.07740
   7973650.21600  25539260.12800                   6131346.96540  25539263.03440
 96  9  4  4  6 30.0150000  0  6  3 14 18 19 22 29
   -104248.34100  29342573.66700                    -66594.24840  29342580.31140
  14775073.25500  26654545.76800                  11420939.36540  26654549.95240
     -4489.60300  25540023.64300                      4116.63340  25540027.20640
  -1056530.52300  27138772.77600                   -823267.40340  27138777.32340
   9999650.84700  26385319.90100                   8156578.86040  26385323.52240
   8061237.71600  25555927.55800                   6199596.96740  25555930.48740
 96  9  4  4  7  0.0150000  0  6  3 14 18 19 22 29
   -112556.51400  29340992.44000                    -73068.09740  29340996.39040
  14929669.96700  26683963.78400                  11541404.32540  26683968.14340
      6628.89100  25542139.01100                     12780.40540  25542142.51540
  -1059313.57800  27138243.64300                   -825435.96940  27138248.01540
  10124221.14500  26409025.09700                   8253646.62640  26409028.47240
   8149178.68400  25572662.43300                   6268122.38640  25572665.05840
 96  9  4  4  7 30.0150000  0  6  3 14 18 19 22 29
   -120714.81400  29339439.54200                    -79425.18340  29339443.72540
  15084559.85300  26713438.10400                  11662097.73440  26713442.80440
     18001.54700  25544303.72200                     21642.22540  25544307.01540
  -1061909.58700  27137749.42500                   -827458.79840  27137753.79640
  10249252.30800  26432817.62800                   8351073.49840  26432821.15540
   8237477.65700  25589465.08100                   6336926.78140  25589467.89340
 96  9  4  4  8  0.0150000  0  6  3 14 18 19 22 29
   -128721.70000  29337916.37000                    -85664.32540  29337920.70640
  15239748.03900  26742970.12800                  11783023.57740  26742974.51140
     29640.27500  25546518.08100                     30711.36640  25546521.55040
  -1064322.37800  27137289.83900                   -829338.86140  27137294.52640
  10374734.25300  26456696.25300                   8448851.64340  26456699.66340
   8326133.96000  25606335.79200                   6406009.60940  25606338.69840
 96  9  4  4  8 30.0150000  0  6  3 14 18 19 22 29
   -136569.49500  29336422.24500                    -91779.45940  29336426.52240
  15395249.64400  26772560.44000                  11904193.66040  26772564.87040
     41564.15900  25548787.58900                     40002.71640  25548790.61240
  -1066549.87300  27136865.83900                   -831074.51940  27136870.33940
  10500672.29900  26480661.31500                   8546985.18540  26480664.66740
   8415138.71400  25623272.65900                   6475363.95840  25623275.62440
 96  9  4  4  9  0.0160000  0  6  3 14 18 19 22 29
   -144274.57500  29334957.18700                    -97783.33040  29334961.78140
  15551074.29100  26802213.25800                  12025615.46440  26802217.59440
     53784.87200  25551112.43700                     49525.35840  25551115.91840
  -1068586.02500  27136478.00800                   -832661.09940  27136482.32040
  10627068.51000  26504713.84400                   8645475.73240  26504717.47640
   8504473.11900  25640272.47600                   6544975.18640  25640275.24240
 96  9  4  4  9 30.0160000  0  6  3 14 18 19 22 29
   -151849.48300  29333515.27300                   -103685.88440  29333516.30540
  15707218.25200  26831926.61700                  12147286.06840  26831930.87140
     66289.22100  25553492.47600                     59269.01740  25553495.89840
  -1070438.09600  27136125.91400                   -834104.22340  27136130.87140
  10753909.70600  26528850.69500                   8744313.02540  26528854.43340
   8594104.35000  25657328.51600                   6614817.69640  25657331.43340
 96  9  4  4 10  0.0160000  0  6  3 14 18 19 22 29
   -159289.32500  29332099.87500                   -109483.17240  29332103.41440
  15863693.10700  26861702.41400                  12269214.52240  26861707.34840
     79072.26400  25555924.71900                     69229.83240  25555928.21140
  -1072093.00500  27135811.05500                   -835393.71140  27135815.44940
  10881242.85000  26553081.46100                   8843533.65840  26553085.02340
   8684031.79000  25674441.41400                   6684891.02440  25674444.33240
 96  9  4  4 10 30.0160000  0  6  3 14 18 19 22 29
   -166592.14100  29330710.49200                   -115173.68240  29330713.76240
  16020487.84000  26891540.33600                  12391392.23240  26891544.85940
     92123.29000  25558408.28100                     79399.47440  25558411.65640
  -1073548.96000  27135533.85100                   -836528.16840  27135538.03540
  11009065.09600  26577404.91400                   8943135.41240  26577408.38340
   8774244.30100  25691608.27300                   6755186.48840  25691611.23840
 96  9  4  4 11  0.0160000  0  6  3 14 18 19 22 29
   -173748.67700  29329347.71900                   -120750.16440  29329353.16840
  16177589.93800  26921435.71100                  12513809.45740  26921440.43340
    105430.44900  25560940.71100                     89768.69340  25560943.96940
  -1074794.36800  27135296.73400                   -837498.57840  27135301.31640
  11137366.20000  26601820.19500                   9043110.29340  26601823.52340
   8864754.83100  25708831.78100                   6825714.16940  25708834.68740
 96  9  4  4 11 30.0160000  0  6  3 14 18 19 22 29
   -180751.42300  29328014.51600                   -126206.78240  29328018.21940
  16334982.88900  26951386.03100                  12636453.31940  26951390.68340
    118979.40200  25563519.05500                    100326.32440  25563522.16040
  -1075833.24800  27135098.96100                   -838308.03740  27135103.91840
  11266140.09800  26626325.35900                   9143453.58140  26626328.85140
   8955574.84300  25726114.24200                   6896483.00940  25726117.27740
 96  9  4  4 12  0.0160000  0  6  3 14 18 19 22 29
   -187594.01800  29326714.00000                   -131538.64940  29326717.35140
  16492661.74500  26981391.09400                  12759319.95940  26981395.35940
    132770.00900  25566143.17200                    111072.25640  25566146.52340
  -1076673.37200  27134939.32000                   -838962.64140  27134944.03140
  11395367.16100  26650916.55500                   9244150.00340  26650919.93040
   9046702.43400  25743455.18700                   6967491.52540  25743457.89440
 96  9  4  4 12 30.0160000  0  6  3 14 18 19 22 29
   -194294.63500  29325436.93700                   -136759.97540  29325439.97340
  16650627.20300  27011451.51600                  12882409.91740  27011455.74640
    146792.37900  25568811.52300                    121998.78640  25568814.57040
  -1077314.09400  27134817.28100                   -839461.85740  27134821.72340
  11525010.70800  26675586.93700                   9345170.94940  26675589.90240
   9138132.37200  25760853.96100                   7038735.62740  25760856.78540
 96  9  4  4 13  0.0160000  0  6  3 14 18 19 22 29
   -200824.73800  29324196.46900                   -141848.30540  29324202.85540
  16808905.05200  27041570.30500                  13005743.31040  27041574.69940
    161077.93000  25571529.63300                    133130.39840  25571533.05540
  -1077727.98000  27134738.55500                   -839784.33640  27134743.04340
  11655113.13900  26700344.39100                   9446549.46940  26700347.77740
   9229909.20400  25778318.58600                   7110250.04040  25778321.44540
 96  9  4  4 13 30.0160000  0  6  3 14 18 19 22 29
   -207235.07000  29322974.89800                   -146843.35140  29322976.63340
  16967450.77900  27071741.32000                  13129285.42840  27071745.65640
    175588.45100  25574291.02300                    144437.30040  25574294.25840
  -1077971.15300  27134691.89800                   -839973.79040  27134696.10540
  11785626.95900  26725180.49200                   9548248.55140  26725184.46540
   9321979.54200  25795838.68700                   7181993.16040  25795841.48840
 96  9  4  4 14  0.0160000  0  6  3 14 18 19 22 29
   -213495.73700  29321784.79700                   -151721.80940  29321788.89840
  17126294.12100  27101967.56200                  13253059.46540  27101971.31240
    190371.93400  25577104.28100                    155956.91540  25577107.84440
  -1078015.45500  27134683.54700                   -840008.26540  27134688.32840
  11916578.28000  26750099.32000                   9650288.54340  26750102.90640
   9414369.13300  25813420.20300                   7253985.04440  25813422.81640
 96  9  4  4 14 30.0160000  0  6  3 14 18 19 22 29
   -219602.33200  29320621.89100                   -156480.14640  29320626.10940
  17285410.42500  27132246.10900                  13377046.18740  27132250.51640
    205437.61300  25579971.14100                    167696.41240  25579974.62140
  -1077870.12300  27134711.50800                   -839894.97840  27134716.04340
  12047979.71200  26775103.89800                   9752679.29040  26775107.64840
   9507088.38200  25831063.75000                   7326233.81240  25831066.44540
 96  9  4  4 15  0.0160000  0  6  3 14 18 19 22 29
   -225532.87600  29319494.13300                   -161101.31740  29319498.52740
  17444788.18200  27162574.72600                  13501236.63740  27162579.47340
    220807.82500  25582896.03100                    179673.21140  25582899.47640
  -1077547.47900  27134772.66400                   -839643.53740  27134776.71940
  12179830.30700  26800193.94500                   9855420.00340  26800197.44940
   9600134.69000  25848769.94500                   7398737.42040  25848772.65240
 96  9  4  4 15 30.0160000  0  6  3 14 18 19 22 29
   -231288.34900  29318399.20300                   -165586.05440  29318403.35140
  17604419.82800  27192951.82800                  13625624.93340  27192956.17640
    236485.03400  25585879.35100                    191889.22740  25585882.65640
  -1077040.43500  27134869.45300                   -839248.40440  27134873.78940
  12312113.19700  26825366.92200                   9958497.59140  26825370.47340
   9693492.86500  25866535.33600                   7471484.04740  25866538.16040
 96  9  4  4 16  0.0160000  0  7  3 14 18 19 22 28 29
   -236853.29300  29317339.75800                   -169922.34840  29317346.09840
  17764314.82400  27223379.00800                  13750218.41840  27223382.88740
    252474.16000  25588921.88300                    204348.29740  25588925.38740
  -1076338.54900  27135002.94500                   -838701.44240  27135007.57440
  12444834.64900  26850622.99200                  10061916.90340  26850626.43740
     25368.31310  29676154.28100                      5823.57510  29676158.22300
   9787166.04400  25884360.96100                   7544476.13340  25884363.68040
 96  9  4  4 16 30.0160000  0  7  3 14 18 19 22 28 29
   -242235.66100  29316314.87500                   -174116.43340  29316319.53940
  17924478.54500  27253856.57000                  13875021.31540  27253861.09440
    268753.89900  25592019.18700                    217033.81840  25592022.60940
  -1075433.55900  27135175.21900                   -837996.22040  27135179.66040
  12577975.76200  26875959.35900                  10165663.22440  26875962.32440
     70494.12200  29684741.68000                     40986.53400  29684744.75800
   9881149.65900  25902245.32800                   7617710.11440  25902248.30540
 96  9  4  4 17  0.0160000  0  7  3 14 18 19 22 28 29
   -247432.76500  29315326.03100                   -178166.05440  29315330.88340
  18084933.73200  27284390.25000                  14000051.32540  27284395.26640
                                                      9422.90810  25595173.25800
  -1074307.53800  27135389.43000                   -837118.77040  27135393.64840
  12711526.29300  26901373.03100                  10269728.57640  26901376.48840
    116081.91000  29693416.26600                     76509.52300  29693420.30500
   9975446.67800  25920189.26600                   7691188.30340  25920192.19540
 96  9  4  4 17 30.0160000  0  7  3 14 18 19 22 28 29
   -252457.15400  29314369.88300                   -182081.20240  29314375.73040
  18245665.88000  27314977.25800                  14125297.13540  27314981.57040
                                                     26257.15700  25598376.64100
  -1072972.80700  27135643.46100                   -836078.69240  27135647.72640
  12845480.87800  26926863.78100                  10374108.77540  26926867.43740
    162122.59400  29702177.76600                    112385.39900  29702182.25400
  10070052.11900  25938192.38300                   7764906.82640  25938195.34840
 96  9  4  4 18  0.0160000  0  7  3 14 18 19 22 28 29
   -257298.21200  29313448.88300                   -185853.41240  29313451.95340
  18406692.81900  27345619.43700                  14250772.68540  27345623.49240
     43366.86300  25601632.50800                     12007.16650  25601635.77740
  -1071437.43000  27135935.19500                   -834882.25540  27135940.05840
  12979837.62400  26952430.80500                  10478802.34140  26952434.46140
    208628.85500  29711028.42200                    148624.05400  29711031.55800
  10164974.32100  25956255.34400                   7838872.17240  25956258.00440
 96  9  4  4 18 30.0160000  0  7  3 14 18 19 22 28 29
   -261953.37200  29312562.66400                   -189480.80040  29312569.08640
  18567996.37600  27376315.11700                  14376463.75340  27376318.85540
     60749.61300  25604940.17200                     25552.17540  25604943.75840
  -1069710.18700  27136263.94500                   -833536.30240  27136268.45740
  13114594.64400  26978073.96900                  10583807.81740  26978077.73040
    255595.74100  29719965.50000                    185221.67000  29719969.28500
  10260219.71800  25974380.02300                   7913089.36340  25974382.82440
 96  9  4  4 19  0.0160000  0  7  3 14 18 19 22 28 29
   -266406.46600  29311715.12500                   -192950.70640  29311720.15240
  18729555.86800  27407058.56200                  14502354.26240  27407062.58240
     78409.61200  25608300.89100                     39313.22240  25608304.06640
  -1067813.99800  27136624.51600                   -832058.71240  27136629.14440
  13249757.03800  27003794.64800                  10689129.16640  27003798.31640
    303020.62100  29728989.89100                    222176.13900  29728994.01200
  10355781.33300  25992564.98400                   7987552.95940  25992567.85540
 96  9  4  4 19 30.0160000  0  7  3 14 18 19 22 28 29
   -270664.07000  29310906.22600                   -196268.26140  29310908.85140
  18891355.90100  27437847.69500                  14628432.20640  27437852.19540
     96345.23800  25611714.21100                     53289.04940  25611717.30540
  -1065768.62100  27137013.77300                   -830464.87740  27137018.20340
  13385325.19000  27029592.49200                  10794766.69940  27029596.13740
    350899.59300  29738101.11700                    259484.45900  29738105.02300
  10451648.53800  26010807.76600                   8062254.67740  26010810.69540
 96  9  4  4 20  0.0160000  0  7  3 14 18 19 22 28 29
   -274715.97400  29310134.96900                   -199425.59240  29310139.23440
  19053400.74300  27468683.96900                  14754700.92040  27468688.83240
    114561.09300  25615180.57800                     67483.22840  25615183.71940
  -1063573.85700  27137431.38300                   -828754.62340  27137435.66040
  13521297.20500  27055467.18700                  10900718.91440  27055470.85540
    399234.78000  29747298.60100                    297148.27500  29747302.36700
  10547830.94600  26029110.67200                   8137202.00540  26029113.46140
 96  9  4  4 20 30.0160000  0  7  3 14 18 19 22 28 29
   -278558.81500  29309404.01600                   -202419.99040  29309407.64840
  19215670.08300  27499563.14800                  14881144.55540  27499566.62940
    133046.06000  25618698.18700                     81887.11640  25618701.34040
  -1061215.70800  27137880.32000                   -826917.04840  27137884.69140
  13657682.90900  27081420.49200                  11006993.48840  27081424.62940
    448026.65700  29756583.28100                    335167.97500  29756587.21500
  10644338.41700  26047475.35100                   8212402.63840  26047478.15240
 96  9  4  4 21  0.0160000  0  7  3 14 18 19 22 28 29
   -282195.32100  29308710.64100                   -205253.61940  29308716.00840
  19378168.43800  27530485.64100                  15007766.63740  27530489.81240
    151819.77000  25622270.26600                     96515.99040  25622273.69940
  -1058677.02900  27138363.35900                   -824938.81440  27138367.87140
  13794484.04900  27107453.03100                  11113591.78140  27107456.57040
    497283.97600  29765956.37500                    373550.27800  29765960.50400
  10741170.30600  26065902.05500                   8287856.05240  26065904.66840
 96  9  4  4 21 30.0170000  0  7  3 14 18 19 22 28 29
   -285646.94600  29308054.68400                   -207943.13440  29308058.44640
  19540890.01200  27561449.98100                  15134562.66740  27561454.91540
    170883.83700  25625898.02800                    111371.11540  25625901.48540
  -1055944.71200  27138883.27000                   -822809.69240  27138887.45440
  13931693.45500  27133563.20000                  11220508.21240  27133566.24740
    547000.02200  29775416.85600                    412290.05800  29775421.14100
  10838328.43600  26084390.38000                   8363563.68540  26084393.05240
 96  9  4  4 22  0.0170000  0  7  3 14 18 19 22 28 29
   -288881.78800  29307438.74700                   -210463.82040  29307442.53240
  19703846.70600  27592459.38800                  15261541.90140  27592463.57140
    190261.37000  25629585.58300                    126470.50040  25629589.13440
  -1052969.41600  27139449.34900                   -820491.22240  27139453.90740
  14069314.05900  27159751.13000                  11327745.04340  27159754.30640
    597199.65900  29784970.04400                    451406.65500  29784973.47700
  10935837.23100  26102945.75500                   8439544.55640  26102948.45040
 96  9  4  4 22 30.0170000  0  7  3 14 18 19 22 28 29
   -291935.96600  29306858.41900                   -212843.61240  29306862.75540
  19867010.16800  27623508.07500                  15388682.27140  27623512.22440
    209944.22000  25633331.05900                    141807.79440  25633334.32940
  -1049772.94500  27140057.52000                   -818000.41940  27140061.85640
  14207307.70200  27186010.38000                  11435272.55840  27186014.43440
    647853.84500  29794609.20800                    490877.53200  29794613.23900
  11033654.62900  26121559.63000                   8515765.90540  26121562.33740
 96  9  4  4 23  0.0170000  0  7  3 14 18 19 22 28 29
   -294780.90100  29306316.64500                   -215060.43640  29306319.15340
  20030406.45800  27654601.91900                  15516004.05040  27654606.22040
    229959.98000  25637140.08300                    157404.50040  25637143.35240
  -1046339.15400  27140710.99700                   -815324.68440  27140715.11040
  14345683.05400  27212342.34100                  11543097.50840  27212345.68140
    698976.46900  29804338.02000                    530713.36900  29804340.36400
  11131792.47300  26140234.95000                   8592236.94740  26140237.83340
 96  9  4  4 23 30.0170000  0  7  3 14 18 19 22 28 29
   -297395.77000  29305818.73100                   -217097.96740  29305823.45440
  20194058.90900  27685743.85600                  15643525.43740  27685748.21640
    250302.02900  25641010.66900                    173255.44940  25641014.06740
  -1042672.07200  27141408.31700                   -812467.16940  27141412.70040
  14484446.17600  27238748.34900                  11651224.62040  27238751.64140
    750578.92500  29814157.57500                    570923.08000  29814160.64100
  11230265.47100  26158973.46600                   8668969.14940  26158976.30240
 96  9  4  4 24  0.0170000  0  7  3 14 18 19 22 28 29
   -299757.35100  29305370.26300                   -218938.14540  29305374.09540
  20357980.13800  27716936.93400                  15771256.25040  27716940.97740
    270968.25200  25644943.55200                    189359.01140  25644946.93840
  -1038788.65300  27142147.71600                   -809441.08640  27142152.19240
  14623597.93800  27265228.31700                  11759654.56240  27265231.92740
    802666.02500  29824069.06700                    611510.43400  29824073.00900
  11329075.35700  26177776.29400                   8745963.86040  26177779.18840
 96  9  4  4 24 30.0170000  0  7  3 14 18 19 22 28 29
   -301854.66800  29304970.02800                   -220572.37240  29304973.98940
  20522159.49100  27748179.33300                  15899188.20040  27748183.88040
    291952.79800  25648936.52000                    205710.60940  25648940.03640
  -1034717.27400  27142922.60600                   -806268.55040  27142926.88440
  14763134.75700  27291780.72400                  11868384.54640  27291784.26340
    855229.24700  29834071.74700                    652468.84800  29834075.24300
  11428208.59400  26196640.63800                   8823210.53240  26196643.64940
 96  9  4  4 25  0.0170000  0  7  3 14 18 19 22 28 29
   -303680.17000  29304622.03600                   -221994.85640  29304623.39540
  20686592.32400  27779469.77000                  16027317.68940  27779474.35240
    313234.43400  25652986.44200                    222293.70840  25652989.80640
  -1030470.56800  27143730.60600                   -802959.40040  27143734.81340
  14903063.75100  27318408.52800                  11977420.13040  27318412.46640
    908270.33100  29844165.42700                    693799.58500  29844167.96600
  11527670.65000  26215568.02800                   8900713.43040  26215570.80640
 96  9  4  4 25 30.0170000  0  7  3 14 18 19 22 28 29
   -305258.72300  29304322.40300                   -223224.89140  29304324.71240
  20851251.47400  27810803.95000                  16155623.51840  27810808.47440
    334796.90700  25657089.59900                    239095.64240  25657093.00940
  -1026073.45400  27144567.31700                   -799533.04040  27144571.68840
  15043366.65300  27345107.48100                  12086747.07240  27345111.33740
    961783.61100  29854347.59100                    735498.26300  29854351.32500
  11627447.74200  26234555.09100                   8978461.81440  26234557.88040
 96  9  4  4 26  0.0170000  0  7  3 14 18 19 22 28 29
   -306590.03400  29304069.11400                   -224262.26340  29304074.24740
  21016118.42000  27842176.10600                  16284091.26840  27842180.39540
    356662.35600  25661250.50500                    256133.65540  25661253.90340
  -1021505.67100  27145436.67700                   -795973.69340  27145440.90740
  15184051.40100  27371878.67700                  12196371.54340  27371882.26340
   1015778.37900  29864622.75500                    777572.11200  29864626.69600
  11727541.77500  26253602.28600                   9056457.16040  26253604.95840
 96  9  4  4 26 30.0170000  0  7  3 14 18 19 22 28 29
   -307689.12900  29303859.89500                   -225118.66140  29303863.73940
  21181181.60500  27873587.02000                  16412711.93140  27873591.86040
    378840.74600  25665471.05200                    273415.52540  25665474.47440
  -1016749.46500  27146341.24700                   -792267.52040  27146345.17340
  15325120.64400  27398723.52000                  12306295.61840  27398726.84940
   1070262.45600  29874990.89500                    820027.28900  29874993.86400
  11827959.12500  26272710.72400                   9134704.44240  26272713.70040
 96  9  4  4 27  0.0170000  0  7  3 14 18 19 22 28 29
   -308591.00500  29303688.41900                   -225821.40040  29303691.16140
  21346428.37600  27905033.02000                  16541475.63840  27905036.95840
    401330.93100  25669750.72400                    290940.34940  25669754.04040
  -1011794.90300  27147284.34900                   -788406.79040  27147288.22740
  15466567.58300  27425639.66900                  12416513.99940  27425643.79440
   1125234.40200  29885450.86400                    862862.54600  29885453.71200
  11928700.19900  26291881.41900                   9213203.97640  26291884.24340
 96  9  4  4 27 30.0170000  0  7  3 14 18 19 22 28 29
   -309300.78100  29303552.55900                   -226374.44440  29303557.52840
  21511852.41600  27936511.79400                  16670377.48640  27936516.42340
    424140.50400  25674091.10600                    308714.04640  25674094.44640
  -1006634.40300  27148266.05200                   -784385.58240  27148270.43440
  15608375.88200  27452624.24700                  12527013.98040  27452627.78640
   1180688.12700  29896004.49700                    906073.27000  29896007.48100
  12029764.80000  26311113.08300                   9291955.60840  26311116.02440
 96  9  4  4 28  0.0170000  0  7  3 14 18 19 22 28 29
   -309817.15600  29303453.79400                   -226776.78040  29303459.37240
  21677457.20300  27968024.95800                  16799420.17940  27968029.23540
    447268.51500  25678492.30200                    326735.88340  25678495.68840
  -1001262.78000  27149288.55200                   -780199.87640  27149293.07540
  15750534.49900  27479677.05200                  12637786.91340  27479680.53240
   1236613.05800  29906646.11400                    949651.19300  29906650.05200
  12131162.29700  26330408.57500                   9370966.64940  26330411.57540
 96  9  4  4 28 30.0170000  0  7  3 14 18 19 22 28 29
   -310109.41900  29303399.49700                   -227004.47340  29303404.64140
  21843273.97600  27999579.02800                  16928628.06540  27999583.90340
    470731.22900  25682957.10600                    345018.52040  25682960.27040
   -995675.86000  27150351.55900                   -775846.40640  27150356.00140
  15893047.97000  27506796.54400                  12748836.36440  27506800.00140
   1293025.74400  29917380.32500                    993609.15200  29917384.91100
  12232914.63500  26349771.41900                   9450254.18240  26349774.14940
 96  9  4  4 29  0.0170000  0  7  3 14 18 19 22 28 29
   -310165.77300  29303387.88000                   -227048.37640  29303392.30940
  22009301.67900  28031173.06700                  17058000.29140  28031177.50940
    494528.12500  25687485.63000                    363561.55640  25687488.73540
   -989885.97400  27151453.25500                   -771334.77240  27151457.64940
  16035908.65700  27533982.03600                  12860156.37340  27533985.31740
   1349921.63900  29928208.86400                   1037943.60800  29928211.80900
  12335013.63900  26369200.15300                   9529811.84340  26369202.98940
 96  9  4  4 29 30.0170000  0  7  3 14 18 19 22 28 29
   -309946.55500  29303429.53600                   -226877.49340  29303432.12640
  22175559.54800  28062810.67700                  17187551.87840  28062815.21240
    518679.41700  25692081.27000                    382380.74840  25692084.78640
   -983894.69300  27152593.24700                   -766666.21740  27152597.33740
  16179129.64800  27561236.59100                  12971757.14640  27561239.90740
   1407315.29200  29939129.28600                   1082665.97600  29939132.98900
  12437478.40700  26388698.46600                   9609654.51740  26388701.40740
 96  9  4  4 30  0.0170000  0  7  3 14 18 19 22 28 29
   -309454.05000  29303524.23900                   -226493.71440  29303529.31340
  22342022.77500  28094488.01300                  17317263.48540  28094491.91540
    543170.58400  25696741.91900                    401464.78240  25696745.20040
   -977722.77800  27153768.11400                   -761856.90240  27153771.95840
  16322713.52200  27588559.23900                  13083640.67840  27588562.38040
   1465196.34000  29950144.03600                   1127768.12900  29950147.15300
  12540276.69100  26408260.51300                   9689757.07840  26408263.32540
 96  9  4  4 30 30.0170000  0  8  3 14 18 19 22 28 29 31
   -308663.81400  29303674.13800                   -225877.97240  29303679.31740
  22508686.97000  28126203.73100                  17447131.69640  28126207.98540
    568006.94500  25701468.04400                    420817.80740  25701471.45440
   -971376.14300  27154975.68400                   -756911.44740  27154979.76340
  16466673.21000  27615954.23100                  13195817.05240  27615957.45440
   1523570.96900  29961252.10600                   1173254.85500  29961255.36800
  12643386.76400  26427881.91900                   9770102.58140  26427884.68440
    -10705.87910  29644709.97400
 96  9  4  4 31  0.0170000  0  8  3 14 18 19 22 28 29 31
   -307566.05000  29303882.38800                   -225022.53240  29303885.59940
  22675552.41200  28157956.42700                  17577156.70940  28157961.59540
    593185.97800  25706259.32500                    440437.84540  25706262.61840
   -964840.97900  27156219.22400                   -751819.07740  27156223.20840
  16611015.61700  27643421.03600                  13308291.65340  27643424.70440
   1582442.69200  29972455.47400                   1219128.96900  29972458.91900
  12746816.66500  26447563.80200                   9850697.30640  26447566.54440
    -39933.68600  29938940.31700
 96  9  4  4 31 30.0170000  0  8  3 14 18 19 22 28 29 31
   -306161.90800  29304150.37200                   -223928.33840  29304154.55640
  22842612.02000  28189747.27800                  17707333.01340  28189751.63840
    618684.51900  25711112.03600                    460306.85140  25711115.32940
   -958123.16000  27157497.78600                   -746584.39440  27157501.74740
  16755723.08700  27670956.82500                  13421050.72140  27670960.56340
   1641801.10700  29983751.16100                   1265382.28200  29983754.13400
  12850562.22500  26467305.84100                   9931537.99340  26467308.65340
    -69195.61300  29933370.29400
 96  9  4  4 32  0.0170000  0  8  3 14 18 19 22 28 29 31
   -304468.28200  29304472.70800                   -222608.60740  29304476.72740
  23009855.65900  28221572.18400                  17837652.73040  28221576.90740
    644491.06400  25716022.56700                    480415.85940  25716025.75540
   -951223.60700  27158810.33300                   -741208.09240  27158814.43440
  16900770.30500  27698559.84100                  13534074.51440  27698562.61840
   1701637.87300  29995137.35600                   1312008.37700  29995140.41900
  12954606.59900  26487104.91100                  10012611.52840  26487107.67740
    -98488.14200  29927796.17700                    -18261.55550  29927802.70440
 96  9  4  4 32 30.0170000  0  9  3 14 18 19 22 27 28 29 31
   -302495.50500  29304847.87200                   -221071.37940  29304851.02440
  23177288.08800  28253433.89500                  17968119.55540  28253438.70040
    670609.41700  25720992.59100                    500767.83440  25720995.88440
   -944133.36700  27160159.58300                   -735683.21240  27160163.81340
  17046128.33000  27726220.20800                  13647340.51340  27726223.30240
    -10904.59710  30137938.95000
   1761956.01700  30006616.61400                   1359009.51900  30006618.86000
  13058972.96900  26506964.98900                  10093935.97240  26506967.82540
   -127807.63200  29922217.66900                    -41107.92640  29922221.03240
 96  9  4  4 33  0.0170000  0  9  3 14 18 19 22 27 28 29 31
   -300267.94100  29305270.34900                   -219335.58940  29305274.05240
  23344909.47000  28285330.73900                  18098733.62240  28285334.94640
    697038.25400  25726022.02000                    521361.74740  25726025.22040
   -936836.54900  27161547.95000                   -729997.35640  27161552.26340
  17191790.51200  27753938.28600                  13760843.51540  27753942.27040
    -30093.30100  30134286.76300
   1822759.75000  30018185.80200                   1406389.13000  30018189.27800
  13163679.23800  26526889.93400                  10175525.26840  26526892.79440
   -157161.76000  29916632.74700                    -63981.25540  29916637.25940
 96  9  4  4 33 30.0170000  0  9  3 14 18 19 22 27 28 29 31
   -297786.15000  29305744.44200                   -217401.69640  29305747.73540
  23512725.00400  28317265.41900                  18229498.97240  28317269.49740
    723805.72800  25731115.38800                    542219.53240  25731118.72740
   -929318.50700  27162979.02800                   -724139.11540  27162983.34140
  17337777.51600  27781719.35600                  13874599.62940  27781722.95440
    -49215.11200  30130648.05900                        -0.07050  30130654.79840
   1884063.02500  30029851.58300                   1454157.92400  30029855.48100
  13268725.61800  26546879.75500                  10257379.58340  26546882.49740
   -186536.25900  29911042.95000                    -86870.50240  29911047.46240
 96  9  4  4 34  0.0170000  0  9  3 14 18 19 22 27 28 29 31
   -295059.28000  29306262.00500                   -215276.85640  29306266.91540
  23680718.71900  28349233.43400                  18360403.15740  28349237.04440
    750923.25300  25736275.44200                    563350.08240  25736278.74740
   -921572.86100  27164452.49700                   -718103.52540  27164456.70440
  17484092.02700  27809562.02000                  13988610.93840  27809565.89940
    -68276.16800  30127021.09900                    -14852.74540  30127026.31340
   1945863.44300  30041611.57500                   1502314.15300  30041615.74700
  13374104.64300  26566932.52000                  10339493.10340  26566935.35640
   -215949.44800  29905445.19200                   -109789.78540  29905449.82140
 96  9  4  4 34 30.0180000  0  9  3 14 18 19 22 27 28 29 31
   -292081.27400  29306829.29100                   -212956.31140  29306835.34940
  23848887.77200  28381235.42400                  18491443.97440  28381239.49040
    778384.65600  25741501.40000                    584748.59640  25741504.84640
   -913598.70700  27165970.01000                   -711889.87840  27165974.15840
  17630750.78100  27837469.79900                  14102890.47740  27837472.79940
    -87274.03500  30123404.73600                    -29656.14640  30123411.63140
   2008158.44200  30053466.33000                   1550855.71500  30053469.20900
  13479824.16100  26587050.41600                  10421871.94340  26587053.27540
   -245412.07600  29899836.69700                   -132747.73840  29899842.38140
 96  9  4  4 35  0.0180000  0  9  3 14 18 19 22 27 28 29 31
   -288823.36800  29307449.40000                   -210417.64240  29307454.32240
  24017228.05600  28413268.84600                  18622618.23340  28413273.36940
    806201.31400  25746794.79100                    606423.92140  25746798.06040
   -905394.11500  27167531.54100                   -705496.68240  27167535.81840
  17777776.91800  27865448.19700                  14217456.30440  27865451.83040
   -106215.55100  30119800.69700                    -44415.62140  30119806.11140
   2070953.55600  30065416.42400                   1599786.95900  30065417.98600
  13585882.21600  26607232.53300                  10504514.57340  26607235.40440
   -274908.80400  29894225.01000                   -155732.11840  29894231.04540
 96  9  4  4 35 30.0180000  0  9  3 14 18 19 22 27 28 29 31
   -285255.67000  29308128.09600                   -207637.57440  29308131.02540
  24185746.82300  28445337.30700                  18753931.57240  28445341.17440
    834388.04400  25752158.58000                    628387.61040  25752161.86140
   -896965.39000  27169135.32200                   -698928.81740  27169139.24840
  17925174.02800  27893497.12700                  14332311.19740  27893500.98240
   -125104.19000  30116206.55700                    -59133.98040  30116210.71740
   2134256.98400  30077461.21300                   1649114.33100  30077465.30700
  13692282.44000  26627480.03300                  10587423.83640  26627482.97440
   -304414.10600  29888611.21300                   -178723.27940  29888614.69340
 96  9  4  4 36  0.0180000  0  9  3 14 18 19 22 27 28 29 31
   -281359.96500  29308869.76000                   -204601.96540  29308874.17840
  24354446.01200  28477439.16600                  18885385.47840  28477443.94740
    862933.28300  25757590.40000                    650630.66140  25757593.82240
   -888319.43100  27170780.51700                   -692191.68740  27170784.53740
  18072932.75900  27921615.03300                  14447447.86640  27921618.59640
   -143924.57300  30112624.61900                    -73799.13140  30112630.32640
   2198073.38700  30089606.23600                   1698841.40500  30089608.74800
  13799032.89600  26647793.68200                  10670606.00440  26647796.52940
   -333917.11600  29882996.51700                   -201712.67240  29882999.61140
 96  9  4  4 36 30.0180000  0  9  3 14 18 19 22 27 28 29 31
   -277135.74800  29309673.72800                   -201310.36240  29309677.16240
  24523326.13600  28509576.07200                  19016980.35240  28509580.71340
    891825.03300  25763088.41600                    673143.71440  25763091.89640
   -879479.53500  27172462.83800                   -685303.43140  27172467.20940
  18221043.03000  27949799.05700                  14562858.46540  27949802.23240
   -162697.85800  30109052.91600                    -88427.54540  30109058.93940
   2262394.08000  30101845.21300                   1748961.46600  30101849.03700
  13906124.70300  26668172.95500                  10754054.16240  26668175.96740
   -363421.01500  29877381.93200                   -224702.71140  29877386.68940
 96  9  4  4 37  0.0180000  0  9  3 14 18 19 22 27 28 29 31
   -272590.76100  29310537.61900                   -197768.83840  29310542.84640
  24692382.51700  28541745.90000                  19148712.60040  28541751.29140
    921070.83100  25768653.66600                    695932.65040  25768657.00640
   -870458.54700  27174179.38500                   -678274.06740  27174183.54540
  18369483.45400  27978045.80700                  14678526.34640  27978049.01740
   -181432.69000  30105488.00200                   -103026.00040  30105491.44740
   2327214.65500  30114179.65800                   1799471.06100  30114183.10300
  14013549.98600  26688615.11100                  10837762.17340  26688618.07640
   -392929.87400  29871766.72800                   -247696.67340  29871773.39640
 96  9  4  4 37 30.0180000  0  9  3 14 18 19 22 27 28 29 31
   -267713.32800  29311466.42400                   -193968.14440  29311471.41640
  24861635.11600  28573954.27500                  19280597.77640  28573959.67840
    950687.76700  25774289.61100                    719010.79440  25774293.01040
   -861228.69400  27175935.56400                   -671081.94840  27175939.85340
  18518258.18400  28006356.94700                  14794454.69240  28006360.19340
   -200084.48100  30101937.86900                   -117559.81640  30101944.65440
   2392557.02800  30126614.43200                   1850387.21000  30126617.68900
  14121334.35800  26709125.82200                  10921749.99440  26709128.71740
   -422428.83100  29866154.06400                   -270682.85340  29866159.71340
 96  9  4  4 38  0.0180000  0  9  3 14 18 19 22 27 28 29 31
   -262530.67200  29312452.68900                   -189929.71340  29312455.80740
  25031044.06800  28606192.15000                  19412604.75540  28606195.77140
    980656.28500  25779992.53300                    742362.89440  25779995.83840
   -851814.55300  27177726.97800                   -663746.22640  27177731.27940
  18667334.21200  28034725.72100                  14910617.82940  28034728.88540
   -218674.51500  30098401.52500                   -132045.39740  30098405.54540
   2458395.22200  30139144.21300                   1901689.69200  30139145.87700
  14229466.98400  26729703.01000                  11006009.18140  26729705.86940
   -451955.79500  29860534.30700                   -293690.81340  29860536.72140
 96  9  4  4 38 30.0180000  0  9  3 14 18 19 22 27 28 29 31
   -257019.25900  29313500.83000                   -185635.11940  29313504.38140
  25200618.46500  28638460.67400                  19544740.65440  28638465.88940
   1011018.87200  25785770.38500                    766022.05740  25785773.59640
   -842185.90600  27179559.40800                   -656243.36240  27179563.83840
  18816725.18200  28063153.60300                  15027026.38840  28063157.74040
   -237170.09500  30094880.47100                   -146457.55540  30094888.54940
   2524754.20000  30151771.01700                   1953398.00800  30151773.49800
  14337980.01000  26750352.01000                  11090564.78040  26750354.75240
   -481481.09200  29854916.43200                   -316697.55940  29854919.39640
 96  9  4  4 39  0.0180000  0  9  3 14 18 19 22 27 28 29 31
   -251181.30100  29314612.54900                   -181086.03040  29314617.17840
  25370338.46700  28670757.56400                  19676990.02840  28670761.91240
   1041768.77200  25791621.79100                    789983.02940  25791625.13140
   -832342.06400  27181432.37700                   -648572.80740  27181436.34940
  18966409.05700  28091637.90000                  15143663.16540  28091641.51040
   -255560.20000  30091380.86100                   -160787.41440  30091389.43240
   2591632.47700  30164498.11100                   2005510.96100  30164501.00600
  14446870.42500  26771072.97100                  11175414.45240  26771075.85340
   -510999.15100  29849298.62700                   -339698.63040  29849302.47140
 96  9  4  4 39 30.0180000  0  9  3 14 18 19 22 27 28 29 31
   -244998.15800  29315789.98600                   -176267.96040  29315794.06440
  25540194.61400  28703080.43900                  19809345.42540  28703085.32640
   1072897.50900  25797545.58800                    814239.18540  25797548.71740
   -822278.06200  27183347.73600                   -640730.69440  27183351.99040
  19116393.38300  28120178.27500                  15260534.07640  28120182.02540
   -273845.59700  30087901.76000                   -175035.67140  30087907.02140
   2659033.06600  30177322.68200                   2058030.91100  30177326.46300
  14556127.39600  26791864.15000                  11260549.75840  26791867.01040
   -540496.86200  29843685.60300                   -362683.88840  29843686.67040
 96  9  4  4 40  0.0180000  0  9  3 14 18 19 22 27 28 29 31
   -238451.27300  29317035.68200                   -171166.50140  29317037.77940
  25710189.07300  28735429.12700                  19941808.66340  28735433.87340
   1104415.25300  25803542.90800                    838798.47640  25803546.18940
   -811991.22200  27185305.05700                   -632714.93640  27185309.09940
  19266686.09900  28148778.08000                  15377645.29140  28148781.05740
   -292037.89900  30084439.01000                   -189211.45740  30084442.88940
   2726961.83200  30190249.57200                   2110962.41600  30190252.65800
  14665739.58000  26812722.86100                  11345961.84540  26812725.66240
   -569951.15200  29838081.47100                   -385635.25340  29838085.59640
 96  9  4  4 40 30.0180000  0  9  3 14 18 19 22 27 28 29 31
   -231574.91200  29318343.59600                   -165808.26340  29318347.63940
  25880310.71900  28767801.96300                  20074370.98640  28767806.87340
   1136281.60500  25809607.04900                    863629.40540  25809610.20140
   -801508.96500  27187300.00200                   -624546.92340  27187304.03340
  19417265.95700  28177433.21300                  15494980.23340  28177437.38540
   -310173.48200  30080988.67400                   -203343.01640  30080995.75640
   2795388.12800  30203270.79100                   2164281.62600  30203273.86500
  14775657.40200  26833639.36900                  11431612.08540  26833642.29940
   -599381.45300  29832479.86900                   -408567.96040  29832479.89240
 96  9  4  4 41  0.0180000  0  9  3 14 18 19 22 27 28 29 31
   -224346.63500  29319718.64200                   -160175.82440  29319722.58040
  26050591.39900  28800205.88500                  20207057.22540  28800210.64240
   1168520.74800  25815741.86900                    888750.82240  25815744.95140
   -790807.16500  27189336.24400                   -616207.83340  27189340.15840
  19568169.37100  28206149.11100                  15612567.32740  28206152.76740
   -328237.47900  30077550.24400                   -217418.75340  30077556.31440
   2864338.24100  30216391.40000                   2218009.00300  30216394.97800
  14885891.69500  26854616.08800                  11517508.94040  26854618.81840
   -628764.02400  29826888.53300                   -431463.52740  29826895.17840
 96  9  4  4 41 30.0180000  0  9  3 14 18 19 22 27 28 29 31
   -216769.22500  29321159.70500                   -154271.31940  29321163.66640
  26221019.63500  28832636.22800                  20339858.49340  28832640.06040
   1201139.51100  25821948.98600                    914168.04340  25821952.16240
   -779893.24200  27191413.15800                   -607703.44740  27191416.96740
  19719406.51300  28234928.33800                  15730414.45240  28234931.61940
   -346230.22000  30074127.38500                   -231439.03040  30074131.70940
   2933808.50600  30229611.19700                   2272141.64700  30229613.96700
  14996445.61500  26875653.72100                  11603654.84540  26875656.66240
   -658091.83700  29821307.40800                   -454316.36640  29821313.11540
 96  9  4  4 42  0.0180000  0  9  3 14 18 19 22 27 28 29 31
   -208871.62600  29322662.26700                   -148117.32040  29322667.56440
  26391592.98600  28865095.69700                  20472772.76940  28865100.36140
   1234152.60100  25828231.13500                    939892.54140  25828234.40440
   -768769.13000  27193530.17400                   -599035.27940  27193533.88940
  19870968.23400  28263769.47800                  15848514.47740  28263772.74840
   -364149.00900  30070716.75200                   -245401.63740  30070724.38540
   3003795.90900  30242929.83800                   2326677.30600  30242933.52500
  15107341.21000  26896756.29900                  11690066.99740  26896759.29940
   -687372.32100  29815737.09600                   -477132.31340  29815739.59240
 96  9  4  4 42 30.0180000  0  9  3 14 18 19 22 27 28 29 31
   -200657.69000  29324225.54100                   -141716.85440  29324229.58440
  26562307.48400  28897581.42400                  20605797.05540  28897585.84240
   1267573.52000  25834591.08800                    965934.82240  25834594.32240
   -757435.35300  27195686.61100                   -590203.73540  27195690.32640
  20022854.48100  28292672.89200                  15966867.39940  28292676.40840
   -381974.19000  30067325.68200                   -259291.31440  30067332.50240
   3074306.25300  30256347.97100                   2381620.44700  30256350.99000
  15218603.72500  26917929.06400                  11776765.05840  26917932.00640
   -716605.44300  29810173.44700                   -499911.39640  29810178.46340
 96  9  4  4 43  0.0180000  0  9  3 14 18 19 22 27 28 29 31
   -192122.46900  29325851.36100                   -135065.99540  29325854.80740
  26733143.74500  28930090.15800                  20738916.22940  28930095.73640
   1301399.63900  25841027.98600                    992292.84340  25841031.11540
   -745895.41500  27197882.57200                   -581211.54540  27197886.49840
  20175053.42700  28321635.81400                  16085463.99740  28321639.09640
   -399703.38500  30063951.18900                   -273106.20340  30063958.48240
   3145337.53300  30269863.33800                   2436969.48800  30269867.61100
  15330242.32400  26939173.21300                  11863756.17240  26939176.09640
   -745799.98200  29804617.92400                   -522660.28540  29804622.44740
 96  9  4  4 43 30.0180000  0  9  3 14 18 19 22 27 28 29 31
   -183278.86800  29327533.90000                   -128174.85340  29327538.38940
  26904091.82300  28962620.82200                  20872122.54540  28962625.46340
   1335616.21500  25847539.02500                   1018955.12040  25847542.42440
   -734167.04800  27200114.57200                   -572072.53040  27200118.84940
  20327533.32900  28350650.85300                  16204279.49840  28350653.84240
   -417357.74000  30060591.87700                   -286862.80740  30060597.93540
   3216872.73500  30283476.86100                   2492711.28300  30283481.10300
  15442260.05900  26960489.60300                  11951042.72140  26960492.77940
   -774968.05900  29799068.07200                   -545388.67440  29799073.59240
 96  9  4  4 44  0.0180000  0  9  3 14 18 19 22 27 28 29 31
   -174117.92900  29329276.36900                   -121036.46340  29329279.68540
  27075178.49800  28995177.26700                  21005436.86140  28995181.08840
   1370233.06700  25854126.29900                   1045929.29840  25854129.43940
   -722236.53700  27202384.97100                   -562776.00540  27202388.97840
  20480297.86700  28379721.22100                  16323316.79240  28379725.46340
   -434949.25300  30057243.15800                   -300570.33540  30057251.13140
   3288923.10500  30297187.66600                   2548854.39400  30297191.05700
  15554657.80000  26981878.08000                  12038625.36340  26981881.02140
   -804110.80500  29793522.26700                   -568097.33040  29793524.37740
 96  9  4  4 44 30.0180000  0  9  3 14 18 19 22 27 28 29 31
   -164592.26600  29331089.95500                   -113613.82040  29331093.14240
  27246419.87100  29027763.47800                  21138871.69540  29027767.89640
   1405241.60800  25860788.42400                   1073208.69340  25860791.59940
   -710088.38100  27204696.29100                   -553309.86940  27204700.72140
  20633363.15100  28408848.05700                  16442588.44740  28408852.36940
   -452478.80100  30053908.18200                   -314229.65840  30053915.02540
   3361499.25400  30310997.69700                   2605407.24000  30311002.05700
  15667419.33200  27003336.01000                  12126491.48540  27003339.03340
   -833208.78300  29787983.54100                   -590771.06940  29787987.43240
 96  9  4  4 45  0.0180000  0  9  3 14 18 19 22 27 28 29 31
   -154712.84500  29332969.45500                   -105915.57940  29332972.11540
  27417803.29700  29060375.97800                  21272417.19640  29060380.57240
   1440608.59900  25867518.63500                   1100767.39340  25867521.89240
   -697745.52900  27207045.06400                   -543692.03740  27207049.21340
  20786705.69600  28438028.32200                  16562076.13940  28438031.67440
   -469990.00200  30050575.73600                   -327874.63240  30050580.70540
   3434575.82400  30324905.01000                   2662350.03800  30324908.02900
  15780503.46000  27024855.08000                  12214608.98640  27024857.86940
   -862275.67000  29782451.65000                   -613420.58440  29782455.48240
 96  9  4  4 45 30.0180000  0  9  3 14 18 19 22 27 28 29 31
   -144472.69900  29334918.61100                    -97936.24840  29334923.69740
  27589338.39300  29093018.68200                  21406080.93240  29093022.58440
   1476342.57400  25874318.42400                   1128612.04940  25874321.61140
   -685204.09800  27209431.54100                   -533919.46540  27209435.53740
  20940326.94300  28467261.91600                  16681781.00140  28467265.71340
   -487475.70100  30047247.65800                   -341499.81140  30047251.77140
   3508157.01300  30338906.41600                   2719686.04400  30338909.58800
  15893902.14400  27046434.25200                  12302971.59540  27046437.29940
   -891296.03300  29776930.59600                   -636033.87640  29776936.95940
 96  9  4  4 46  0.0180000  0  9  3 14 18 19 22 27 28 29 31
   -133843.95300  29336940.86900                    -89654.08940  29336943.96340
  27761031.60200  29125691.28300                  21539867.84940  29125694.74040
   1512444.76600  25881188.18900                   1156743.63440  25881191.48240
   -672446.97500  27211859.35300                   -523978.82540  27211863.19740
  21094240.19400  28496550.97800                  16801713.41940  28496554.26040
   -504910.86800  30043930.01700                   -355085.56240  30043936.77940
   3582253.75500  30353006.75200                   2777423.76000  30353009.70900
  16007611.22300  27068072.27500                  12391576.06440  27068075.22840
   -920252.24000  29771420.64200                   -658597.12040  29771425.92840
 96  9  4  4 46 30.0180000  0  9  3 14 18 19 22 27 28 29 31
   -122820.93800  29339037.85300                    -81064.71240  29339042.56440
  27932863.13500  29158389.62700                  21673762.57640  29158393.75240
   1548910.72500  25888127.65000                   1185158.67640  25888130.94340
   -659484.17200  27214325.75200                   -513877.91940  27214329.74840
  21248430.58000  28525891.69700                  16921861.78140  28525895.44740
   -522273.92900  30040626.64200                   -368615.17840  30040632.39640
   3656860.17800  30367204.02500                   2835558.63700  30367206.51400
  16121624.54500  27089768.45500                  12480417.61240  27089771.33840
   -949138.24800  29765923.99400                   -681105.66240  29765929.95940
 96  9  4  4 47  0.0180000  0  9  3 14 18 19 22 27 28 29 31
   -111437.58500  29341203.97100                    -72194.51640  29341208.84640
  28104809.48500  29191109.29100                  21807746.73540  29191113.72140
   1585747.96300  25895137.51000                   1213863.01940  25895140.74440
   -646326.26300  27216829.62700                   -503624.98840  27216833.41240
  21402877.85900  28555281.76000                  17042210.29440  28555286.03740
   -539558.34500  30037337.01000                   -382083.46040  30037342.49440
   3731972.72800  30381497.32200                   2894087.90900  30381500.34200
  16235957.29100  27111524.80700                  12569508.05440  27111527.60740
   -977963.71600  29760438.25200                   -703567.11840  29760443.43240
 96  9  4  4 47 30.0190000  0  9  3 14 18 19 22 27 28 29 31
    -99710.20300  29343435.46800                    -63056.26240  29343439.68640
  28276846.59500  29223847.25700                  21941801.69040  29223851.81540
   1622951.82400  25902217.23300                   1242853.04940  25902220.42140
   -632976.75000  27219370.24900                   -493222.74840  27219373.88240
  21557577.78600  28584720.87400                  17162755.70440  28584724.14340
   -556757.97300  30034064.68600                   -395485.68040  30034068.64740
   3807584.78900  30395886.03000                   2953006.40800  30395888.80400
  16350611.23300  27133343.03800                  12658848.78540  27133345.92140
  -1006743.09200  29754962.78000                   -725992.56240  29754964.39740
 96  9  4  4 48  0.0190000  0  9  3 14 18 19 22 27 28 29 31
    -87622.97900  29345735.94400                    -53637.58540  29345739.08540
  28448956.50800  29256598.51500                  22075913.29040  29256603.62440
   1660536.22400  25909369.35000                   1272139.60640  25909372.64340
   -619425.21700  27221949.02200                   -482663.08140  27221952.77240
  21712533.42200  28614207.72500                  17283500.36440  28614210.58540
   -573869.38300  30030807.74900                   -408819.14240  30030810.22240
   3883701.33200  30410370.23300                   3012318.03900  30410373.49100
  16465592.94700  27155223.53000                  12748444.92340  27155226.20240
  -1035464.72300  29749496.60000                   -748373.00140  29749499.77640
 96  9  4  4 48 30.0190000  0  8  3 14 18 19 22 27 29 31
    -75178.52800  29348104.34300                    -43940.60340  29348108.14040
  28621140.41200  29289364.45200                  22210082.56740  29289368.40140
   1698528.56000  25916598.99900                   1301744.02340  25916602.28040
   -605658.53200  27224568.77200                   -471935.76440  27224572.60440
  21867751.82300  28643745.06900                  17404449.76240  28643748.44440
   -590889.83500  30027569.28000                   -422081.75840  30027572.71440
  16580930.12800  27177171.55400                  12838318.05140  27177174.48340
  -1064123.95600  29744043.54600                   -770704.91240  29744048.09340
 96  9  4  4 49  0.0190000  0  8  3 14 18 19 22 27 29 31
    -62368.09800  29350542.56900                    -33958.45840  29350546.70640
  28793401.07600  29322144.62400                  22344311.66140  29322150.00340
   1736931.68600  25923906.67100                   1331668.54440  25923910.06940
   -591660.08100  27227232.61600                   -461027.85540  27227236.54240
  22023236.87800  28673332.50700                  17525606.93840  28673336.05740
   -607820.58300  30024347.10000                   -435274.44140  30024352.53840
  16696641.60600  27199190.56900                  12928482.83340  27199193.26540
  -1092715.58600  29738601.92900                   -792984.06340  29738605.80740
 96  9  4  4 49 30.0190000  0  8  3 14 18 19 22 27 29 31
    -49173.41400  29353052.35800                    -23676.83240  29353057.39740
  28965729.96400  29354936.39700                  22478593.92740  29354941.26140
   1775736.89400  25931291.06100                   1361906.37440  25931294.33140
   -577450.97500  27229936.26500                   -449955.80940  27229940.24940
  22178970.12900  28702967.92900                  17646957.53440  28702970.85840
   -624688.03700  30021137.80400                   -448417.80940  30021141.91740
  16812693.04700  27221274.41300                  13018912.52340  27221277.21440
  -1121240.19900  29733173.64000                   -815211.07940  29733180.12040
 96  9  4  4 50  0.0190000  0  8  3 14 18 19 22 27 29 31
    -35572.23500  29355641.11600                    -13078.49940  29355644.71440
  29138147.32200  29387748.06100                  22612945.14640  29387753.34740
   1814972.38300  25938757.38200                   1392479.48540  25938760.52240
   -563034.78400  27232679.53000                   -438722.39640  27232683.39740
  22334947.68300  28732648.62400                  17768498.46940  28732652.79640
   -641493.01000  30017939.18600                   -461512.54440  30017946.22240
  16929099.33300  27243425.64000                  13109618.71640  27243428.74540
  -1149684.41600  29727761.29600                   -837375.32340  29727765.80740
 96  9  4  4 50 30.0190000  0  8  3 14 18 19 22 27 29 31
    -21576.18100  29358304.46000                     -2172.48340  29358308.31540
  29310662.63700  29420576.42100                  22747372.67940  29420581.34340
   1854631.04000  25946304.14700                   1423382.34540  25946307.39340
   -548424.49100  27235459.78800                   -427337.73340  27235463.76140
  22491163.91500  28762375.62400                  17890225.43440  28762379.30440
   -658228.65600  30014754.27200                   -474553.14740  30014756.72240
  17045857.14600  27265644.23300                  13200598.82540  27265647.16340
  -1178039.93900  29722365.34300                   -859470.54740  29722371.28440
 96  9  4  4 51  0.0190000  0  8  3 14 18 19 22 27 29 31
     -7194.17000  29361041.76500                      9034.28340  29361045.51540
  29483254.57700  29453419.43600                  22881859.90440  29453423.90140
   1894687.84300  25953926.64700                   1454595.44340  25953929.94040
   -533650.77700  27238271.45200                   -415825.73040  27238275.12040
  22647611.46600  28792146.61600                  18012132.58640  28792150.03840
   -674917.50700  30011578.31100                   -487557.37140  30011583.16340
  17162930.64300  27287922.16300                  13291824.92540  27287925.04640
  -1206310.93700  29716986.30400                   -881499.87140  29716991.36640
 96  9  4  4 51 30.0190000  0  8  3 14 18 19 22 27 29 31
      7591.34500  29363855.46000                     20555.46140  29363860.11240
  29655954.63900  29486282.88200                  23016431.41240  29486286.77240
   1935177.46700  25961631.89700                   1486145.80440  25961635.09740
   -518692.29000  27241117.58500                   -404169.75040  27241121.59340
  22804316.95400  28821966.89700                  18134240.77440  28821969.61640
   -691542.10700  30008415.14000                   -500511.49540  30008419.56940
  17280332.58600  27310263.35800                  13383306.95140  27310266.11240
  -1234470.82400  29711626.53800                   -903442.60940  29711631.41340
 96  9  4  4 52  0.0190000  0  8  3 14 18 19 22 27 29 31
     22726.74900  29366734.72500
  29828730.08800  29519160.45200                  23151061.64340  29519165.30440
   1976056.56900  25969410.48300                   1517999.65740  25969413.65940
   -503570.42900  27243995.54600                   -392386.47040  27243999.36640
  22961250.61500  28851830.47500                  18256526.75140  28851833.62840
   -708113.78000  30005261.54600                   -513424.37440  30005266.91340
  17398046.32400  27332663.55400                  13475031.93540  27332666.31940
  -1262555.56100  29706282.35000                   -925326.79640  29706287.72940
 96  9  4  4 52 30.0190000  0  8  3 14 18 19 22 27 29 31
     38233.95900  29369686.08500                      6885.91550  29369689.05040
  30001589.79700  29552054.99100                  23285757.48540  29552059.79640
   2017330.97400  25977264.78000                   1550161.53740  25977267.82740
   -488241.00600  27246912.06900                   -380441.46040  27246915.89040
  23118427.58100  28881740.97500                  18379002.31140  28881744.04640
   -724606.87500  30002122.74900                   -526276.05340  30002128.29240
  17516087.64200  27355125.81100                  13567012.18140  27355128.60040
  -1290535.86100  29700958.39000                   -947129.61640  29700962.29240
 96  9  4  4 53  0.0190000  0  8  3 14 18 19 22 27 29 31
     54140.90600  29372712.05400                     19280.94240  29372715.79240
  30174534.59700  29584964.98300                  23420519.69240  29584970.43240
   2059013.94100  25985197.17900                   1582641.77940  25985200.30740
   -472683.64000  27249872.86600                   -368318.81940  27249876.53440
  23275854.12700  28911697.86600                  18501672.33640  28911701.51140
   -741031.96300  29998996.47500                   -539074.72840  29999001.47940
  17634471.50700  27377653.60000                  13659259.34240  27377656.57740
  -1318408.77900  29695654.33500                   -968848.77640  29695656.38640
 96  9  4  4 53 30.0190000  0  8  3 14 18 19 22 27 29 31
     70430.13000  29375812.40500                     31973.83940  29375815.32340
  30347547.87600  29617889.20200                  23555335.21040  29617893.81940
   2101096.53900  25993205.01500                   1615433.42340  25993208.13240
   -456918.76100  27252872.92900                   -356034.48440  27252876.96040
  23433504.04200  28941698.37400                  18624516.42940  28941701.91340
   -757409.59100  29995879.74900                   -551836.43440  29995884.12040
  17753189.73200  27400245.12400                  13751767.04640  27400247.74940
  -1346192.73500  29690367.44400                   -990498.61140  29690370.72540
 96  9  4  4 54  0.0190000  0  8  3 14 18 19 22 27 29 31
     87104.98900  29378985.27200                     44967.25340  29378988.70640
  30520613.70200  29650822.24100                  23690191.75640  29650829.30040
   2143574.94800  26001288.39000                   1648533.49240  26001291.58940
   -440949.27500  27255911.99900                   -343590.71840  27255915.81940
  23591383.82200  28971740.79600                  18747539.62540  28971744.64040
   -773740.62600  29992772.57700                   -564561.81840  29992776.93640
  17872251.41000  27422901.46800                  13844542.37340  27422904.35040
  -1373879.97900  29685097.61600                  -1012073.06340  29685103.71040
 96  9  4  4 54 30.0190000  0  8  3 14 18 19 22 27 29 31
    104178.74700  29382234.30400                     58271.50440  29382237.93640
  30693734.01700  29683765.29600                  23825090.72640  29683768.91740
   2186460.72100  26009449.16300                   1681950.98540  26009452.38640
   -424771.39800  27258990.20200                   -330984.55840  27258994.19840
  23749501.76900  29001829.19400                  18870748.41440  29001832.64040
   -790039.66900  29989670.81100                   -577262.28140  29989676.89340
  17991659.03800  27445623.95200                  13937587.27040  27445627.08140
  -1401463.68700  29679849.61600                  -1033566.84140  29679852.35840
 96  9  4  4 55  0.0190000  0  8  3 14 18 19 22 27 29 31
    121624.36500  29385553.61600                     71865.51340  29385558.15140
  30866893.73800  29716716.57700                  23960020.40940  29716719.94040
   2229744.21000  26017685.80400                   1715678.38840  26017689.08540
   -408412.39500  27262103.10800                   -318237.27040  27262107.29240
  23907851.78500  29031963.35800                  18994138.03540  29031966.49940
   -806310.46800  29986574.00700                   -589940.75340  29986576.90140
  18111395.02700  27468409.53000                  14030888.03340  27468412.44840
  -1428957.40900  29674617.29600                  -1054990.51240  29674620.67140
 96  9  4  4 55 30.0190000  0  8  3 14 18 19 22 27 29 31
    139430.85800  29388942.64700                     85740.75340  29388946.01140
  31040100.29500  29749675.14700                  24094986.55740  29749682.41740
   2273428.91000  26025998.54600                   1749718.42640  26026001.75740
   -391866.00500  27265252.07700                   -305343.96140  27265256.12040
  24066423.67900  29062139.06100                  19117700.56140  29062141.69840
   -822518.26500  29983489.69400                   -602570.13340  29983495.35440
  18231465.52200  27491257.92900                  14124449.45540  27491260.80040
  -1456345.11800  29669405.72500                  -1076331.53940  29669409.44040
 96  9  4  4 56  0.0190000  0  8  3 14 18 19 22 27 29 31
    157591.22800  29392397.95200                     99891.70340  29392402.68640
  31213361.12100  29782647.41300                  24229994.95940  29782652.30040
   2317502.12300  26034385.38200                   1784061.19240  26034388.59340
   -375125.17500  27268437.47500                   -292299.15140  27268441.43640
  24225200.90500  29092353.20200                  19241423.07540  29092355.65140
   -838655.78300  29980419.02200                   -615144.75040  29980423.30040
  18351869.93500  27514169.90500                  14218271.07240  27514172.91740
  -1483627.15700  29664214.32700                  -1097590.28940  29664217.47940
 96  9  4  4 56 30.0190000  0  8  3 14 18 19 22 27 29 31
    176123.56400  29395925.68600                    114332.51940  29395930.26840
  31386682.95500  29815628.43600                  24365050.94340  29815632.38640
   2361969.42600  26042847.46800                   1818711.04440  26042850.70240
   -358189.12700  27271660.38200                   -279102.21140  27271664.22540
  24384168.14900  29122603.81100                  19365293.66140  29122606.90540
   -854707.36700  29977364.69400                   -627652.40040  29977369.59340
  18472609.42500  27537146.08500                  14312353.78040  27537149.02640
  -1510792.93100  29659043.92100                  -1118758.41240  29659048.67940
 96  9  4  4 57  0.0190000  0  8  3 14 18 19 22 27 29 31
    195054.71500  29399529.11600                    129084.07140  29399529.85440
  31560076.53300  29848625.56100                  24500162.84340  29848630.37840
   2406859.24000  26051389.92100                   1853690.12740  26051393.14340
   -341046.95900  27274922.51500                   -265744.65240  27274926.31140
  24543337.57400  29152891.45200                  19489321.77840  29152894.75740
   -870643.22700  29974331.88200                   -640069.92240  29974337.20240
  18593705.49500  27560189.49100                  14406714.34240  27560192.81940
  -1537822.48400  29653900.93600                  -1139820.36140  29653903.24540
 96  9  4  4 57 30.0190000  0  8  3 14 18 19 22 27 29 31
    214394.62200  29403207.06100                    144154.11640  29403211.62040
  31733530.22100  29881632.34300                  24635321.58140  29881636.40940
   2452170.36900  26060012.21000                   1888997.50140  26060015.35040
   -323707.45300  27278221.76500                   -252233.33940  27278225.36240
  24702696.00800  29183216.65500                  19613497.18840  29183220.60440
   -886487.38100  29971317.24900                   -652415.89540  29971322.26540
  18715152.97000  27583300.90500                  14501348.72940  27583303.67140
  -1564724.08900  29648781.20200                  -1160782.65740  29648787.15540
 96  9  4  4 58  0.0190000  0  8  3 14 18 19 22 27 29 31
    234167.39000  29406970.38200                    159561.50140  29406974.81140
  31907034.32000  29914648.90500                  24770519.57740  29914653.34740
   2497909.46400  26068716.08500                   1924638.35540  26068719.13240
   -306162.57400  27281560.46000                   -238561.99340  27281564.44440
  24862266.63200  29213581.64700                  19737837.90540  29213586.60440
   -902252.23900  29968317.38200                   -664700.15840  29968323.89740
  18836955.07400  27606478.81100                  14596259.45640  27606481.29640
  -1591496.29900  29643686.93600                  -1181644.08740  29643690.99140
 96  9  4  4 58 30.0190000  0  8  3 14 18 19 22 27 29 31
    254357.42400  29410812.44400                    175294.03240  29410816.03040
  32080534.87300  29947664.79600                  24905714.85140  29947669.94040
   2544048.70400  26077496.17100                   1960591.01440  26077499.27640
   -288442.56300  27284932.41300                   -224754.16640  27284936.83140
  25022018.71600  29243982.46000                  19862320.04140  29243986.25740
   -917979.59100  29965323.92100                   -676955.18540  29965330.00340
  18959067.51500  27629715.82700                  14691412.00940  27629718.46440
  -1618182.05600  29638609.34300                  -1202438.18640  29638612.94040
 96  9  4  4 59  0.0190000  0  8  3 14 18 19 22 27 29 31
    274980.03000  29414735.92900                    191363.60140  29414739.73740
  32254051.24500  29980683.99900                  25040922.41940  29980687.45640
   2590605.54100  26086355.32700                   1996869.07240  26086358.47940
   -270512.60100  27288344.32700                   -210782.74940  27288348.62840
  25181978.17100  29274421.14700                  19986963.76440  29274424.66340
   -933654.13400  29962342.07700                   -689169.04940  29962347.25740
  19081503.18900  27653014.50700                  14786816.41840  27653017.80040
  -1644752.43500  29633552.56100                  -1223142.37940  29633554.63640
 96  9  4  4 59 30.0190000  0  8  3 14 18 19 22 27 29 31
    296047.29900  29418745.26500                    207779.67740  29418748.58140
  32427594.73700  30013708.52200                  25176151.10240  30013714.66340
   2637576.05100  26095293.79600                   2033469.47440  26095296.97240
   -252359.13800  27291799.00700                   -196637.16540  27291803.17940
  25342151.90900  29304901.17900                  20111774.48740  29304904.97540
   -949279.54600  29959367.92900                   -701344.64640  29959373.56540
  19204248.48500  27676371.96800                  14882462.09940  27676375.03840
  -1671183.91100  29628523.31900                  -1243738.32740  29628527.71440
 96  9  4  5  0  0.0190000  0  8  3 14 18 19 22 27 29 31
    317548.53600  29422836.96800                    224533.88540  29422840.35440
  32601140.78500  30046732.92100                  25311381.76940  30046736.91740
   2684927.29500  26104304.20200                   2070366.55140  26104307.27240
   -234012.15300  27295290.41300                   -182340.79340  27295294.25740
  25502511.10300  29335416.10800                  20236729.70440  29335420.26840
   -964875.54000  29956399.75700                   -713497.27640  29956405.25340
  19327272.14000  27699783.19400                  14978324.68240  27699786.14740
  -1697491.22900  29623517.30400                  -1264237.53240  29623522.53040
 96  9  4  5  0 30.0200000  0  8  3 14 18 19 22 27 29 31
    339510.65700  29427016.20700                    241647.24840  29427020.08640
  32774735.94500  30079767.43300                  25446650.75740  30079770.99640
   2732703.78400  26113395.83200                   2107594.98740  26113398.96140
   -215449.45300  27298822.94900                   -167876.33240  27298826.78140
  25663081.84200  29365971.15200                  20361849.76640  29365973.54340
   -980403.51300  29953445.95700                   -725596.93540  29953450.23440
  19450607.21100  27723252.75400                  15074429.93040  27723255.40240
  -1723629.64600  29618542.34000                  -1284605.12240  29618546.66440
 96  9  4  5  1  0.0200000  0  8  3 14 18 19 22 27 29 31
    361900.91800  29431276.73800                    259094.21140  29431281.57840
  32948347.18000  30112804.29300                  25581932.32340  30112807.32840
   2780876.86200  26122563.02700                   2145132.44840  26122566.09840
   -196718.48100  27302387.06600                   -153280.74140  27302390.87540
  25823836.33300  29396562.16000                  20487112.97640  29396565.65240
   -995884.06000  29950498.51900                   -737659.65740  29950503.38340
  19574221.42800  27746775.82400                  15170752.68540  27746778.49640
  -1749613.03500  29613598.49600                  -1304851.88140  29613602.37540
 96  9  4  5  1 30.0200000  0  8  3 14 18 19 22 27 29 31
    384712.77200  29435618.44900                    276869.70640  29435622.43340
  33121964.03000  30145840.75400                  25717218.16740  30145846.76540
   2829449.91000  26131805.99600                   2182981.57940  26131809.10140
   -177839.14000  27305979.84000                   -138569.54540  27305983.60140
  25984777.32800  29427188.22300                  20612521.55240  29427192.87540
  -1011320.47600  29947562.34000                   -749687.94840  29947566.96940
  19698117.30300  27770352.53500                  15267294.93540  27770355.60540
  -1775465.61200  29608678.28500                  -1324996.73240  29608681.98840
 96  9  4  5  2  0.0200000  0  8  3 14 18 19 22 27 29 31
    407940.92200  29440038.24600                    294969.57340  29440041.49240
  33295582.71700  30178880.10500                  25852505.45440  30178885.32040
   2878433.81200  26141127.28500                   2221150.85040  26141130.54340
   -158811.30500  27309600.66800                   -123742.64840  27309604.14840
  26145897.33600  29457848.50400                  20738069.61040  29457852.21940
  -1026699.36400  29944635.51200                   -761671.45540  29944640.55140
  19822320.37900  27793987.35500                  15364076.53940  27793990.27340
  -1801197.07800  29603782.10500                  -1345047.24440  29603785.15240
 96  9  4  5  2 30.0200000  0  8  3 14 18 19 22 27 29 31
    431554.96100  29444530.83200                    313370.15240  29444535.48440
  33469198.43500  30211919.34800                  25987790.44740  30211924.51540
   2927837.58600  26150528.44100                   2259647.29940  26150531.54740
   -139630.46100  27313250.69100                   -108796.52340  27313253.99640
  26307188.87400  29488540.87100                  20863751.31440  29488545.19540
  -1042023.95600  29941719.26900                   -773612.63640  29941724.75440
  19946826.27700  27817679.81600                  15461094.11340  27817683.03940
  -1826825.26700  29598905.26200                  -1365017.23540  29598907.78140
 96  9  4  5  3  0.0200000  0  8  3 14 18 19 22 27 29 31
    455568.45900  29449102.82400                    332081.99340  29449105.94140
  33642813.48700  30244955.93300                  26123074.86840  30244963.21540
   2977669.83300  26160011.20700                   2298477.62340  26160014.32440
   -120273.66000  27316933.97300                    -93713.28140  27316937.82840
  26468655.81900  29519266.60500                  20989569.71240  29519271.37540
  -1057286.18800  29938815.34000                   -785505.22540  29938820.87140
  20071653.41400  27841433.87100                  15558362.00640  27841436.81240
  -1852343.74100  29594048.88700                  -1384901.72840  29594053.11740
 96  9  4  5  3 30.0200000  0  8  3 14 18 19 22 27 29 31
    479980.18200  29453747.91000                    351104.10640  29453750.80540
  33816441.36900  30277997.37900                  26258369.29940  30278001.39840
   3027948.19300  26169578.85500                   2337655.56840  26169582.01940
   -100711.80700  27320656.54300                    -78470.25640  27320660.30540
  26630288.01300  29550025.44100                  21115516.86640  29550028.91040
  -1072480.30600  29935922.91800                   -797344.78140  29935928.96540
  20196814.05900  27865251.58200                  15655889.78440  27865254.65240
  -1877732.06800  29589217.63700                  -1404684.83040  29589221.45740
 96  9  4  5  4  0.0200000  0  8  3 14 18 19 22 27 29 31
    504780.40200  29458464.37900                    370428.98740  29458470.67240
  33990092.98800  30311041.73000                  26393682.34540  30311046.34840
   3078662.08100  26179229.26900                   2377172.88840  26179232.41040
    -80952.48400  27324416.46500                    -63073.35940  27324420.20340
  26792065.00100  29580809.38700                  21241576.86340  29580813.37140
  -1087625.71000  29933041.52700                   -809146.31440  29933044.25840
  20322305.10300  27889131.06600                  15753674.99940  27889134.06640
  -1902987.50800  29584411.19100                  -1424364.39540  29584416.79340
 96  9  4  5  4 30.0200000  0  8  3 14 18 19 22 27 29 31
    529986.73300  29463264.21500                    390070.29340  29463267.51940
  34163778.41100  30344091.68300                  26529021.55540  30344094.26240
   3129827.33500  26188966.17600                   2417041.92840  26188969.18740
    -60992.81400  27328214.76200                    -47520.34440  27328218.41840
  26954001.69600  29611626.69100                  21367761.28140  29611629.19940
  -1102720.77300  29930169.00400                   -820908.64540  29930173.35140
  20448125.45200  27913074.26200                  15851716.83140  27913077.39040
  -1928082.61600  29579636.12900                  -1443918.99340  29579641.56640
 96  9  4  5  5  0.0200000  0  8  3 14 18 19 22 27 29 31
    555609.85500  29468138.12900                    410036.35540  29468139.69940
  34337481.55200  30377148.06600                  26664374.69840  30377155.21940
   3181428.66600  26198785.07400                   2457250.75640  26198788.23840
    -40846.87800  27332048.14400                    -31822.18840  27332052.04740
  27116086.13300  29642469.51900                  21494060.87640  29642472.06240
  -1117770.94300  29927304.65200                   -832636.00040  29927309.08240
  20574268.85600  27937078.41800                  15950010.38040  27937081.66440
  -1952996.93400  29574895.12900                  -1463332.75240  29574898.52740
 96  9  4  5  5 30.0200000  0  8  3 14 18 19 22 27 29 31
    581658.52500  29473094.79300                    430334.08940  29473100.71140
  34511210.81700  30410207.48800                  26799748.21140  30410210.39440
   3233471.38800  26208688.55100                   2497803.53340  26208691.80840
    -20515.70200  27335917.11300                    -15979.69040  27335920.94540
  27278332.98300  29673344.23000                  21620486.97840  29673346.97340
  -1132778.22900  29924449.04300                   -844329.91940  29924453.47340
  20700736.71500  27961144.55800                  16048556.75640  27961147.24240
  -1977715.83700  29570191.05800                  -1482594.24540  29570194.31640
 96  9  4  5  6  0.0200000  0  8  3 14 18 19 22 27 29 31
    608145.99400  29478137.31600                    450973.70840  29478140.65640
  34684938.85800  30443266.27700                  26935120.68840  30443270.59040
   3285944.69000  26218673.97300                   2538691.82740  26218677.28940
       -17.42700  27339817.92600                        -6.99540  27339821.68740
  27440737.97500  29704248.55100                  21747036.33640  29704252.01940
  -1147749.54300  29921600.84000                   -855995.85440  29921605.60940
  20827521.97800  27985271.16800                  16147350.46140  27985274.07440
  -2002250.72300  29565522.78500                  -1501712.29640  29565526.16040
 96  9  4  5  6 30.0200000  0  8  3 14 18 19 22 27 29 31
    635089.76000  29483262.01900                    471968.80740  29483266.20340
  34858640.06900  30476320.83200                  27070472.29740  30476327.13740
   3338852.61600  26228741.93300                   2579918.79340  26228745.15640
     20666.42700  27343753.87900                     16110.30640  27343757.52340
  27603296.29400  29735181.53500                  21873705.15340  29735185.37940
  -1162662.86700  29918761.98800                   -867616.56940  29918765.72640
  20954625.82000  28009458.44100                  16246392.40540  28009461.23040
  -2026583.98000  29560891.93300                  -1520673.28540  29560895.07440
 96  9  4  5  7  0.0200000  0  8  3 14 18 19 22 27 29 31
    662475.77900  29488474.74600                    493308.63640  29488478.89440
  35032282.40600  30509363.62900                  27205778.02740  30509368.72640
   3392160.70400  26238886.13700                   2621457.57340  26238889.31240
     41534.87600  27347724.73800                     32371.45540  27347728.26540
  27765983.84900  29766141.16000                  22000474.63640  29766144.48840
  -1177524.73300  29915933.98800                   -879197.19240  29915938.61740
  21082033.64200  28033703.16000                  16345671.21640  28033705.84440
  -2050739.68500  29556295.47300                  -1539495.86140  29556299.37540
 96  9  4  5  7 30.0200000  0  8  3 14 18 19 22 27 29 31
    690310.65800  29493772.18300                    514998.14040  29493774.99640
  35205871.49500  30542395.30800                  27341042.25640  30542399.91440
   3445879.73400  26249108.73800                   2663316.56040  26249111.80840
     62599.78900  27351733.06600                     48785.68440  27351737.22640
  27928816.90800  29797128.12100                  22127357.54640  29797132.77340
  -1192320.02600  29913118.41800                   -890725.98140  29913123.73840
  21209757.82700  28058008.05800                  16445196.55140  28058011.24640
  -2074719.14500  29551732.32400                  -1558181.17940  29551736.08640
 96  9  4  5  8  0.0200000  0  8  3 14 18 19 22 27 29 31
    718597.33000  29499153.12100                    537039.73040  29499156.69540
  35379389.64400  30575415.19900                  27476251.21840  30575419.94540
   3500009.96900  26259409.16800                   2705495.96540  26259412.23840
     83861.32300  27355779.46500                     65353.12640  27355783.41440
  28091770.43900  29828136.18300                  22254334.35540  29828139.67640
  -1207038.69500  29910317.59800                   -902195.02740  29910321.52340
  21337799.61800  28082373.72300                  16544969.37440  28082376.92240
  -2098525.87300  29547202.55800                  -1576731.87840  29547205.68740
 96  9  4  5  8 30.0200000  0  8  3 14 18 19 22 27 29 31
    747339.70900  29504624.26900                    559436.39140  29504629.00440
  35552846.62500  30608422.87100                  27611412.49740  30608424.91040
   3554558.35400  26269789.59000                   2748001.20540  26269792.66040
    105332.14500  27359865.09800                     82083.66140  27359869.00040
  28254856.92700  29859171.30800                  22381414.78140  29859173.88740
  -1221667.21100  29907534.10500                   -913593.85340  29907538.37140
  21466164.22200  28106800.34800                  16644993.72940  28106803.28940
  -2122152.70900  29542705.84800                  -1595142.37340  29542710.01940
 96  9  4  5  9  0.0200000  0  8  3 14 18 19 22 27 29 31
    776544.13300  29510180.90200                    582193.11640  29510185.23840
  35726272.10100  30641425.93300                  27746549.18840  30641429.64840
   3609544.36700  26280253.12100                   2790847.44940  26280256.21540
    127005.69400  27363989.54300                     98972.15640  27363993.35140
  28418099.17300  29890234.13700                  22508616.51140  29890236.86740
  -1236208.37800  29904767.14400                   -924924.59740  29904771.76240
  21594862.81500  28131291.10500                  16745278.34340  28131294.18740
  -2145593.13100  29538245.06600                  -1613407.58540  29538249.23840
 96  9  4  5  9 30.0200000  0  8  3 14 18 19 22 27 29 31
    806206.86900  29515825.91000                    605306.94240  29515828.57040
  35899671.33500  30674422.26200                  27881665.46340  30674425.68340
   3664980.31600  26290802.14400                   2834044.29640  26290805.18040
    148864.41400  27368148.80800                    116004.93940  27368152.61740
  28581483.94500  29921324.91800                  22635929.34240  29921327.95340
  -1250678.30900  29902013.17600                   -936199.83540  29902018.21540
  21723891.01400  28155844.34000                  16845819.77940  28155847.35140
  -2168856.48300  29533819.27700                  -1631534.86640  29533821.80840
 96  9  4  5 10  0.0200000  0  8  3 14 18 19 22 27 29 31
    836346.10000  29521560.35500                    628792.06040  29521565.04340
  36073053.85300  30707415.88700                  28016768.80040  30707419.47340
   3720865.75900  26301436.86300                   2877591.39940  26301440.05140
    170906.74100  27372343.63700                    133180.78940  27372347.32840
  28745005.09700  29952442.37900                  22763348.38040  29952444.86340
  -1265085.61700  29899271.65200                   -947426.28640  29899277.61740
  21853248.98300  28180460.64400                  16946618.19440  28180463.97340
  -2191938.55400  29529425.79300                  -1649520.91140  29529428.86340
 96  9  4  5 10 30.0200000  0  8  3 14 18 19 22 27 29 31
    866942.35400  29527383.24600                    652633.32740  29527387.04340
  36246420.44700  30740406.48800                  28151859.63640  30740411.08240
   3777180.21900  26312152.98800                   2921472.80340  26312156.24640
    193105.15300  27376567.94900                    150478.27340  27376571.50040
  28908664.76700  29983585.68300                  22890875.41440  29983589.99640
  -1279448.20800  29896538.39400                   -958617.88940  29896543.51540
  21982908.42200  28205134.00400                  17047651.51940  28205136.86340
  -2214835.03000  29525069.70700                  -1667362.29140  29525073.68040
 96  9  4  5 11  0.0200000  0  8  3 14 18 19 22 27 29 31
    898016.06400  29533295.79300                    676846.62140  29533300.35140
  36419801.12600  30773399.39400                  28286961.45840  30773401.56240
   3833949.47500  26322955.79300                   2965708.59040  26322959.07440
    215471.92900  27380823.78500                    167906.93840  27380827.53540
  29072478.42400  30014757.53500                  23018522.42940  30014763.25440
  -1293759.81000  29893815.03500                   -969769.75640  29893820.48440
  22112883.13900  28229867.41000                  17148930.50840  28229870.37540
  -2237511.49300  29520753.53500                  -1685032.26640  29520757.98840
 96  9  4  5 11 30.0200000  0  8  3 14 18 19 22 27 29 31
    929574.40200  29539301.41800                    701437.58140  29539306.01240
  36593184.09300  30806394.39400                  28422065.03540  30806396.12940
   3891174.72200  26333845.36300                   3010299.69140  26333848.68040
    238020.86100  27385114.84000                    185477.54540  27385118.69540
  29236442.87000  30045959.22300                  23146286.92640  30045962.30540
  -1308019.65800  29891101.80100                   -980881.28640  29891104.50840
  22243165.72500  28254659.25400                  17250449.40140  28254662.50040
  -2259958.20400  29516482.49600                  -1702523.17940  29516485.43740
 96  9  4  5 12  0.0200000  0  8  3 14 18 19 22 27 29 31
    961603.63500  29545396.13700                    726395.43140  29545399.51240
  36766549.80900  30839384.62900                  28557155.28040  30839387.75840
   3948847.72800  26344820.36300                   3055239.70140  26344823.60940
    260745.88700  27389439.33200                    203185.37640  27389443.48040
  29400557.42500  30077189.97300                  23274168.40040  30077194.02740
  -1322230.97500  29888397.01200                   -991955.00940  29888400.72640
  22373740.84100  28279506.78500                  17352196.23040  28279510.24240
  -2282164.96400  29512256.37900                  -1719827.13040  29512260.57440
 96  9  4  5 12 30.0200000  0  8  3 14 18 19 22 27 29 31
    994093.80500  29551579.92600                    751712.48140  29551584.33240
  36939884.57900  30872368.48800                  28692221.38940  30872370.41040
   4006986.35500  26355883.80800                   3100542.53040  26355886.99640
    283660.95500  27393799.94100                    221041.28940  27393803.70340
  29564824.05600  30108449.21500                  23402168.42240  30108453.39840
  -1336375.48500  29885704.93300                  -1002976.68340  29885708.41440
  22504608.90200  28304410.08200                  17454171.33140  28304412.95340
  -2304121.29900  29508078.48800                  -1736935.97640  29508082.43740
 96  9  4  5 13  0.0200000  0  8  3 14 18 19 22 27 29 31
   1027050.96100  29557851.10500                    777393.41140  29557854.97340
  37113175.03000  30905345.17600                  28827252.79640  30905348.78540
   4065600.66800  26367037.51900                   3146216.02040  26367040.55540
    306797.04800  27398202.55100                    239069.42740  27398206.31240
  29729231.26500  30139735.01200                  23530277.91840  30139738.48040
  -1350443.20400  29883028.21500                  -1013938.50440  29883031.55540
  22635790.45100  28329373.52700                  17556390.70640  28329376.37540
  -2325841.03600  29503945.29300                  -1753860.42540  29503948.98440
 96  9  4  5 13 30.0210000  0  8  3 14 18 19 22 27 29 31
   1060483.65200  29564212.61800                    803444.83540  29564216.45040
  37286421.09100  30938312.69600                  28962249.79040  30938315.54440
   4124687.52400  26378281.54000                   3192257.72840  26378284.66940
    330176.00400  27402651.43800                    257286.80440  27402654.98940
  29893778.79700  30171047.25900                  23658496.79040  30171053.43440
  -1364403.18000  29880371.47000                  -1024816.35940  29880375.93440
  22767301.97100  28354399.37600                  17658867.21140  28354402.04840
  -2347313.44900  29499859.36000                  -1770592.15740  29499862.43140
 96  9  4  5 14  0.0210000  0  8  3 14 18 19 22 27 29 31
   1094364.47200  29570659.74300                    829845.50240  29570663.35240
  37459596.37600  30971265.68800                  29097191.62540  30971269.95440
   4184216.22800  26389609.47000                   3238643.73040  26389612.55240
    353772.15200  27407141.55600                    275673.41740  27407145.25940
  30058429.41100  30202378.89100                  23786795.98640  30202382.02040
  -1378266.36100  29877733.11800                  -1035618.80040  29877737.91140
  22899116.68600  28379482.62600                  17761579.96440  28379485.87240
  -2368549.16000  29495818.89900                  -1787139.46940  29495822.69640
 96  9  4  5 14 30.0210000  0  8  3 14 18 19 22 27 29 31
   1128710.26400  29577196.72700                    856608.44640  29577199.02440
  37632730.00100  31004212.10200                  29232100.88940  31004219.54840
   4244194.00100  26401022.94600                   3285379.65640  26401026.12240
    377603.33400  27411676.56300                    294243.17740  27411680.19640
  30223193.37000  30233732.04000                  23915183.46240  30233734.82940
  -1392025.36600  29875115.16500                  -1046340.07240  29875119.14940
  23031260.02900  28404628.22700                  17864548.79440  28404630.77040
  -2389534.48300  29491824.50900                  -1803491.62440  29491827.49740
 96  9  4  5 15  0.0210000  0  8  3 14 18 19 22 27 29 31
   1163541.36600  29583824.55600                    883749.58640  29583828.58740
  37805850.01300  31037155.01600                  29366999.55340  31037160.47740
   4304624.84100  26412522.32100                   3332468.62440  26412525.50940
    401668.88400  27416255.96200                    312995.55940  27416259.59540
  30388073.48500  30265108.74300                  24043661.48040  30265111.94240
  -1405696.50200  29872513.63400                  -1056992.87440  29872518.41540
  23163740.32500  28429838.66500                  17967780.18540  28429841.74740
  -2410258.02200  29487881.54000                  -1819639.84440  29487884.21240
 96  9  4  5 15 30.0210000  0  7  3 18 19 22 27 29 31
   1198865.50300  29590546.07100                    911274.89240  29590551.08740
   4365510.71500  26424108.54000                   3379912.17040  26424111.72740
    425934.39100  27420873.68100                    331903.75440  27420877.58340
  30553067.97300  30296506.11800                  24172228.62040  30296510.04440
  -1419298.59900  29869925.18100                  -1067591.84340  29869929.54040
  23296542.87900  28455110.48500                  18071262.67040  28455113.43840
  -2430717.48200  29483988.66500                  -1835582.26640  29483991.87640
 96  9  4  5 16  0.0210000  0  7  3 18 19 22 27 29 31
   1234682.57400  29597361.79800                    939184.31440  29597363.88440
   4426870.87700  26435784.97700                   3427725.28440  26435788.13040
    450380.79500  27425525.72000                    350952.91140  27425529.51640
  30718185.22500  30327926.11800                  24300891.41340  30327929.42340
  -1432856.35400  29867345.38400                  -1078156.28140  29867348.07940
  23429667.31100  28480442.67300                  18174995.99040  28480445.77840
  -2450922.16100  29480143.40700                  -1851326.14840  29480146.86440
 96  9  4  5 16 30.0210000  0  7  3 18 19 22 27 29 31
   1271000.07300  29604272.07100                    967483.67440  29604275.18840
   4488719.76100  26447554.32100                   3475919.21940  26447557.48540
    475012.56300  27430212.81300                    370146.50640  27430217.06740
  30883425.28100  30359369.96200                  24429649.95440  30359373.77040
  -1446371.71000  29864772.93100                  -1088687.67840  29864777.13840
  23563122.91600  28505838.67300                  18278987.36140  28505841.46240
  -2470879.65200  29476345.59500                  -1866877.42040  29476349.45040
